[[{"header":{"parameterUnit":"m.s-1","parameterCategory":1,"la1":30.6,"la2":29.2853,"lo1":-89.7004,"lo2":-87.6739,"dy":0.0162,"dx":0.0183,"nx":112,"ny":82,"refTime":"2024-03-24T12:00:00:Z","depth":0,"parameterNumber":2,"parameterNumberName":"U-component_of_WINDS"},"data":[0.0,0.0,0.0,0.0,0.0,0.0,0.0,0.0,0.0,0.0,0.0,0.0,0.0,0.0,0.0,0.0,0.0,0.0,0.0,0.0,0.0,0.0,0.0,0.0,0.0,0.0,0.0,0.0,0.0,0.0,0.0,0.0,0.0,0.0,0.0,0.0,0.0,0.0,0.0,0.0,0.0,0.0,0.0,0.0,0.0,0.0,0.0,0.0,0.0,0.0,0.0,0.0,0.0,0.0,0.0,0.0,0.0,0.0,0.0,0.0,0.0,0.0,0.0,0.0,0.0,0.0,0.0,0.0,0.0,0.0,0.0,0.0,0.0,0.0,0.0,0.0,0.0,0.0,0.0,0.0,0.0,0.0,0.0,0.0,0.0,0.0,0.0,0.0,0.0,0.0,-3.7427,-3.9129,-3.976,-3.9626,-3.8557,-3.7175,-3.5188,-3.242,0.0,0.0,0.0,0.0,0.0,0.0,0.0,0.0,0.0,0.0,0.0,0.0,0.0,0.0,0.0,0.0,0.0,0.0,0.0,0.0,0.0,0.0,0.0,0.0,0.0,0.0,0.0,0.0,0.0,0.0,0.0,0.0,0.0,0.0,0.0,0.0,0.0,0.0,0.0,0.0,0.0,0.0,0.0,0.0,0.0,0.0,0.0,0.0,0.0,0.0,0.0,0.0,0.0,0.0,0.0,0.0,0.0,0.0,0.0,0.0,0.0,0.0,0.0,0.0,0.0,0.0,0.0,0.0,0.0,0.0,0.0,0.0,0.0,0.0,0.0,0.0,0.0,0.0,0.0,0.0,0.0,0.0,0.0,0.0,0.0,0.0,0.0,0.0,0.0,0.0,0.0,0.0,0.0,0.0,0.0,0.0,0.0,0.0,0.0,0.0,0.0,0.0,0.0,0.0,-3.8176,-3.9349,-3.9283,-3.8846,-3.7992,-3.6687,-3.4751,-3.2072,0.0,0.0,0.0,0.0,0.0,0.0,0.0,0.0,0.0,0.0,0.0,0.0,0.0,0.0,0.0,0.0,0.0,0.0,0.0,0.0,0.0,0.0,0.0,0.0,0.0,0.0,0.0,0.0,0.0,0.0,0.0,0.0,0.0,0.0,0.0,0.0,0.0,0.0,0.0,0.0,0.0,0.0,0.0,0.0,0.0,0.0,0.0,0.0,0.0,0.0,0.0,0.0,0.0,0.0,0.0,0.0,0.0,0.0,0.0,0.0,0.0,0.0,0.0,0.0,0.0,0.0,0.0,0.0,0.0,0.0,0.0,0.0,0.0,0.0,0.0,0.0,0.0,0.0,0.0,0.0,0.0,0.0,0.0,0.0,0.0,0.0,0.0,0.0,0.0,0.0,0.0,0.0,0.0,0.0,0.0,0.0,0.0,0.0,0.0,0.0,0.0,0.0,0.0,-3.7636,-3.8975,-4.0327,-3.9771,-3.9151,-3.8841,-3.7165,-3.4958,-3.2235,-3.0509,0.0,0.0,0.0,0.0,0.0,0.0,0.0,0.0,0.0,0.0,0.0,0.0,0.0,0.0,0.0,0.0,0.0,0.0,0.0,0.0,0.0,0.0,0.0,0.0,0.0,0.0,0.0,0.0,0.0,0.0,0.0,0.0,0.0,0.0,0.0,0.0,0.0,0.0,0.0,0.0,0.0,0.0,0.0,0.0,0.0,0.0,0.0,0.0,0.0,0.0,0.0,0.0,0.0,0.0,0.0,0.0,0.0,0.0,0.0,0.0,0.0,0.0,0.0,0.0,0.0,0.0,0.0,0.0,0.0,0.0,0.0,0.0,0.0,0.0,0.0,0.0,0.0,0.0,0.0,0.0,0.0,0.0,0.0,0.0,0.0,0.0,0.0,0.0,0.0,0.0,0.0,0.0,0.0,0.0,0.0,0.0,0.0,0.0,0.0,0.0,0.0,0.0,-3.8549,-3.9399,-4.0739,-4.0053,-3.9515,-3.9518,-3.7359,-3.4947,-3.2432,-3.0438,0.0,0.0,0.0,0.0,0.0,0.0,0.0,0.0,0.0,0.0,0.0,0.0,0.0,0.0,0.0,0.0,0.0,0.0,0.0,0.0,0.0,0.0,0.0,0.0,0.0,0.0,0.0,0.0,0.0,0.0,0.0,0.0,0.0,0.0,0.0,0.0,0.0,0.0,0.0,0.0,0.0,0.0,0.0,0.0,0.0,0.0,0.0,0.0,0.0,0.0,0.0,0.0,0.0,0.0,0.0,0.0,0.0,0.0,0.0,0.0,0.0,0.0,0.0,0.0,0.0,0.0,0.0,0.0,0.0,0.0,0.0,0.0,0.0,0.0,0.0,0.0,0.0,0.0,0.0,0.0,0.0,0.0,0.0,0.0,0.0,0.0,0.0,0.0,0.0,0.0,0.0,0.0,0.0,0.0,0.0,0.0,0.0,0.0,0.0,0.0,0.0,0.0,-3.8527,-3.8987,-3.9726,-3.9424,-3.9246,-3.9245,-3.6593,-3.4161,-3.2399,-3.0024,0.0,0.0,0.0,0.0,0.0,0.0,0.0,0.0,0.0,0.0,0.0,0.0,0.0,0.0,0.0,0.0,0.0,0.0,0.0,0.0,0.0,0.0,0.0,0.0,0.0,0.0,0.0,0.0,0.0,0.0,0.0,0.0,0.0,0.0,0.0,0.0,0.0,0.0,0.0,0.0,0.0,0.0,0.0,0.0,0.0,0.0,0.0,0.0,0.0,0.0,0.0,0.0,0.0,0.0,0.0,0.0,0.0,0.0,0.0,0.0,0.0,0.0,0.0,0.0,0.0,0.0,0.0,0.0,0.0,0.0,0.0,0.0,0.0,0.0,0.0,0.0,0.0,0.0,0.0,0.0,0.0,0.0,0.0,0.0,0.0,0.0,0.0,0.0,0.0,0.0,0.0,0.0,0.0,0.0,0.0,0.0,0.0,0.0,0.0,0.0,0.0,0.0,-3.8313,-3.9007,0.0,-3.9674,-3.9256,-3.9422,-3.737,-3.4876,-3.2102,0.0,0.0,0.0,0.0,0.0,0.0,0.0,0.0,0.0,0.0,0.0,0.0,0.0,0.0,0.0,0.0,0.0,0.0,0.0,0.0,0.0,0.0,0.0,0.0,0.0,0.0,0.0,0.0,0.0,0.0,0.0,0.0,0.0,0.0,0.0,0.0,0.0,0.0,0.0,0.0,0.0,0.0,0.0,0.0,0.0,0.0,0.0,0.0,0.0,0.0,0.0,0.0,0.0,0.0,0.0,0.0,0.0,0.0,0.0,0.0,0.0,0.0,0.0,0.0,0.0,0.0,0.0,0.0,0.0,0.0,0.0,0.0,0.0,0.0,0.0,0.0,0.0,0.0,0.0,0.0,0.0,0.0,0.0,0.0,0.0,0.0,0.0,0.0,0.0,0.0,0.0,0.0,0.0,0.0,0.0,0.0,0.0,0.0,0.0,0.0,0.0,0.0,-3.7461,-3.8337,-3.9271,0.0,-4.0065,-3.957,-3.9608,-3.7733,-3.5162,-3.1969,0.0,0.0,0.0,0.0,0.0,0.0,0.0,0.0,0.0,0.0,0.0,0.0,0.0,0.0,0.0,0.0,0.0,0.0,0.0,0.0,0.0,0.0,0.0,0.0,0.0,0.0,0.0,0.0,0.0,0.0,0.0,0.0,0.0,0.0,0.0,0.0,0.0,0.0,0.0,0.0,0.0,0.0,0.0,0.0,0.0,0.0,0.0,0.0,0.0,0.0,0.0,0.0,0.0,0.0,0.0,0.0,0.0,0.0,0.0,0.0,0.0,0.0,0.0,0.0,0.0,0.0,0.0,0.0,0.0,0.0,0.0,0.0,0.0,0.0,0.0,0.0,0.0,0.0,0.0,0.0,0.0,0.0,0.0,0.0,0.0,0.0,0.0,0.0,0.0,0.0,0.0,0.0,0.0,0.0,0.0,0.0,0.0,0.0,0.0,0.0,0.0,0.0,-3.7301,-3.866,-3.982,-4.036,-4.0409,-4.0188,-3.9648,-3.7431,-3.4799,0.0,0.0,0.0,0.0,0.0,0.0,0.0,0.0,0.0,0.0,0.0,0.0,0.0,0.0,0.0,0.0,0.0,0.0,0.0,0.0,0.0,0.0,0.0,0.0,0.0,0.0,0.0,0.0,0.0,0.0,0.0,0.0,0.0,0.0,0.0,0.0,0.0,0.0,0.0,0.0,0.0,0.0,0.0,0.0,0.0,0.0,0.0,0.0,0.0,0.0,0.0,0.0,0.0,0.0,0.0,0.0,0.0,0.0,0.0,0.0,0.0,0.0,0.0,0.0,0.0,0.0,0.0,0.0,0.0,0.0,0.0,0.0,0.0,0.0,0.0,0.0,0.0,0.0,0.0,0.0,0.0,0.0,0.0,0.0,0.0,0.0,0.0,0.0,0.0,0.0,0.0,0.0,0.0,0.0,0.0,0.0,0.0,0.0,0.0,0.0,0.0,0.0,0.0,-3.7916,-3.9164,-4.0233,-4.1159,-4.0748,-4.0255,-3.994,-3.7996,-3.5811,-3.336,0.0,0.0,0.0,0.0,0.0,0.0,0.0,0.0,0.0,0.0,0.0,0.0,0.0,0.0,0.0,0.0,0.0,0.0,0.0,0.0,0.0,0.0,0.0,0.0,0.0,0.0,0.0,0.0,0.0,0.0,0.0,0.0,0.0,0.0,0.0,0.0,0.0,0.0,0.0,0.0,0.0,0.0,0.0,0.0,0.0,0.0,0.0,0.0,0.0,0.0,0.0,0.0,0.0,0.0,0.0,0.0,0.0,0.0,0.0,0.0,0.0,0.0,0.0,0.0,0.0,0.0,0.0,0.0,0.0,0.0,0.0,0.0,0.0,0.0,0.0,0.0,0.0,0.0,0.0,0.0,0.0,0.0,0.0,0.0,0.0,0.0,0.0,0.0,0.0,0.0,0.0,0.0,0.0,0.0,0.0,0.0,0.0,0.0,0.0,0.0,0.0,0.0,-3.7912,-3.9331,-4.049,-4.1362,-4.0998,-4.0555,-4.0168,-3.8731,-3.674,-3.4124,0.0,0.0,0.0,0.0,0.0,0.0,0.0,0.0,0.0,0.0,0.0,0.0,0.0,0.0,0.0,0.0,0.0,0.0,0.0,0.0,0.0,0.0,0.0,0.0,0.0,0.0,0.0,0.0,0.0,0.0,0.0,0.0,0.0,0.0,0.0,0.0,0.0,0.0,0.0,0.0,0.0,0.0,0.0,0.0,0.0,0.0,0.0,0.0,0.0,0.0,0.0,0.0,0.0,0.0,0.0,0.0,0.0,0.0,0.0,0.0,0.0,0.0,0.0,0.0,0.0,0.0,0.0,0.0,0.0,0.0,0.0,0.0,0.0,0.0,0.0,0.0,0.0,0.0,0.0,0.0,0.0,0.0,0.0,0.0,0.0,0.0,0.0,0.0,0.0,0.0,0.0,0.0,0.0,0.0,0.0,0.0,0.0,0.0,0.0,0.0,0.0,0.0,-3.7594,-3.934,-4.0691,-4.1211,-4.1235,-4.0971,-4.0442,-3.9434,-3.7541,-3.461,0.0,0.0,0.0,0.0,0.0,0.0,0.0,0.0,0.0,0.0,0.0,0.0,0.0,0.0,0.0,0.0,0.0,0.0,0.0,0.0,0.0,0.0,0.0,0.0,0.0,0.0,0.0,0.0,0.0,0.0,0.0,0.0,0.0,0.0,0.0,0.0,0.0,0.0,0.0,0.0,0.0,0.0,0.0,0.0,0.0,0.0,0.0,0.0,0.0,0.0,0.0,0.0,0.0,0.0,0.0,0.0,0.0,0.0,0.0,0.0,-2.8682,0.0,0.0,0.0,0.0,0.0,0.0,0.0,0.0,0.0,0.0,0.0,0.0,0.0,0.0,0.0,0.0,0.0,0.0,0.0,0.0,0.0,0.0,0.0,0.0,0.0,0.0,0.0,0.0,0.0,0.0,0.0,0.0,0.0,0.0,0.0,0.0,0.0,0.0,0.0,0.0,0.0,-3.8302,-3.9922,-4.1133,-4.1614,-4.1271,-4.0799,-4.0279,-3.9513,-3.8217,-3.629,-3.4578,0.0,0.0,0.0,0.0,0.0,0.0,0.0,0.0,0.0,0.0,0.0,0.0,0.0,0.0,0.0,0.0,0.0,0.0,0.0,0.0,0.0,0.0,0.0,0.0,0.0,0.0,0.0,0.0,0.0,0.0,0.0,0.0,0.0,0.0,0.0,0.0,0.0,0.0,0.0,0.0,0.0,0.0,0.0,0.0,0.0,0.0,0.0,0.0,0.0,0.0,0.0,0.0,0.0,0.0,0.0,0.0,0.0,0.0,0.0,0.0,-2.9116,0.0,0.0,0.0,0.0,0.0,0.0,0.0,0.0,0.0,0.0,0.0,0.0,0.0,0.0,0.0,0.0,0.0,0.0,0.0,0.0,0.0,0.0,0.0,0.0,0.0,0.0,0.0,0.0,0.0,0.0,0.0,0.0,0.0,0.0,0.0,0.0,0.0,0.0,0.0,0.0,-3.8311,-3.9983,-4.1259,-4.1727,-4.1328,-4.0881,-4.0622,-3.9921,-3.8886,-3.7557,-3.6051,0.0,0.0,0.0,0.0,0.0,0.0,0.0,0.0,0.0,0.0,0.0,0.0,0.0,0.0,0.0,0.0,0.0,0.0,0.0,0.0,0.0,0.0,0.0,0.0,0.0,0.0,0.0,0.0,0.0,0.0,0.0,0.0,0.0,0.0,0.0,0.0,0.0,0.0,0.0,0.0,0.0,0.0,0.0,0.0,0.0,0.0,0.0,0.0,0.0,0.0,0.0,0.0,0.0,-3.1973,-3.2371,-3.295,-3.3078,-3.2823,-3.2319,-3.1623,-3.0774,-2.9868,-2.932,0.0,0.0,0.0,0.0,0.0,0.0,0.0,0.0,0.0,0.0,0.0,0.0,0.0,0.0,0.0,0.0,0.0,0.0,0.0,0.0,0.0,0.0,0.0,0.0,-3.356,-3.36,-3.2119,0.0,0.0,0.0,0.0,0.0,0.0,0.0,0.0,0.0,0.0,0.0,-3.8256,-4.0046,-4.1349,-4.185,-4.1405,-4.1054,-4.0961,-4.0386,-3.9528,-3.8454,-3.7325,-3.5712,0.0,0.0,0.0,0.0,0.0,0.0,0.0,0.0,0.0,0.0,0.0,0.0,0.0,0.0,0.0,0.0,0.0,0.0,0.0,0.0,0.0,0.0,0.0,0.0,0.0,0.0,0.0,0.0,0.0,0.0,0.0,0.0,-3.0706,-3.037,0.0,0.0,0.0,0.0,0.0,0.0,0.0,0.0,0.0,0.0,0.0,0.0,0.0,-3.1721,-3.2062,-3.2497,-3.2725,-3.2846,-3.3217,-3.3313,-3.3171,-3.3745,-3.3661,-3.2992,-3.3493,0.0,-3.1192,-3.078,0.0,0.0,0.0,0.0,0.0,0.0,0.0,0.0,0.0,0.0,0.0,0.0,0.0,0.0,0.0,0.0,0.0,0.0,0.0,0.0,0.0,0.0,-3.3906,-3.4419,-3.4606,-3.4646,0.0,-3.3643,-3.2652,-3.2524,-3.2561,0.0,0.0,0.0,0.0,0.0,0.0,0.0,-3.8731,-4.0592,-4.1932,-4.2213,-4.1798,-4.1314,-4.0877,-4.0602,-3.9882,-3.8666,-3.8225,-3.7487,-3.6193,-3.4894,0.0,0.0,0.0,0.0,0.0,0.0,0.0,0.0,0.0,0.0,0.0,0.0,0.0,0.0,0.0,0.0,0.0,0.0,0.0,0.0,0.0,0.0,0.0,0.0,0.0,0.0,0.0,0.0,0.0,-3.1073,-3.1346,-3.0409,-3.0503,-3.0483,0.0,0.0,0.0,0.0,0.0,0.0,0.0,0.0,0.0,-3.3114,-3.3341,-3.3416,-3.3404,-3.3883,-3.4226,-3.4448,-3.4452,-3.4458,-3.4595,-3.4781,-3.4649,-3.415,-3.4375,-3.4093,-3.3295,-3.2138,-3.1347,-3.0736,0.0,0.0,0.0,0.0,-2.9876,-3.0098,-3.0545,-3.0983,0.0,-3.0565,0.0,0.0,0.0,0.0,0.0,0.0,0.0,0.0,0.0,0.0,-3.4534,-3.5666,-3.5914,-3.5894,-3.5749,-3.5197,-3.454,0.0,-3.3746,-3.3758,-3.4319,0.0,0.0,0.0,0.0,-3.8436,-3.9085,-4.0724,-4.1827,-4.2016,-4.1754,-4.1312,-4.0601,-4.0523,-3.9923,-3.8585,-3.8367,-3.7831,-3.6681,-3.5573,-3.4231,0.0,0.0,0.0,0.0,0.0,0.0,0.0,0.0,0.0,0.0,0.0,0.0,0.0,0.0,0.0,0.0,0.0,0.0,0.0,0.0,0.0,0.0,0.0,0.0,0.0,0.0,0.0,0.0,-3.1597,-3.164,-3.0482,-3.0761,-3.0816,0.0,0.0,0.0,0.0,0.0,0.0,-3.3273,-3.3966,-3.4427,-3.4427,-3.4727,-3.4738,-3.4459,-3.4756,-3.5134,-3.5576,-3.5309,-3.5309,-3.5576,-3.5628,-3.5387,-3.4947,-3.499,-3.4926,-3.4743,-3.3227,-3.2414,-3.2024,-3.1199,-3.1003,-3.1088,-3.0742,-3.0897,-3.1378,-3.1761,-3.225,-3.2646,-3.2378,-3.2396,-3.2374,-3.1388,0.0,0.0,0.0,0.0,-3.2415,-3.3942,-3.4586,-3.5171,-3.6418,-3.6776,-3.6694,-3.628,-3.6243,-3.604,0.0,-3.4986,-3.4843,-3.5359,0.0,0.0,0.0,0.0,-3.904,-3.9575,-4.0773,-4.1651,-4.1888,-4.1679,-4.12,-4.0354,-4.0334,-3.9794,-3.8485,-3.8192,-3.7782,-3.6997,-3.605,-3.4992,-3.375,0.0,0.0,0.0,0.0,0.0,0.0,0.0,0.0,0.0,0.0,0.0,0.0,0.0,0.0,0.0,0.0,0.0,0.0,0.0,0.0,0.0,0.0,0.0,0.0,0.0,0.0,0.0,0.0,0.0,-3.1267,-3.0965,0.0,0.0,0.0,0.0,-3.2877,-3.312,-3.3486,-3.4309,-3.4697,-3.4935,-3.4935,-3.4954,-3.4972,-3.4972,-3.499,-3.5224,-3.5582,-3.56,-3.56,-3.5582,-3.5939,-3.5706,-3.5044,-3.5383,-3.5383,-3.4878,-3.3958,-3.3284,-3.2952,-3.2895,-3.263,-3.2327,-3.2687,-3.2903,-3.3017,-3.3368,-3.3737,-3.4104,-3.4085,-3.4187,-3.4314,-3.3839,-3.3466,0.0,0.0,-3.3532,-3.3524,-3.4398,-3.5216,-3.5918,-3.6308,-3.6638,-3.6836,-3.6486,-3.6619,-3.6558,0.0,-3.5827,-3.5897,-3.6122,0.0,-3.667,-3.7131,-3.8208,-3.9293,-4.0134,-4.0896,-4.1527,-4.2212,-4.1678,-4.1058,-4.0377,-3.9978,-3.945,-3.8447,-3.7924,-3.7727,-3.8018,-3.6589,-3.5859,-3.6148,-3.4165,0.0,0.0,0.0,0.0,0.0,0.0,0.0,0.0,0.0,0.0,0.0,0.0,0.0,0.0,0.0,0.0,0.0,0.0,0.0,0.0,0.0,0.0,0.0,0.0,0.0,0.0,0.0,0.0,-3.1172,-3.1673,0.0,-3.1653,-3.2191,-3.2968,-3.3882,-3.4173,-3.4594,-3.5174,-3.534,-3.5485,-3.5779,-3.5797,-3.5797,-3.5797,-3.5797,-3.5926,-3.6383,-3.6091,-3.6034,-3.5992,-3.6136,-3.5861,-3.5386,-3.5547,-3.5547,-3.5349,-3.4756,-3.4413,-3.4171,-3.3446,-3.3166,-3.3321,-3.3471,-3.3527,-3.3583,-3.3996,-3.4296,-3.4499,-3.4296,-3.4104,-3.3996,-3.4102,-3.3818,-3.3676,-3.4264,-3.4303,-3.4401,-3.5244,-3.5647,-3.6077,-3.671,-3.6971,-3.7038,-3.7171,-3.7248,-3.7308,-3.739,-3.6914,-3.6583,-3.6869,-3.7397,-3.7946,-3.827,-3.9409,-4.0196,-4.031,-4.0899,-4.138,-4.1637,-4.1444,-4.1017,-4.0377,-3.9814,-3.8875,-3.7448,-3.7529,-3.7443,-3.7156,-3.6779,-3.6297,-3.5795,-3.4142,-3.2787,0.0,0.0,0.0,0.0,0.0,0.0,0.0,0.0,0.0,0.0,0.0,0.0,0.0,0.0,0.0,0.0,0.0,0.0,0.0,0.0,0.0,0.0,0.0,0.0,0.0,0.0,-3.1493,-3.1047,-3.1649,-3.2083,-3.1966,-3.2719,-3.3589,-3.4521,-3.4867,-3.5155,-3.5595,-3.5758,-3.5829,-3.5978,-3.6126,-3.6201,-3.6201,-3.6201,-3.6349,-3.659,-3.6367,-3.622,-3.6182,-3.6182,-3.6053,-3.5793,-3.5793,-3.5793,-3.5775,-3.5356,-3.5207,-3.5089,-3.4015,-3.3816,-3.4165,-3.3898,-3.3748,-3.3827,-3.4103,-3.4433,-3.467,-3.4471,-3.4289,-3.4155,-3.4557,-3.4423,-3.4289,-3.4937,-3.507,-3.5148,-3.5776,-3.5902,-3.6048,-3.6614,-3.6809,-3.6904,-3.7031,-3.7313,-3.7642,-3.7765,-3.7381,-3.7161,-3.7505,-3.8058,-3.8572,-3.8766,-3.9887,-4.0517,-4.0344,-4.0669,-4.1057,-4.1315,-4.1122,-4.0851,-4.044,-3.9561,-3.8515,-3.7228,-3.7487,-3.7269,-3.6466,-3.686,-3.6626,-3.5649,-3.4423,-3.3319,-3.2404,0.0,0.0,0.0,0.0,0.0,0.0,0.0,0.0,0.0,0.0,0.0,0.0,0.0,0.0,0.0,0.0,0.0,0.0,0.0,0.0,0.0,0.0,0.0,-3.0764,-3.084,-3.0922,-3.1027,-3.0956,-3.1105,-3.1616,-3.1991,-3.2951,-3.4863,-3.4972,-3.5134,-3.5587,-3.5978,-3.5978,-3.5605,-3.5978,-3.6201,-3.6201,-3.6201,-3.6201,-3.6201,-3.6201,-3.6201,-3.6201,-3.6201,-3.6201,-3.6201,-3.6201,-3.6201,-3.6182,-3.5797,-3.5632,-3.5559,-3.4733,-3.4603,-3.4834,-3.401,-3.3733,-3.37,-3.3778,-3.4053,-3.4439,-3.4784,-3.4853,-3.499,-3.5333,-3.5196,-3.504,-3.5792,-3.5724,-3.5568,-3.5908,-3.5996,-3.5996,-3.5996,-3.6248,-3.642,-3.6023,-3.6797,-3.7427,-3.6978,-3.7225,-3.7639,-3.7966,-3.8291,-3.8529,-3.8529,-3.952,0.0,-4.0279,-4.0279,-4.0539,-4.1187,-4.0669,-4.0406,-4.0598,-3.9392,-3.8431,-3.79,-3.79,-3.7296,-3.6195,-3.6883,-3.6848,-3.5961,-3.5195,-3.4434,-3.3641,0.0,0.0,0.0,0.0,0.0,0.0,0.0,0.0,0.0,0.0,0.0,0.0,0.0,0.0,0.0,0.0,0.0,0.0,0.0,0.0,0.0,0.0,-2.9998,-3.0463,-3.0553,-3.0755,-3.138,-3.1555,-3.2101,-3.3184,-3.3272,-3.3828,-3.4922,-3.4716,-3.4769,-3.5157,-3.5306,-3.5306,-3.5157,-3.5829,-3.6052,-3.5754,-3.6052,-3.6201,-3.6201,-3.6201,-3.6201,-3.6201,-3.6201,-3.6201,-3.6201,-3.6201,-3.6201,-3.6201,-3.6091,-3.6054,-3.5962,-3.5174,-3.486,-3.4926,-3.436,-3.4024,-3.3829,-3.4097,-3.4277,-3.4439,-3.4508,-3.4508,-3.4577,-3.499,-3.4781,-3.4621,-3.5365,-3.5246,-3.4926,-3.5059,-3.5312,-3.5566,-3.5566,-3.5849,-3.618,-3.6313,-3.6796,-3.724,-3.7386,-3.7452,-3.7657,-3.8075,-3.8645,-3.9018,-3.9018,-3.9736,0.0,-4.0279,-4.0279,-4.0474,-4.0906,-4.0539,-4.032,-4.0513,-3.9572,-3.8725,-3.8245,-3.842,-3.8309,-3.7716,-3.8223,-3.7911,-3.6668,-3.5749,-3.4886,0.0,0.0,0.0,0.0,0.0,0.0,0.0,0.0,0.0,0.0,0.0,0.0,0.0,0.0,0.0,0.0,0.0,0.0,0.0,0.0,0.0,0.0,-2.9537,-2.9694,-3.0063,-3.0235,-3.0656,-3.1399,-3.1645,-3.2139,-3.3269,-3.3305,-3.3727,-3.4649,-3.4499,-3.4516,-3.4724,-3.5082,-3.5082,-3.4799,-3.568,-3.5978,-3.5605,-3.5978,-3.6201,-3.6201,-3.6201,-3.6201,-3.6201,-3.6201,-3.6201,-3.6201,-3.6201,-3.6201,-3.6201,-3.6201,-3.6201,0.0,0.0,0.0,0.0,0.0,-3.3969,-3.3766,-3.3853,-3.4033,-3.4163,-3.4163,-3.4232,-3.4439,-3.4784,-3.4751,-3.4697,-3.5442,-3.5335,-3.5054,-3.5187,-3.5449,-3.5664,-3.5664,-3.5975,-3.6276,-3.6415,-3.6938,-3.7354,-3.7524,-3.7687,0.0,-3.815,-3.8468,-3.8735,-3.8793,-3.9494,-4.0018,-3.9888,-4.0084,-4.0409,-4.0582,-4.0409,-4.0408,-4.0612,-3.9748,0.0,0.0,0.0,-3.8861,-3.8551,-3.8514,0.0,0.0,0.0,-3.6911,-3.6193,-3.6613,0.0,0.0,-3.5156,-3.5439,0.0,0.0,0.0,0.0,0.0,0.0,0.0,0.0,0.0,0.0,0.0,0.0,0.0,0.0,0.0,0.0,-2.9212,-2.9401,-2.9743,-3.0092,-3.0607,-3.1351,-3.1401,-3.1763,-3.2604,-3.2681,-3.3137,-3.4215,-3.4365,-3.4365,-3.4365,0.0,0.0,0.0,0.0,-3.5903,-3.553,-3.5903,-3.6126,-3.6201,-3.6201,-3.6201,-3.6201,-3.6201,-3.6201,-3.6201,-3.6201,-3.6201,-3.6201,-3.6201,-3.6201,-3.6164,-3.5815,-3.5576,-3.5383,-3.4288,-3.3842,-3.3749,-3.3426,0.0,0.0,-3.3886,-3.4094,-3.4439,-3.4853,-3.4952,-3.5051,-3.5734,-3.5714,-3.5471,-3.5811,-3.5918,-3.5957,-3.6005,-3.6228,-3.6487,-3.6509,-3.7064,-3.758,-3.7583,-3.7943,-3.8191,-3.8253,-3.819,-3.8133,-3.8242,-3.9099,-3.9625,-3.9276,-3.9931,-4.0345,-4.0279,0.0,0.0,-4.0712,-3.9939,-3.9453,-3.9516,-3.9516,-3.9357,-3.9137,-3.8435,-3.7919,-3.763,-3.9033,-3.9469,-3.8896,-3.9231,-3.9409,-3.9304,-3.7976,-3.7974,0.0,0.0,0.0,0.0,0.0,0.0,0.0,0.0,0.0,0.0,0.0,0.0,0.0,0.0,0.0,-2.9593,-2.9421,-2.9529,-3.0071,-3.024,-3.0607,-3.141,-3.1706,-3.2222,-3.2968,-3.3044,-3.3289,-3.3837,-3.3912,-3.3912,-3.3912,-3.4365,-3.4441,-3.3912,-3.4799,-3.5231,-3.5157,-3.553,-3.5903,-3.6201,0.0,0.0,-3.6201,-3.6201,-3.6201,-3.6201,-3.6201,-3.6201,-3.6201,-3.6201,-3.6201,-3.6201,-3.6127,-3.5852,-3.554,-3.5319,-3.4805,-3.4235,-3.4165,-3.4018,-3.3886,-3.4163,-3.4301,-3.4508,-3.5196,-3.5103,0.0,-3.5373,-3.5168,-3.4895,-3.4961,-3.5234,-3.5575,-3.589,-3.6194,-3.6567,-3.6891,-3.7287,-3.7697,-3.8051,-3.8156,-3.8295,-3.8647,-3.8604,-3.8576,-3.8615,-3.9231,-3.9691,-3.9625,-4.0366,-4.0716,-4.0323,-4.0629,-4.0716,-4.0431,-4.0234,-4.0125,-4.0125,-4.0383,-4.0509,-4.042,-4.0405,-4.0416,-4.0354,-4.025,-3.9953,-3.9607,-3.9953,-3.9953,-3.9685,-3.8965,-3.8914,0.0,0.0,0.0,0.0,0.0,0.0,0.0,0.0,0.0,0.0,0.0,-2.8027,-2.8573,0.0,-2.8631,-2.9129,-2.9099,-2.9293,-3.0159,-3.0277,-3.0596,-3.1365,-3.159,-3.1993,-3.2816,-3.2892,-3.3137,-3.3761,-3.3761,-3.3761,-3.3761,-3.4215,-3.4215,-3.3837,-3.4556,-3.4932,-3.4724,-3.5306,-3.5605,-3.5605,-3.5829,-3.5754,-3.5605,-3.5829,-3.5903,-3.5903,-3.6126,-3.6201,-3.6201,-3.6201,-3.6201,-3.6201,-3.6201,-3.5962,-3.5614,-3.5614,-3.5229,-3.4678,-3.4477,-3.4416,-3.4422,-3.4376,-3.4646,-3.499,-3.5401,-3.5471,-3.5433,-3.5636,-3.5547,-3.5351,-3.5351,-3.5527,-3.5829,-3.6228,-3.6403,-3.6646,-3.7292,-3.751,-3.7764,-3.8192,-3.8202,-3.8253,-3.8481,-3.8449,-3.8437,-3.8437,-3.888,-3.9276,-3.9428,-3.9819,-4.0147,-4.0301,-4.0301,-4.0344,-4.0301,-4.0279,-4.0279,-4.0279,-4.0453,-4.0517,-4.0517,-4.0813,-4.0934,-4.0934,-4.0878,-4.0806,-4.0806,-4.0745,-4.0694,-4.0672,-4.0158,-4.015,0.0,0.0,0.0,0.0,0.0,0.0,0.0,-2.7424,-2.7373,-2.7991,-2.803,-2.7965,-2.8251,-2.8313,-2.8427,-2.8772,-2.8794,-2.9091,-2.9997,-3.0186,-3.0489,-3.1204,-3.1424,-3.1763,-3.2452,-3.2588,-3.2985,-3.3609,-3.3761,-3.3761,-3.3761,-3.4139,-3.4139,-3.3837,-3.4423,-3.4649,-3.4365,-3.5025,-3.5231,-3.5007,-3.5381,-3.5381,-3.5007,-3.5456,-3.5605,-3.5605,-3.6052,-3.6201,-3.6201,-3.6201,-3.6201,-3.6201,-3.6201,-3.5962,-3.5632,-3.5705,-3.543,-3.499,-3.4642,-3.4704,-3.4869,-3.4551,-3.4921,-3.547,-3.5538,-3.5811,-3.6016,-3.6016,-3.6016,-3.6016,-3.6016,-3.6016,-3.6113,-3.6583,-3.6592,-3.6754,-3.7521,-3.7658,-3.7724,-3.8228,-3.8253,-3.8212,-3.8295,-3.8233,-3.8191,-3.8191,-3.8503,-3.8814,-3.9078,-3.9229,-3.9514,-4.0084,-3.9974,-3.9996,-4.0279,-4.0279,-4.0279,-4.0279,-4.0344,-4.0409,-4.0409,-4.0712,-4.0906,-4.0906,-4.1164,-4.1421,-4.1678,-4.142,-4.1342,-4.1633,-4.1244,-4.1314,-2.6621,-2.6785,-2.7137,-2.7518,-2.713,-2.6871,0.0,-2.7671,-2.7654,-2.7719,-2.8243,-2.864,-2.8636,-2.8681,-2.8837,-2.9162,-2.9226,-2.9369,-2.9812,-2.9828,-3.014,-3.0839,-3.1494,-3.1993,-3.2069,-3.274,-3.3196,-3.3272,-3.3609,-3.3761,-3.3761,-3.3837,-3.3837,-3.3761,-3.3912,-3.4064,-3.4365,-3.4516,-3.4724,-3.5007,-3.5381,-3.5381,-3.5007,-3.5456,-3.5605,-3.5605,-3.6052,-3.6201,-3.6201,-3.6201,-3.6201,-3.6201,-3.6201,-3.5962,-3.5669,-3.6017,-3.5669,-3.5027,-3.4972,-3.4707,-3.4495,-3.4734,-3.5127,-3.5557,-3.5811,-3.5947,-3.6016,-3.6016,-3.6016,-3.6016,-3.6016,-3.6016,-3.6084,-3.6443,-3.6491,-3.6674,-3.7476,-3.7589,-3.7805,-3.8553,-3.846,-3.8316,-3.8709,-3.844,-3.8191,-3.8191,-3.8503,-3.8681,-3.8747,-3.9372,-3.9832,-3.98,-4.0123,-4.0408,-4.0323,-4.0279,-4.0279,-4.0279,-4.0582,-4.0777,-4.0777,-4.1035,-4.1229,-4.1229,-4.1315,-4.1315,-4.138,-4.1633,-4.1715,-4.1779,-4.1988,-4.186,-2.7018,-2.7344,-2.7817,-2.798,-2.7929,-2.8077,-2.8843,-2.8437,-2.8144,-2.8837,-2.8871,-2.8761,-2.8745,-2.875,-2.8687,-2.864,-2.8654,-2.8759,-2.9116,-2.9163,-2.9423,-3.0206,-3.0492,-3.108,-3.2266,-3.2664,-3.3044,-3.3517,-3.3685,-3.3761,-3.3761,-3.3761,-3.3761,-3.3761,-3.3761,-3.3912,-3.4064,-3.429,-3.4365,-3.4273,-3.4932,-3.5007,-3.4649,-3.5082,-3.5381,-3.5605,-3.6052,-3.6201,-3.6201,-3.6201,-3.6201,-3.6201,-3.6201,-3.6109,-3.5981,-3.6146,-3.5852,-3.5375,-3.5593,-3.5731,-3.584,-3.5927,-3.6028,-3.62,-3.6337,-3.623,-3.6016,-3.6016,-3.6016,-3.6016,-3.6016,-3.6016,-3.6074,-3.6534,-3.6581,-3.6714,-3.7468,-3.7868,-3.8139,-3.8414,-3.8321,-3.8274,-3.8414,-3.8094,-3.7904,-3.8191,-3.8304,-3.8503,-3.8681,-3.8804,-3.8979,-3.9099,-3.9665,-4.0038,-3.9975,-4.0149,-4.0279,-4.0279,-4.0388,-4.0517,-4.0517,-4.0669,-4.0777,-4.1035,-4.0799,-4.0993,-4.1614,-4.155,-4.1678,-4.2061,-4.2212,-4.2172,-2.7148,-2.7531,-2.8096,-2.8374,-2.8535,-2.8818,-2.9553,-2.9,-2.8665,-2.9551,-2.9347,-2.8948,-2.9043,-2.8972,-2.8804,-2.852,-2.847,-2.8439,-2.8554,-2.8731,-2.9121,-2.9704,-2.9802,-3.0568,-3.2402,-3.2528,-3.2757,-3.3592,-3.3761,-3.3761,-3.3761,-3.3761,-3.3761,-3.3761,-3.3761,-3.3761,-3.3761,-3.4064,-3.4064,-3.3837,-3.4632,-3.4724,-3.4215,-3.4799,-3.5157,-3.5456,-3.5978,-3.6201,-3.6201,-3.6201,-3.6201,-3.6201,-3.6201,-3.6146,-3.6054,-3.6312,-3.611,-3.5851,-3.607,-3.6431,-3.6785,-3.6745,-3.6809,-3.6816,-3.6699,-3.6445,-3.6191,-3.6328,-3.626,-3.623,-3.6485,-3.6436,-3.6445,-3.6777,-3.6858,-3.7043,-3.7774,-3.8199,-3.8528,-3.8559,-3.8506,-3.8411,-3.8352,-3.8053,-3.7837,-3.8191,-3.8191,-3.8304,-3.857,-3.8437,-3.8437,-3.8681,-3.9276,-3.9691,-3.9691,-4.0084,-4.0279,-4.0279,-4.0279,-4.0279,-4.0279,-4.0279,-4.0409,-4.0647,-4.0517,-4.0777,-4.155,-4.1357,-4.1637,-4.2148,-4.2148,-4.2212,-2.6784,-2.7185,-2.79,-2.8637,-2.8471,-2.8382,-2.9169,-2.9039,-2.8898,-2.9266,-2.9328,-2.9377,-2.9727,-2.952,-2.9265,-2.9216,-2.9215,-2.901,-2.8217,-2.881,-2.9423,-2.9747,-3.0107,-3.09,0.0,-3.2222,-3.2375,-3.312,-3.3592,-3.3761,-3.3761,-3.3761,-3.3761,-3.3761,-3.3761,-3.3761,-3.3761,-3.3837,-3.3837,-3.3837,-3.4632,-3.4556,-3.3837,-3.4632,-3.5007,-3.5082,-3.5829,-3.6201,-3.6201,-3.6201,-3.6201,-3.6201,-3.6201,-3.5981,-3.5687,-3.6515,-3.6551,-3.6216,-3.6216,-3.644,-3.6739,-3.672,-3.6932,-3.7207,-3.6797,-3.666,-3.6779,-3.7104,-3.6897,-3.6897,-3.7658,-3.7547,-3.7266,-3.7266,-3.7566,-3.7967,-3.8317,-3.8665,-3.9101,-3.9426,-3.9075,-3.8765,-3.8765,-3.8481,-3.8191,-3.8191,-3.8191,-3.8191,-3.8191,-3.8503,-3.8681,-3.8681,-3.9276,-3.9691,-3.9691,-4.0084,-4.0279,-4.0279,-4.0279,-4.0279,-4.0279,-4.0279,-4.0279,-4.0344,-4.0647,-4.0777,-4.0841,-4.1164,-4.1486,-4.1806,-4.1806,-4.1998,-2.7352,-2.7531,-2.7909,-2.8646,-2.8853,-2.9035,-2.9589,-2.9605,-2.9534,-2.9676,-2.9702,-2.9688,-2.9529,-2.9377,-2.9186,-2.8935,-2.864,-2.8491,-2.8491,-2.8491,-2.8872,-2.976,-3.0118,0.0,0.0,0.0,0.0,-3.3517,-3.3441,-3.3517,-3.3761,-3.3761,-3.3761,-3.3761,-3.3761,-3.3761,-3.3761,-3.4064,-3.4215,-3.4215,-3.4707,-3.4857,-3.4649,-3.5157,-3.5231,-3.5007,-3.5829,-3.6201,-3.6201,-3.6201,-3.6201,-3.6201,-3.6201,-3.6127,-3.6017,-3.6312,-3.6478,-3.6689,-3.7191,-3.7292,-3.7253,-3.7759,-3.7877,-3.7676,-3.7539,-3.7305,-3.7101,-3.7154,-3.7134,-3.7121,-3.7401,-3.737,-3.7305,-3.7305,-3.7777,-3.8197,-3.8057,-3.8718,-3.933,-3.9183,-3.9085,-3.8865,-3.8548,-3.8391,-3.8253,-3.8233,-3.8191,-3.8191,-3.8191,-3.8304,-3.837,-3.837,-3.8769,-3.9144,-3.9363,-3.9691,-4.0018,-4.0279,-4.0018,-4.0018,-4.0279,-4.0018,-4.0018,-4.0279,-4.0409,-4.0582,-4.0777,-4.0906,-4.1164,-4.1486,-4.1678,-4.187,-2.7652,-2.772,-2.7878,-2.8418,-2.8882,-2.9199,-2.9623,-2.9623,-2.9553,-2.9834,-2.9553,-2.9334,-2.9449,-2.9258,-2.9043,-2.879,-2.8568,-2.8491,-2.8491,-2.8635,-2.9114,-2.9961,-3.0494,-3.1121,0.0,0.0,0.0,-3.3685,-3.3441,-3.3365,-3.3761,-3.3912,-3.3912,-3.3761,-3.3912,-3.3988,-3.3988,-3.4423,-3.4649,-3.4799,-3.479,-3.494,-3.5231,-3.5456,-3.5456,-3.5231,-3.5903,-3.6201,-3.6201,-3.6201,-3.6127,-3.6017,-3.6146,-3.6127,-3.5999,-3.6294,-3.6492,-3.6664,-3.7524,-3.772,-3.7701,-3.8365,-3.8379,-3.8125,-3.7969,-3.7734,-3.7532,-3.7818,-3.7727,-3.7571,-3.7997,-3.7893,-3.7754,-3.7754,-3.8303,-3.8799,-3.8516,-3.9061,-3.9555,-3.9289,-3.8908,-3.8566,-3.8186,-3.8099,-3.8098,-3.8166,-3.8191,-3.8191,-3.8191,-3.8191,-3.8191,-3.8191,-3.8503,-3.8814,-3.9144,-3.9428,-3.9757,-4.0279,-3.9953,-3.9888,-4.0279,-4.0018,-4.0018,-4.0279,-4.0279,-4.0409,-4.0647,-4.0647,-4.0777,-4.11,-4.1486,-4.1678,-2.7752,-2.7705,-2.7804,-2.8138,-2.851,-2.8939,-2.9198,-2.9008,-2.9025,-2.9626,-2.8956,-2.8541,-2.9479,-2.9209,-2.8798,-2.8746,-2.9013,-2.901,-2.8362,-2.921,-3.0056,-3.0397,-3.1137,0.0,0.0,0.0,0.0,-3.3761,0.0,-3.3365,-3.3761,-3.4139,-3.4215,-3.3837,-3.4215,-3.4441,-3.4441,-3.4875,-3.5231,-3.5605,-3.4857,-3.4875,-3.5605,-3.5605,-3.5605,-3.5605,-3.6052,-3.6201,-3.6201,-3.6201,-3.5981,-3.5687,-3.6054,-3.5981,-3.5724,-3.6506,-3.6459,-3.6213,-3.7099,-3.7609,-3.7969,-3.8418,-3.8574,-3.8496,-3.8086,-3.7969,-3.8092,-3.8857,-3.8521,-3.819,-3.9358,-3.9136,-3.8574,-3.8647,-3.9208,-3.9714,-3.9714,-3.9698,-3.9698,-3.9698,-3.8685,-3.7783,-3.7851,-3.7739,-3.7683,-3.8125,-3.8191,-3.8191,-3.8191,-3.8191,-3.8191,-3.8191,-3.8503,-3.8814,-3.9144,-3.921,-3.9494,-4.0214,-3.9888,-3.9888,-4.0279,-4.0279,-4.0279,-4.0279,-4.0279,-4.0279,-4.0279,-4.0279,-4.0453,-4.0777,-4.11,-4.1444,-2.8148,-2.8128,-2.8212,-2.8567,-2.8939,-2.9077,-2.8579,-2.8857,-2.8916,-2.8089,-2.8225,-2.8482,-2.8277,-2.8529,-2.8701,-2.8728,-2.8769,0.0,-2.9712,-2.9855,-3.0244,-3.1199,-3.1917,-3.2504,-3.2679,-3.2676,0.0,0.0,-3.3441,-3.3365,-3.3761,-3.3912,-3.4064,-3.4215,-3.4365,-3.4499,-3.4857,-3.5231,-3.568,-3.6052,-3.5515,-3.544,-3.5605,-3.5605,-3.5605,-3.5605,-3.6052,-3.6201,-3.6201,-3.6201,-3.6146,-3.6072,-3.6164,-3.6146,-3.6091,-3.6254,-3.6243,-3.6247,-3.7119,-3.7455,-3.7578,-3.834,-3.8574,-3.8555,-3.8437,-3.8418,-3.8412,-3.8601,-3.8524,-3.8504,-3.872,-3.8701,-3.8647,-3.8958,-3.9373,-3.9642,-3.9373,-3.9726,-4.0004,-3.945,-3.8516,-3.8057,-3.8612,-3.7874,-3.7415,-3.8104,-3.8191,-3.8191,-3.8191,-3.8191,-3.8191,-3.8191,-3.8237,-3.8437,-3.8814,-3.9078,-3.9407,-3.9822,-3.9757,-3.9888,-4.0279,-4.0018,-4.0018,-4.0279,-4.0279,-4.0279,-4.0279,-4.0279,-4.0344,-4.0474,-4.0777,-4.13,-2.8507,-2.8423,-2.8341,-2.8554,-2.869,-2.8693,-2.8274,-2.8319,-2.8212,-2.7514,-2.7498,-2.7524,-2.7478,-2.7896,-2.8246,-2.8243,-2.8685,-2.9282,-3.0085,-3.0157,-3.0513,-3.1489,-3.2227,-3.2689,-3.2689,-3.2759,-3.3137,0.0,-3.3441,-3.3365,-3.3761,-3.4122,-3.4273,-3.4139,-3.4649,-3.5011,-3.5278,-3.5338,-3.5558,-3.5944,-3.5558,-3.5502,-3.5829,-3.5829,-3.5829,-3.5903,0.0,-3.6201,-3.6201,-3.6017,-3.5944,-3.5944,-3.6091,-3.6183,-3.6201,-3.6375,-3.6546,-3.6742,-3.7209,-3.7475,-3.7676,-3.8359,-3.8574,-3.8574,-3.8574,-3.8574,-3.8608,-3.8806,-3.8688,-3.8588,-3.8786,-3.8688,-3.872,-3.9103,-3.9445,-3.9714,-3.9682,-3.9881,-3.9821,-3.9069,-3.8487,-3.8357,-3.8914,-3.8417,-3.8078,-3.8435,-3.8481,-3.8398,-3.8212,-3.8357,-3.8564,-3.875,-3.8771,-3.8906,-3.929,-3.9101,-3.9263,-3.9728,-3.9469,-3.9494,-4.0018,-3.9822,-3.9888,-4.0279,-4.0498,-4.0607,-4.0607,-4.0804,-4.0891,-4.0891,-4.1287,-4.1705,-2.8793,-2.8544,-2.8262,-2.8262,-2.8242,-2.8151,-2.8087,-2.7588,-2.7263,-2.7393,-2.6694,-2.6276,-2.6861,-2.7323,-2.7594,-2.758,-2.8458,-2.9306,-2.9855,-3.0228,-3.0726,-3.1559,-3.2248,-3.2638,-3.2762,-3.3025,-3.339,-3.3837,-3.3592,-3.3517,-3.3837,-3.4574,-3.4689,-3.3995,-3.5011,-3.5575,-3.554,-3.5192,-3.521,-3.554,-3.5192,-3.5394,-3.6054,-3.6054,-3.6072,-3.6127,-3.6127,-3.6127,-3.6109,-3.5815,-3.5669,-3.5687,-3.607,-3.6216,-3.6305,-3.6532,-3.6893,-3.7292,-3.728,-3.7578,-3.7988,-3.8437,-3.8574,-3.8574,-3.8574,-3.8574,-3.8647,-3.903,-3.8885,-3.8647,-3.903,-3.8885,-3.8793,-3.9176,-3.9518,-3.9858,-4.0238,-3.9953,-3.9424,-3.8808,-3.8507,-3.8496,-3.8844,-3.8881,-3.8835,-3.8827,-3.8724,-3.8667,-3.8398,-3.8605,-3.8848,-3.9241,-3.9351,-3.9488,-3.983,-3.9182,-3.9088,-3.9693,-3.9112,-3.9012,-3.9625,-3.9756,-3.9974,-4.0301,-4.0847,-4.1087,-4.1087,-4.1503,-4.1699,-4.1699,-4.1968,-4.2214,-2.8825,-2.8491,-2.819,-2.819,-2.8179,-2.8035,-2.7463,-2.7198,-2.6893,-2.6149,-2.6005,-2.5992,-2.584,-2.6339,-2.6879,-2.7139,-2.7885,-2.8735,-2.9751,-3.0228,-3.0781,-3.1894,-3.2167,-3.2509,-3.3127,-3.3248,0.0,0.0,-3.4215,-3.4215,-3.429,-3.4707,-3.494,-3.4767,-3.5357,-3.5449,-3.5137,-3.5064,-3.5064,-3.5137,-3.5064,-3.51,-3.5229,-3.5229,-3.5412,-3.5724,-3.5724,0.0,-3.5742,-3.5999,-3.6054,-3.607,-3.6143,-3.6434,-3.6629,-3.6348,-3.647,-3.6887,-3.7183,-3.7578,-3.7988,-3.8437,-3.8574,-3.8574,-3.8574,-3.8574,-3.8647,-3.8647,-3.8647,-3.8647,-3.872,-3.8885,-3.9176,-3.9518,-3.995,-4.0238,-4.031,-3.9766,-3.9326,-3.9441,-3.8627,-3.8077,-3.8447,-3.8166,-3.8098,-3.8656,-3.8543,-3.8543,-3.9226,-3.873,-3.8336,-3.8419,-3.8419,-3.8419,-3.8553,-3.8649,-3.8807,-3.894,-3.9054,-3.9144,-3.9276,-3.9991,-4.0405,-4.0472,-4.1194,-4.1568,-4.1568,-4.1655,-4.1699,-4.1699,-4.1767,-4.2188,-2.8873,-2.8799,-2.8751,-2.8751,-2.8306,-2.7821,-2.744,-2.6971,-2.6383,-2.5758,-2.5554,-2.5461,-2.5315,-2.5894,-2.6429,-2.6813,-2.7433,-2.8388,-2.9735,-3.0211,-3.071,-3.1418,-3.1984,-3.2557,-3.2982,-3.3146,-3.3631,-3.4632,-3.4724,-3.4724,-3.4724,-3.468,-3.502,-3.563,-3.543,-3.5212,-3.5027,-3.5027,-3.4917,-3.4697,-3.4697,-3.4825,-3.5027,-3.5027,-3.5137,-3.532,-3.5522,-3.5614,-3.5632,-3.6054,-3.6348,-3.6495,-3.6727,-3.7074,-3.7387,-3.6881,-3.7119,-3.7676,-3.7371,-3.7715,-3.8301,-3.8516,-3.8574,-3.8574,-3.8574,-3.8574,-3.8574,-3.8574,-3.8574,-3.8647,-3.8885,-3.903,-3.9321,-3.9878,-4.031,-4.0596,-4.0596,-4.031,-4.0094,-4.0289,-3.98,-3.9445,-3.9677,-3.9519,-3.9371,-3.9509,-3.9392,-3.9309,-3.9447,-3.9164,-3.8978,-3.9226,-3.9247,-3.9247,-3.9247,-3.9384,-3.9291,-3.8812,-3.9134,-3.9378,-3.9326,-4.0107,-4.0633,-4.0813,-4.1627,-4.207,-4.207,-4.2333,-4.2464,-4.2464,-4.2464,-4.2732,-2.8839,-2.8939,-2.9038,-2.8997,-2.8237,-2.7446,-2.7423,-2.6724,-2.6023,-2.5785,-2.5375,-2.5119,-2.5187,-2.5612,-2.6016,-2.633,-2.7095,-2.8082,-2.9622,-3.0162,-3.0693,-3.1418,-3.207,0.0,-3.2916,-3.3163,0.0,-3.4808,-3.4957,-3.5032,-3.5107,-3.4821,-3.5118,-3.6018,-3.5267,-3.4921,-3.497,-3.4807,-3.4605,-3.4275,-3.4275,-3.4458,-3.477,-3.477,-3.4807,-3.4917,-3.5229,-3.5357,-3.5375,-3.5996,-3.6419,-3.6734,-3.7139,-3.7504,-3.7788,-3.7202,-3.7559,-3.8203,-3.7539,-3.7851,-3.8574,-3.8574,-3.8574,-3.8574,-3.8574,-3.8574,-3.8574,-3.8574,-3.8647,-3.8793,-3.9103,-3.9321,-3.961,-4.0238,-4.0668,-4.0882,-4.0882,-4.0811,-4.074,-4.074,-4.0657,-4.0503,-4.0503,-4.0513,-4.0368,-4.0121,-3.9997,-3.9853,-3.9654,-3.953,-3.9584,-4.0108,-4.0137,-4.0075,-4.0075,-4.0075,-3.9765,-3.8972,-3.9261,-3.9509,-3.9406,-4.0188,-4.0784,-4.1173,-4.1968,-4.2504,-4.2573,-4.2988,-4.3184,-4.3184,-4.3184,-4.3163,-2.8772,-2.8482,-2.8244,-2.8277,-2.7734,-2.7063,-2.6793,-2.6365,-2.6072,-2.6039,-2.554,-2.5187,-2.5524,-2.5352,-2.5266,-2.5589,-2.6538,-2.778,-2.925,-3.0015,-3.1081,-3.2841,-3.2506,0.0,-3.3607,-3.374,-3.3975,-3.4419,-3.4788,-3.5155,-3.5522,-3.5486,-3.554,-3.5622,-3.4857,-3.4637,-3.5041,-3.425,-3.3908,-3.3872,-3.3872,-3.389,-3.3927,-3.3927,-3.4128,-3.4458,-3.4495,0.0,0.0,-3.5754,-3.6227,-3.6266,-3.6655,-3.701,-3.7234,-3.6465,-3.668,-3.7402,-3.7324,-3.7851,-3.8574,-3.8574,-3.8574,-3.8574,-3.8574,-3.8574,-3.8574,-3.8574,-3.8885,-3.9176,-3.9176,-3.9682,-4.031,-4.074,-4.0882,-4.0882,-4.0882,-4.0596,-4.0382,-4.0382,-3.977,-3.9273,-3.9273,-3.9231,-3.9298,-3.9575,-3.9359,-3.9396,-4.0046,-3.9507,-3.9355,-4.0108,-3.9847,-3.953,-3.953,-3.953,-3.9488,-3.9406,-3.9447,-3.9516,-3.9475,-4.0327,-4.0926,-4.13,-4.2118,-4.2726,-4.3119,-4.3163,-4.3184,-4.3184,-4.3184,-4.3023,-2.8209,-2.8116,-2.8087,-2.812,-2.7651,-2.7003,-2.6672,-2.6191,-2.5754,-2.5532,-2.5312,-2.5152,-2.5292,-2.5524,-2.5967,-2.6626,-2.7205,-2.8175,-3.006,-3.0346,-3.0882,-3.2105,-3.2187,-3.2483,0.0,0.0,-3.4102,-3.4685,-3.4903,-3.4939,-3.4899,-3.488,-3.4988,-3.5224,-3.4694,-3.4474,-3.4615,-3.4309,-3.4055,-3.3817,-3.3817,-3.3817,-3.3817,-3.3817,-3.3908,-3.4055,-3.4574,0.0,0.0,-3.6221,-3.6755,-3.6622,-3.7518,-3.7922,-3.7988,-3.7383,-3.7539,-3.8027,-3.7773,-3.8066,-3.8574,-3.8574,-3.8574,-3.8574,-3.8574,-3.8793,-3.8958,-3.8958,-3.9228,-3.959,-3.9806,-4.0238,-4.074,-4.0882,-4.0882,-4.0882,-4.0882,-4.0811,-4.0668,-4.0668,-4.0381,-4.0116,-3.983,-3.9973,-4.0124,-4.0024,-3.9902,-3.9982,-4.0522,-4.0115,-4.0003,-4.0522,-4.022,-3.9951,-3.9951,-4.0199,-4.0116,-3.9578,-4.0054,-4.022,-3.9902,-4.0737,-4.1411,-4.172,-4.2263,-4.2791,-4.3184,-4.3184,-4.3093,-4.2861,-4.2861,-4.2651,-2.7735,-2.7832,-2.7933,-2.7991,-2.7463,-2.6806,-2.6376,-2.5878,-2.5391,-2.5165,-2.503,-2.5041,-2.5212,-2.5599,-2.6274,-2.7284,-2.7681,-2.8581,-3.0634,-3.0839,-3.0992,-3.1807,-3.2258,-3.2663,-3.3056,-3.3464,-3.4036,-3.4955,-3.4774,-3.4501,-3.428,-3.4223,-3.4492,-3.4968,-3.4511,-3.4364,-3.4544,-3.4364,-3.4162,-3.3955,-3.3886,-3.3886,-3.3955,-3.3955,-3.3955,-3.4043,-3.4668,0.0,0.0,-3.639,-3.6947,-3.677,-3.7914,-3.8379,-3.834,-3.7891,-3.8008,-3.834,-3.8027,-3.8203,-3.8647,-3.872,-3.8793,-3.8793,-3.8865,-3.9011,-3.9248,-3.9321,-3.959,-3.993,-4.0382,-4.0668,-4.0882,-4.0882,-4.0882,-4.0882,-4.0882,-4.0882,-4.0882,-4.0882,-4.0811,-4.0596,-4.0166,-4.0453,-4.0525,-4.0022,-4.0022,-4.0238,-4.0668,-4.0382,-4.031,-4.0811,-4.0593,-4.0427,-4.0427,-4.0696,-4.0613,-3.9972,-4.053,-4.0737,-4.0427,-4.1092,-4.1686,-4.2018,-4.2441,-4.2651,-4.2813,-4.2813,-4.2581,-4.2089,-4.2089,-4.1947,-2.7572,-2.7636,-2.7604,-2.7667,-2.7156,-2.6425,-2.5753,-2.5313,-2.5124,-2.5077,-2.483,-2.4834,-2.551,-2.5583,-2.5928,-2.6953,-2.774,-2.8839,-3.0717,-3.1303,-3.1774,-3.2596,-3.3038,-3.3127,-3.2755,-3.3056,-3.3804,-3.4918,-3.4286,0.0,-3.3837,-3.3827,-3.4139,-3.4967,-3.4227,-3.4227,-3.4967,-3.4227,-3.4024,-3.437,-3.4024,-3.4024,-3.437,-3.437,-3.437,-3.4439,0.0,0.0,0.0,-3.6093,-3.6508,-3.6352,-3.7468,-3.793,-3.7871,-3.7461,-3.7578,-3.793,-3.793,-3.8203,-3.8647,-3.903,-3.9176,-3.9248,-3.957,-3.9445,-3.9248,-3.957,-4.0022,-4.0382,-4.0811,-4.0882,-4.0882,-4.0882,-4.0882,-4.0882,-4.0882,-4.0882,-4.0882,-4.0882,-4.0596,-4.0166,-3.9786,-4.0022,-4.0022,-3.9321,-3.9518,-3.9858,-4.0238,-3.993,-4.0002,-4.0811,-4.0862,-4.0862,-4.0862,-4.0882,-4.0862,-4.0862,-4.0862,-4.0882,-4.0862,-4.1259,-4.1686,-4.2018,-4.2441,-4.2441,-4.2018,-4.2018,-4.1664,-4.0954,-4.0954,-4.0954,-2.655,-2.6589,-2.657,-2.6624,-2.6595,-2.6376,-2.545,-2.5219,-2.4998,-2.4492,-2.4532,-2.469,-2.4877,-2.5718,-2.6663,-2.7691,-2.849,-2.9615,-3.1405,-3.1598,-3.1843,-3.2596,-3.3229,-3.3596,0.0,0.0,-3.4264,-3.385,-3.4073,-3.407,-3.379,-3.3802,-3.3941,-3.4139,-3.4237,-3.4306,-3.4575,-3.4564,-3.4646,-3.4715,-3.4646,-3.4646,-3.4715,-3.4715,-3.4715,0.0,0.0,-3.5059,-3.484,-3.6444,-3.6862,-3.6636,-3.787,-3.8359,-3.8359,-3.8223,-3.8262,-3.8451,-3.8668,-3.8912,-3.9103,-3.9445,-3.9518,-3.959,-4.0022,-4.0022,-4.0022,-4.0453,-4.0596,-4.074,-4.0882,-4.0882,-4.0882,-4.0882,-4.0882,-4.0882,-4.0882,-4.0882,-4.0965,-4.1276,-4.1286,-4.1079,-4.0727,-4.1228,-4.1273,-4.0164,-4.0323,-4.0584,-4.0709,-4.0382,-4.031,-4.0811,-4.0882,-4.0882,-4.0882,-4.0882,-4.0882,-4.0882,-4.0882,-4.0882,-4.0882,-4.1025,-4.1381,-4.2018,-4.1664,-4.1594,-4.2018,-4.1523,-4.1025,-4.0453,-4.0218,-4.0074,-2.6054,-2.6161,-2.6107,-2.6107,-2.6189,-2.6018,-2.5295,-2.4937,-2.4671,-2.4483,-2.4527,-2.4723,-2.5256,-2.6259,-2.7328,-2.8244,-2.8977,-2.9982,-3.1404,-3.1649,-3.2102,-3.3224,-3.3242,0.0,0.0,-3.4163,-3.3955,-3.3747,-3.4024,-3.4094,-3.3817,-3.3817,-3.3817,-3.3817,-3.4311,-3.4589,-3.4577,-3.4935,-3.5142,-3.5127,-3.499,-3.5066,-3.5356,-3.5356,-3.5451,0.0,-3.602,-3.5951,0.0,-3.6964,-3.7307,-3.7099,-3.8156,-3.8574,-3.8647,-3.8793,-3.8812,-3.8865,-3.9228,-3.9373,-3.9445,-3.9806,-4.0002,-4.0218,-4.0453,-4.0525,-4.0596,-4.0811,-4.0882,-4.0882,-4.0882,-4.0882,-4.0882,-4.0882,-4.0882,-4.0882,-4.0882,-4.0882,-4.1007,-4.1483,-4.1565,-4.1565,-4.1353,-4.1879,-4.1924,-4.0827,-4.0886,-4.0954,-4.0956,-4.0556,-4.0453,-4.0882,-4.0882,-4.0882,-4.0882,-4.0882,-4.0882,-4.0882,-4.0882,-4.0882,-4.0882,-4.0882,-4.1096,-4.1594,-4.1167,-4.1004,-4.1147,-4.0361,-3.9878,-3.9662,-3.959,-3.9518,0.0,-2.6072,-2.6072,-2.6072,-2.585,-2.5502,-2.5093,-2.461,0.0,-2.4934,-2.4797,-2.4997,-2.6264,-2.706,-2.7738,-2.8607,-2.9285,-3.0004,-3.0818,-3.1612,-3.269,-3.4126,-3.3103,0.0,-3.4646,-3.3678,-3.333,-3.4301,-3.4094,-3.3886,-3.3817,-3.3817,-3.3817,-3.3817,-3.4622,-3.499,-3.4853,-3.53,-3.5527,-3.5489,-3.5165,-3.5375,-3.6174,-3.6193,-3.6425,0.0,-3.7125,-3.7054,-3.681,-3.7533,-3.7656,-3.7537,-3.8234,-3.8627,-3.872,-3.903,-3.9248,-3.9321,-3.9642,-3.9714,-3.9786,-4.0238,-4.0596,-4.0882,-4.0882,-4.0882,-4.0882,-4.0882,-4.0882,-4.0882,-4.0882,-4.0882,-4.0882,-4.0882,-4.0882,-4.0882,-4.0924,-4.0924,-4.1069,-4.1565,-4.1669,-4.1741,-4.1772,-4.213,-4.2109,-4.1326,-4.113,-4.1138,-4.1077,-4.0616,-4.0494,-4.0882,-4.0882,-4.0882,-4.0882,-4.0882,-4.0882,-4.0882,-4.0882,-4.0862,-4.0811,-4.0811,-4.0811,-4.0811,-4.079,-4.0361,-3.957,-3.8865,-3.8574,-3.8574,-3.8958,-3.9176,-2.4999,0.0,-2.4968,-2.4968,-2.5313,-2.5376,0.0,-2.4625,-2.4734,-2.4409,-2.4487,-2.4781,-2.5337,-2.642,-2.733,-2.786,-2.9194,-3.047,-3.1321,-3.2104,-3.2804,-3.3381,-3.3451,-3.359,-3.4024,-3.4784,-3.4853,-3.4024,-3.4646,-3.4715,-3.3817,-3.4094,-3.4232,-3.4232,-3.4762,-3.485,-3.4508,-3.4878,-3.5223,-3.5489,-3.5728,-3.6078,-3.6541,-3.6852,-3.7066,-3.7144,-3.6953,-3.6922,-3.7144,-3.7051,-3.7273,-3.7786,-3.7975,-3.8498,-3.9103,-3.9176,-3.9373,-3.9642,-4.0022,-4.0166,-4.0238,-4.0596,-4.0811,-4.0882,-4.0882,-4.0882,-4.0882,-4.0882,-4.0882,-4.0882,-4.0882,-4.0882,-4.0882,-4.0882,-4.0882,-4.0965,-4.1338,-4.14,-4.1648,-4.2456,-4.26,-4.2596,-4.2692,-4.3001,-4.3029,-4.2153,-4.231,-4.2204,-4.1503,-4.1338,-4.1204,-4.0924,-4.0882,-4.0882,-4.0882,-4.0882,-4.0882,-4.0882,-4.0882,-4.0647,-4.0002,-4.031,-4.031,-4.0002,-3.9694,-3.9136,-3.8375,-3.8228,-3.8155,-3.8155,-3.8594,-3.872,-2.4984,-2.5031,-2.5031,-2.5031,-2.5313,-2.5392,-2.4703,-2.461,-2.4579,-2.4394,-2.4611,-2.5078,-2.5737,-2.7076,-2.806,-2.8195,-2.9495,-3.081,-3.1718,-3.2592,-3.326,-3.3469,-3.3678,-3.3817,0.0,-3.4508,-3.479,-3.4353,-3.4759,-3.4878,-3.4631,-3.4482,-3.437,-3.437,-3.4436,-3.4524,-3.4646,-3.518,-3.5551,-3.5758,-3.6197,-3.6549,-3.6973,-3.7402,-3.7578,-3.7578,-3.7344,-3.7383,-3.7559,-3.7129,-3.7344,-3.793,-3.8073,-3.8563,-3.9248,-3.961,-3.9806,-4.0022,-4.0453,-4.0596,-4.0596,-4.0811,-4.0882,-4.0882,-4.0882,-4.0882,-4.0882,-4.0882,-4.0882,-4.0882,-4.0882,-4.0882,-4.0882,-4.0882,-4.1027,-4.1255,-4.1576,-4.1731,-4.2083,-4.2787,-4.2911,-4.3001,-4.3228,-4.3462,-4.3456,-4.2981,-4.2905,-4.2745,-4.2249,-4.1835,-4.1462,-4.1214,-4.1193,-4.1193,-4.1193,-4.1379,-4.1421,-4.1214,-4.0699,-4.0248,-4.0016,-3.969,-3.9445,-3.9208,-3.8773,-3.8501,-3.8302,-3.8082,-3.8009,-3.8009,-3.8228,-3.8399,-2.5266,-2.5612,-2.5707,-2.5769,-2.5816,-2.5753,-2.5502,-2.4891,-2.4564,-2.4875,-2.5062,-2.5517,-2.668,-2.8179,-2.9146,-2.899,-3.0128,-3.1304,-3.2081,-3.3113,-3.3747,-3.3678,-3.3817,0.0,-3.3955,-3.4094,-3.4381,-3.4995,-3.4853,-3.4866,-3.5433,-3.4834,-3.4439,-3.437,-3.4024,-3.4163,-3.4853,-3.547,-3.5939,-3.6008,-3.6491,-3.6883,-3.7324,-3.7793,-3.8027,-3.8027,0.0,0.0,-3.806,-3.7363,-3.7461,-3.808,-3.8319,-3.872,-3.9393,-4.0022,-4.031,-4.0453,-4.0811,-4.0882,-4.0882,-4.0882,-4.0924,-4.0986,-4.0986,-4.1027,-4.1089,-4.1089,-4.0986,-4.0903,-4.0965,-4.0986,-4.1007,-4.1069,-4.1379,-4.169,-4.1752,-4.2083,-4.2497,-4.2932,-4.3035,-4.3159,-4.3532,-4.3615,-4.3615,-4.3615,-4.3284,-4.2994,-4.2932,-4.2249,-4.1752,-4.1669,-4.1669,-4.1669,-4.1669,-4.2115,-4.2124,-4.1647,-4.0614,-4.0056,-4.0305,-3.9175,-3.8501,-3.8574,-3.8228,-3.8155,-3.8501,-3.8155,-3.8009,-3.8009,-3.8159,-3.8371,-2.5078,-2.566,-2.6184,-2.6365,-2.6657,-2.6844,-2.6782,-2.6438,-2.6175,-2.631,-2.5913,-2.5957,-2.7375,-2.85,-2.9302,-2.9699,-3.0925,-3.2081,-3.2524,-3.3276,-3.3608,-3.2945,0.0,-3.4715,-3.4715,-3.5333,-3.5577,-3.5429,-3.5645,-3.5557,-3.5016,-3.489,-3.4715,-3.4439,-3.4024,-3.4024,-3.4439,-3.4583,-3.4947,-3.5585,-3.6348,-3.6945,-3.7324,-3.8125,-3.8476,-3.8437,0.0,-3.8027,-3.8885,-3.6975,-3.7319,-3.8925,-3.8264,-3.8675,-3.9642,-4.0094,-4.0525,-4.0811,-4.0882,-4.0882,-4.0882,-4.0882,-4.1131,-4.1462,-4.1462,-4.1731,-4.2115,-4.2115,-4.1483,-4.0965,-4.1358,-4.1462,-4.1565,-4.2032,-4.2177,-4.2249,-4.2642,-4.2766,-4.2952,-4.3408,-4.3511,-4.3532,-4.3594,-4.3615,-4.3615,-4.3615,-4.3553,-4.3366,-4.2973,-4.2787,-4.2559,-4.226,-4.2219,-4.2219,-4.2219,-4.2281,-4.2076,-4.171,-4.1455,-4.0868,-3.9904,-3.8735,-3.8228,-3.8574,-3.8228,-3.8009,-3.8082,-3.8009,-3.8009,-3.8028,-3.8724,-3.9067,-2.5471,-2.5849,-2.6152,-2.7173,-2.7444,-2.7507,-2.7933,-2.7592,-2.7194,-2.706,-2.7177,-2.7536,-2.8209,-2.9333,-3.0397,-3.1232,-3.2513,-3.3367,-3.3537,-3.4251,-3.4478,0.0,0.0,-3.5016,-3.439,-3.5192,-3.5703,-3.559,-3.5467,-3.5566,-3.5866,-3.5242,-3.4921,-3.499,-3.4577,-3.4577,-3.499,-3.499,-3.5242,-3.5816,-3.6642,-3.7144,-3.7324,-3.8184,-3.8437,-3.8203,0.0,-3.7948,-3.8402,-3.74,-3.7748,-3.8797,-3.8849,-3.9313,-4.0094,-4.0453,-4.074,-4.0882,-4.0882,-4.0882,-4.0882,-4.0882,-4.1193,-4.1565,-4.1565,-4.197,-4.2322,-4.2322,-4.2032,-4.1669,-4.1876,-4.2011,-4.2073,-4.2281,-4.2435,-4.2663,-4.287,-4.3118,-4.3346,-4.3573,-4.3615,-4.3615,-4.3615,-4.3615,-4.3615,-4.3615,-4.3615,-4.3532,-4.3325,-4.3077,-4.2849,-4.2642,-4.2621,-4.2621,-4.2621,-4.2454,-4.1948,-4.1083,-4.0781,-4.0322,-3.959,-3.8798,-3.8682,-3.9297,-3.8693,-3.841,-3.8631,-3.841,-3.8336,-3.8355,-3.9002,-3.9387,-2.5865,-2.6088,-2.6392,-2.7972,-2.8089,-2.8042,-2.8819,-2.8614,-2.8269,-2.8182,-2.8646,-2.9193,-2.954,-3.042,-3.163,-3.2914,-3.367,-3.4089,-3.4327,-3.5042,-3.5247,-3.4474,-3.5123,-3.5256,-3.4385,-3.5029,-3.5536,-3.5585,-3.5318,-3.5536,-3.6504,-3.5574,-3.5196,-3.547,-3.5127,-3.5059,-3.5489,-3.5489,-3.5712,-3.6089,-3.6911,-3.7305,-3.7324,-3.8184,-3.8398,-3.8066,-3.804,-3.8019,-3.8056,-3.7947,-3.8177,-3.8728,-3.9321,-3.9911,-4.0453,-4.0811,-4.0882,-4.0882,-4.0882,-4.0882,-4.0954,-4.1025,-4.1348,-4.1804,-4.1877,-4.2198,-4.258,-4.258,-4.258,-4.2559,-4.2435,-4.2414,-4.2435,-4.2538,-4.2828,-4.3077,-4.3077,-4.3366,-4.3615,-4.3615,-4.3615,-4.3615,-4.3615,-4.3615,-4.3615,-4.3615,-4.3615,-4.3615,-4.3615,-4.3304,-4.3077,-4.3077,-4.3077,-4.3001,-4.2775,-4.2322,-4.1629,-4.0594,-3.9989,-3.9606,-3.928,-3.9013,-3.9108,-3.9732,-3.9101,-3.8928,-3.9355,-3.9077,-3.8928,-3.8947,-3.9372,-3.9739,-2.5915,-2.652,-2.7373,-2.8818,-2.8605,-2.8367,-2.9405,-2.9652,-2.9844,-3.0574,-3.0292,-3.0327,-3.1628,-3.193,-3.2649,-3.4537,-3.3687,-3.3176,-3.4275,-3.5088,-3.5336,-3.4474,-3.5369,-3.5857,-3.5457,-3.5444,-3.5489,-3.5528,-3.5762,-3.5967,-3.6074,-3.5694,-3.547,-3.5489,-3.5127,-3.5059,-3.5489,-3.5489,-3.5694,-3.6006,-3.6914,-3.7305,-3.7324,-3.8184,-3.8555,-3.8588,-3.8465,-3.8695,-3.895,-3.8145,-3.8494,-3.9484,-3.9167,-3.9766,-4.0882,-4.0882,-4.0882,-4.0882,-4.0882,-4.0882,-4.0954,-4.1331,-4.1793,-4.2281,-4.2648,-4.3052,-4.3511,-4.3511,-4.3511,-4.3408,-4.2994,-4.287,-4.2973,-4.3408,-4.3532,-4.3553,-4.3553,-4.3594,-4.3615,-4.3615,-4.3615,-4.3615,-4.3615,-4.3615,-4.3615,-4.3615,-4.3615,-4.3615,-4.3615,-4.3573,-4.3553,-4.3553,-4.3553,-4.3248,-4.2483,-4.1636,-4.1016,-4.0491,-3.9796,-3.9354,-3.9335,-3.9242,-3.9183,-3.9259,-3.9221,-3.9372,-3.9844,-3.9844,-3.9768,-3.9788,-4.0197,-4.0412,-2.5924,-2.6508,-2.7169,-2.7858,-2.8404,-2.9179,-3.0478,-3.0632,-3.0791,-3.181,-3.1783,-3.1823,-3.2607,-3.3505,-3.4413,-3.4911,-3.4929,-3.4968,-3.5074,-3.584,-3.6014,-3.5253,-3.5698,-3.5991,-3.5623,-3.5756,-3.5758,-3.5489,-3.5858,-3.6014,-3.6035,-3.5675,-3.5606,-3.5811,-3.586,-3.5996,-3.6219,-3.6426,-3.6631,-3.6816,-3.7148,-3.7305,-3.7324,-3.8184,-3.872,-3.8938,-3.8925,-3.9117,-3.9404,-3.9059,-3.933,-4.0009,-4.0112,-4.0288,-4.0525,-4.0811,-4.0882,-4.0882,-4.0882,-4.1025,-4.1331,-4.1473,-4.203,-4.2711,-4.3057,-4.3339,-4.3615,-4.3919,-4.3767,-4.3573,-4.3387,-4.3346,-4.3387,-4.3573,-4.3615,-4.3615,-4.3615,-4.3615,-4.3615,-4.3615,-4.3615,-4.3615,-4.3615,-4.3615,-4.3615,-4.3615,-4.3615,-4.3615,-4.3615,-4.3615,-4.3615,-4.3615,-4.3136,-4.2524,-4.1656,-4.0821,-4.004,-3.9333,-3.928,-3.944,-3.9675,-3.9679,-3.9661,-3.9661,-3.9625,-3.974,-3.9892,-3.9892,-4.0045,-4.0293,-4.0395,-4.0686,-2.615,-2.6861,-2.7634,-2.7835,-2.881,-3.0092,-3.133,-3.1655,-3.1932,-3.2795,-3.3059,-3.3305,-3.3624,-3.4627,-3.5332,-3.5379,-3.5709,-3.5949,-3.5741,-3.6485,-3.6755,-3.604,-3.6123,-3.6131,-3.5796,-3.5889,-3.5778,-3.5508,-3.5946,-3.6171,-3.6035,-3.5879,-3.5879,-3.6016,-3.62,-3.6425,-3.6465,-3.6927,-3.7213,-3.73,-3.737,-3.7437,-3.7519,-3.8242,-3.8793,-3.9176,-3.9321,-3.9421,-3.9636,-3.9707,-3.9857,-4.0054,-4.0489,-4.0533,-4.032,-4.0584,-4.0758,-4.0882,-4.0882,-4.1167,-4.1544,-4.1615,-4.2246,-4.3057,-4.3443,-4.3711,-4.3843,-4.4125,-4.3919,-4.3615,-4.3615,-4.3615,-4.3615,-4.3615,-4.3615,-4.3615,-4.3615,-4.3615,-4.3615,-4.3615,-4.3462,-4.3504,-4.3801,-4.3766,-4.3731,-4.4029,-4.4049,-4.3987,-4.3842,-4.3822,-4.378,-4.3635,-4.2907,-4.2062,-4.1191,-4.0353,-3.9509,-3.864,-3.8877,-3.9193,-3.9509,-3.9666,-3.9745,-3.9745,-3.9696,-3.9777,-3.9932,-3.9932,-4.0009,-4.0337,-4.0316,-4.0529,-2.6665,-2.7744,-2.9044,-2.919,-3.0012,-3.0995,-3.1805,-3.2636,-3.3345,-3.3721,-3.4094,-3.4501,-3.4892,-3.4985,-3.5257,-3.6077,-3.5867,-3.5725,-3.6152,-3.6871,-3.7283,-3.6831,-3.6756,-3.6578,-3.6223,-3.5762,-3.5489,-3.547,-3.6132,-3.6336,-3.6016,-3.6336,-3.6336,-3.6016,-3.6016,-3.6016,-3.6035,-3.6769,-3.7173,-3.7193,-3.7537,-3.7788,-3.793,-3.8359,-3.8793,-3.9248,-3.959,-3.9688,-3.9636,-4.0009,-3.9951,-3.9578,-4.0054,-4.022,-4.022,-4.0199,-4.0468,-4.0862,-4.0882,-4.1188,-4.1544,-4.1877,-4.2656,-4.3495,-4.388,-4.4082,-4.4201,-4.4201,-4.3919,-4.3615,-4.3615,-4.3615,-4.3615,-4.3615,-4.3615,-4.3615,-4.3615,-4.3615,-4.3615,-4.3615,-4.331,-4.3321,-4.4158,-4.4009,-4.3997,-4.484,-4.5002,-4.4815,-4.436,-4.4298,-4.4112,-4.3656,-4.283,-4.2062,-4.1191,-4.0353,-3.9509,-3.864,-3.856,-3.856,-3.856,-3.9035,-3.9272,-3.9272,-3.9272,-3.9509,-3.9902,-3.9902,-3.9902,-3.9902,-3.9902,-4.0137,-2.7233,-2.8183,-2.9185,-2.9965,-3.088,-3.1838,-3.2916,-3.3211,-3.3521,-3.4492,-3.4922,-3.5192,-3.5312,-3.5597,-3.5959,-3.6431,-3.6756,-3.6804,-3.666,-3.733,-3.7556,-3.6869,-3.697,-3.6932,-3.6578,-3.6638,-3.6534,-3.6219,-3.6884,-3.7197,-3.6761,-3.6586,-3.6451,-3.6336,-3.6336,-3.6425,-3.6484,-3.7202,-3.747,-3.7319,-3.8247,-3.8527,-3.8287,-3.811,-3.8581,-3.957,-3.9642,-3.9993,-4.0533,-4.0604,-4.0241,-3.9578,-4.0313,-4.0222,-3.9785,-4.0355,-4.0493,-4.0468,-4.1134,-4.1544,-4.2011,-4.2685,-4.3365,-4.3923,-4.4706,-4.456,-4.4277,-4.4504,-4.4125,-4.3615,-4.3615,-4.3615,-4.3615,-4.3615,-4.3615,-4.3615,-4.3615,-4.3615,-4.3698,-4.4029,-4.4035,-4.4102,-4.4712,-4.4716,-4.4679,-4.4981,-4.5002,-4.4815,-4.436,-4.4029,-4.353,-4.2851,-4.1965,-4.1113,-4.0353,-3.9509,-3.8877,-3.864,-3.856,-3.856,-3.856,-3.8719,-3.8798,-3.8798,-3.9114,-3.9351,-3.9509,-3.9509,-3.9588,-3.9902,-3.9588,-3.9666,-2.7789,-2.8753,-2.9804,-3.0573,-3.1571,-3.283,-3.4564,-3.4467,-3.4195,-3.5016,-3.5496,-3.58,-3.5946,-3.6444,-3.6778,-3.67,-3.7319,-3.7648,-3.7074,-3.7518,-3.7803,-3.7286,-3.7093,-3.7051,-3.6891,-3.6897,-3.6884,-3.6742,-3.732,-3.7496,-3.7099,-3.7011,-3.6856,-3.6722,-3.6722,-3.6793,-3.6887,-3.7594,-3.7883,-3.7729,-3.8384,-3.8746,-3.8688,-3.8485,-3.8875,-3.9714,-4.0074,-4.0361,-4.0668,-4.0811,-4.0344,-3.9558,-4.0243,-4.0076,-3.9515,-4.018,-4.0403,-4.0493,-4.1092,-4.1594,-4.2082,-4.2857,-4.3616,-4.438,-4.5099,-4.5039,-4.4654,-4.4805,-4.4352,-4.3843,-4.3615,-4.3615,-4.3615,-4.3615,-4.3615,-4.3656,-4.3842,-4.3884,-4.4029,-4.4484,-4.4432,-4.4576,-4.5188,-4.5092,-4.5154,-4.5419,-4.5229,-4.4898,-4.4608,-4.4008,-4.331,-4.2524,-4.1656,-4.0802,-3.9981,-3.9114,-3.856,-3.856,-3.856,-3.856,-3.856,-3.856,-3.856,-3.856,-3.8877,-3.9035,-3.9035,-3.9035,-3.9114,-3.9351,-3.9114,-3.9272,-2.8202,-2.9312,-3.061,-3.1048,-3.2234,-3.3958,-3.6276,-3.5926,-3.5223,-3.5662,-3.5991,-3.6341,-3.6716,-3.7383,-3.7546,-3.6925,-3.7806,-3.8249,-3.7451,-3.7744,-3.7955,-3.7836,-3.7232,-3.6996,-3.7213,-3.6865,-3.6722,-3.7146,-3.7482,-3.7549,-3.7213,-3.7415,-3.7482,-3.7146,-3.7146,-3.7059,-3.7018,-3.78,-3.8208,-3.8167,-3.8264,-3.8465,-3.8942,-3.8997,-3.9273,-3.9714,-4.0504,-4.0668,-4.0382,-4.074,-4.0365,-3.9668,-4.0082,-3.9925,-3.9567,-4.0098,-4.0471,-4.0752,-4.1001,-4.1523,-4.2174,-4.2614,-4.3587,-4.4619,-4.5143,-4.5305,-4.5181,-4.488,-4.4428,-4.405,-4.3691,-4.3615,-4.3615,-4.3615,-4.3615,-4.3739,-4.4194,-4.4298,-4.4443,-4.496,-4.4749,-4.4813,-4.5584,-4.5386,-4.5349,-4.6123,-4.5522,-4.5043,-4.5002,-4.4138,-4.3198,-4.237,-4.1501,-4.0646,-3.9823,-3.9035,-3.856,-3.856,-3.856,-3.856,-3.856,-3.856,-3.856,-3.856,-3.856,-3.856,-3.856,-3.856,-3.856,-3.856,-3.856,-3.8798,-2.779,-2.9239,-3.082,-3.2233,-3.3855,-3.5086,-3.4856,-3.5569,-3.6441,-3.7182,-3.6938,-3.6797,-3.7527,-3.7236,-3.708,-3.7468,-3.7818,-3.8066,-3.8107,-3.8553,-3.8739,-3.8317,-3.8117,-3.7917,-3.7625,-3.7476,-3.7415,-3.7482,-3.7837,-3.8037,-3.7971,-3.777,-3.7549,-3.7482,-3.7213,-3.6918,-3.6556,-3.7333,-3.7595,-3.7228,-3.8197,-3.8609,-3.8453,-3.8174,-3.8608,-3.9714,-4.0238,-4.0525,-4.0811,-4.0882,-4.0693,-4.0473,-4.0869,-4.0753,-4.0482,-4.1225,-4.1369,-4.131,-4.1988,-4.237,-4.264,-4.3429,-4.3918,-4.4249,-4.4794,-4.4741,-4.4428,-4.4352,-4.4071,-4.3691,-4.3615,-4.3615,-4.3615,-4.3615,-4.3615,-4.3739,-4.4194,-4.4298,-4.4546,-4.5374,-4.546,-4.5605,-4.6039,-4.5798,-4.5596,-4.5779,-4.5651,-4.5395,-4.5043,-4.3939,-4.2752,-4.154,-4.0666,-3.9823,-3.8956,-3.8719,-3.856,-3.856,-3.856,-3.856,-3.856,-3.856,-3.856,-3.856,-3.856,-3.856,-3.856,-3.856,-3.856,-3.856,-3.856,-3.864,-2.7893,-2.9163,-3.0795,-3.303,-3.4348,-3.5164,-3.5391,-3.615,-3.6955,-3.7379,-3.7202,-3.7074,-3.7254,-3.7339,-3.7307,-3.7535,-3.8117,-3.845,-3.8087,-3.8477,-3.8628,-3.8089,-3.7851,-3.7751,-3.7644,-3.7624,-3.7683,-3.7904,-3.8104,-3.8191,-3.8191,-3.7971,-3.7904,-3.7904,-3.7703,-3.7514,-3.7269,-3.7826,-3.8026,-3.7798,-3.8408,-3.8559,-3.831,-3.8328,-3.8707,-3.9464,-3.9759,-4.0206,-4.0576,-4.0563,-4.0547,-4.048,-4.0899,-4.0763,-4.0472,-4.1284,-4.1455,-4.138,-4.2058,-4.2441,-4.2732,-4.3702,-4.4149,-4.4395,-4.4902,-4.4955,-4.4654,-4.4277,-4.405,-4.3843,-4.3615,-4.3615,-4.3615,-4.3615,-4.3933,-4.4238,-4.4334,-4.4639,-4.5071,-4.5619,-4.5685,-4.5768,-4.5995,-4.5876,-4.5715,-4.5715,-4.567,-4.5519,-4.5043,-4.4048,-4.2861,-4.1543,-4.066,-3.9963,-3.9289,-3.9043,-3.8933,-3.8933,-3.8933,-3.8762,-3.8658,-3.856,-3.856,-3.856,-3.856,-3.856,-3.856,-3.856,-3.856,-3.856,-3.856,-3.856,-2.7911,-2.911,-3.0906,-3.3656,-3.4595,-3.5041,-3.6239,-3.6861,-3.7179,-3.7092,-3.7262,-3.7258,-3.6975,-3.7402,-3.7754,-3.7406,-3.8339,-3.8815,-3.7872,-3.8203,-3.8272,-3.7805,-3.7496,-3.7429,-3.7703,-3.7616,-3.777,-3.8191,-3.8191,-3.8191,-3.8191,-3.8191,-3.8191,-3.8191,-3.8191,-3.815,-3.8067,-3.8528,-3.8705,-3.8687,-3.8856,-3.8708,-3.8276,-3.8725,-3.9036,-3.9091,-3.9355,-3.9733,-4.031,-4.0203,-4.0261,-4.0485,-4.0815,-4.0772,-4.0636,-4.1364,-4.1631,-4.1695,-4.2101,-4.2484,-4.2981,-4.3724,-4.4214,-4.4597,-4.5072,-4.5106,-4.4955,-4.4277,-4.4112,-4.4099,-4.3815,-4.378,-4.3822,-4.376,-4.4398,-4.4865,-4.4396,-4.4904,-4.5519,-4.5661,-4.5667,-4.5628,-4.5548,-4.5649,-4.5628,-4.5548,-4.5729,-4.5543,-4.493,-4.4136,-4.3042,-4.1678,-4.0804,-4.0253,-3.9803,-3.9483,-3.9336,-3.9336,-3.9336,-3.9153,-3.8688,-3.867,-3.8634,-3.856,-3.856,-3.856,-3.856,-3.856,-3.856,-3.856,-3.856,-3.856,-2.6913,-2.9048,-3.1767,-3.4095,-3.5209,-3.5625,-3.5385,-3.6391,-3.7394,-3.7044,-3.7385,-3.7707,-3.7648,-3.781,-3.7869,-3.7668,-3.8166,-3.8497,-3.8192,-3.8589,-3.8705,-3.8161,-3.8118,-3.8132,-3.8145,-3.7837,-3.777,-3.8191,-3.8191,-3.8191,-3.8191,-3.8191,-3.8191,-3.8191,-3.8191,-3.7984,-3.7591,-3.836,-3.8603,-3.8549,-3.9377,-3.9189,-3.8228,-3.8662,-3.8911,-3.8995,-3.9073,-3.9478,-4.0253,-4.017,-4.068,-4.1389,-4.1721,-4.201,-4.2317,-4.2774,-4.2936,-4.2936,-4.3001,-4.3354,-4.3791,-4.3976,-4.4086,-4.422,-4.4356,-4.4146,-4.3843,-4.3691,-4.3981,-4.4292,-4.4215,-4.4505,-4.4712,-4.4298,-4.4878,-4.5242,-4.4458,-4.4748,-4.5205,-4.5602,-4.5674,-4.5535,-4.5128,-4.5454,-4.5535,-4.5128,-4.5779,-4.5756,-4.4542,-4.3697,-4.2514,-4.0842,-4.0266,-3.9792,-3.9336,-3.9593,-3.984,-3.984,-3.984,-3.9575,-3.9171,-3.9153,-3.8988,-3.8658,-3.856,-3.856,-3.856,-3.856,-3.856,-3.856,-3.856,-3.856,-2.7583,-2.9076,-3.0942,-3.2871,-3.4015,-3.4654,-3.4882,-3.5996,-3.704,-3.7161,-3.7381,-3.7644,-3.8013,-3.7788,-3.7658,-3.8006,-3.8307,-3.8406,-3.8262,-3.8623,-3.8712,-3.8253,-3.8001,-3.7975,-3.8212,-3.7837,-3.7816,-3.8437,-3.8304,-3.8304,-3.8503,-3.8503,-3.8503,-3.8503,-3.8503,-3.8399,-3.819,-3.8708,-3.9038,-3.9194,-3.9936,-3.988,-3.9168,-3.8885,-3.8821,-3.887,-3.887,-3.9419,-4.0241,-4.043,-4.0912,-4.1544,-4.1877,-4.2089,-4.23,-4.2721,-4.2861,-4.2883,-4.3093,-4.3468,-4.3949,-4.4214,-4.4546,-4.4823,-4.4827,-4.4579,-4.4264,-4.4308,-4.4286,-4.436,-4.4629,-4.4836,-4.494,-4.4733,-4.4806,-4.4779,-4.4339,-4.4619,-4.4967,-4.4893,-4.5139,-4.5205,-4.4724,-4.5008,-4.525,-4.5008,-4.5535,-4.5535,-4.4462,-4.3751,-4.276,-4.1024,-4.0514,-4.0125,-3.9942,-4.0088,-4.0281,-4.0281,-4.0281,-3.9997,-3.9593,-3.9355,-3.9153,-3.897,-3.867,-3.856,-3.856,-3.8402,-3.8402,-3.856,-3.8402,-3.8402,-2.8441,-2.9155,-3.0138,-3.1758,-3.2724,-3.3564,-3.4424,-3.5601,-3.6708,-3.7066,-3.744,-3.7764,-3.8012,-3.7609,-3.743,-3.8064,-3.8234,-3.8203,-3.8255,-3.8485,-3.8564,-3.8233,-3.7971,-3.7904,-3.8191,-3.7904,-3.795,-3.8549,-3.8304,-3.8304,-3.8549,-3.8549,-3.8549,-3.8549,-3.8549,-3.8549,-3.8549,-3.888,-3.921,-3.9428,-3.9993,-4.007,-3.9597,-3.9161,-3.8951,-3.8951,-3.8827,-3.9241,-4.0054,-4.0459,-4.1053,-4.1686,-4.1877,-4.2089,-4.237,-4.2651,-4.2721,-4.2791,-4.3093,-4.3556,-4.4102,-4.4473,-4.4925,-4.5344,-4.5372,-4.5106,-4.4836,-4.4844,-4.4767,-4.4743,-4.5043,-4.525,-4.5312,-4.5188,-4.4898,-4.4588,-4.436,-4.4613,-4.4842,-4.467,-4.4934,-4.506,-4.4745,-4.4886,-4.5047,-4.5047,-4.5311,-4.5129,-4.4138,-4.3726,-4.2891,-4.1116,-4.0777,-4.0584,-4.0473,-4.0565,-4.062,-4.062,-4.062,-4.0437,-4.0097,-3.9703,-3.9447,-3.9226,-3.8951,-3.867,-3.856,-3.8163,-3.8163,-3.8402,-3.8163,-3.8163,-2.8894,-2.931,-2.9897,-3.1452,-3.2183,-3.2839,-3.3921,-3.5384,-3.6553,-3.6582,-3.7593,-3.8207,-3.7506,-3.7252,-3.73,-3.7557,-3.7705,-3.7827,-3.814,-3.8212,-3.8212,-3.8191,-3.8191,-3.8191,-3.8191,-3.8191,-3.8191,-3.8258,-3.8191,-3.8191,-3.8258,-3.8258,-3.8258,-3.8258,-3.8258,-3.8258,-3.8258,-3.857,-3.8747,-3.8747,-3.9252,-3.926,-3.8854,-3.9309,-3.9426,-3.9406,-3.8972,-3.9055,-3.953,-4.0054,-4.0912,-4.2018,-4.2018,-4.2462,-4.3163,-4.3184,-4.3184,-4.3184,-4.3184,-4.3774,-4.4561,-4.4582,-4.4996,-4.5384,-4.5405,-4.5106,-4.4836,-4.4844,-4.523,-4.5535,-4.5599,-4.5954,-4.6182,-4.5747,-4.5623,-4.5374,-4.4484,-4.465,-4.5084,-4.5561,-4.5674,-4.5657,-4.5678,-4.527,-4.5005,-4.5005,-4.5008,-4.4543,-4.3201,-4.3074,-4.2414,-4.0685,-4.0869,-4.0877,-4.051,-4.0822,-4.1024,-4.1024,-4.1024,-4.0859,-4.0455,-4.0418,-4.0033,-3.9245,-3.9208,-3.9025,-3.856,-3.8163,-3.8004,-3.8004,-3.8004,-3.8004,-2.8494,-2.8684,-2.8929,-2.9932,-3.1021,-3.2015,-3.2483,-3.4168,-3.5805,-3.6282,-3.6782,-3.7232,-3.753,-3.7295,-3.7104,-3.7493,-3.7151,-3.7146,-3.8063,-3.7922,-3.786,-3.815,-3.7971,-3.7904,-3.8191,-3.7971,-3.7914,-3.8065,-3.8138,-3.8179,-3.8065,-3.8336,-3.8482,-3.8482,-3.8482,-3.8482,-3.8482,-3.8908,-3.9108,-3.9033,-3.9593,-3.9904,-3.9904,-3.966,-3.9841,-4.032,-3.9875,-3.9757,-4.0013,-4.0962,-4.1587,-4.2089,-4.2603,-4.2953,-4.3184,-4.3184,-4.3184,-4.3228,-4.3512,-4.4036,-4.4648,-4.4954,-4.5404,-4.5779,-4.5779,-4.548,-4.5277,-4.5587,-4.5637,-4.5697,-4.5993,-4.6223,-4.6244,-4.5788,-4.5685,-4.5436,-4.4505,-4.4443,-4.4613,-4.4752,-4.5283,-4.5614,-4.5332,-4.5372,-4.5372,-4.5046,-4.4823,-4.4191,-4.3112,-4.2748,-4.2061,-4.0658,-4.0822,-4.0811,-4.0076,-4.0654,-4.0976,-4.0639,-4.0892,-4.1089,-4.0859,-4.0602,-4.0198,-3.963,-3.9355,-3.9043,-3.856,-3.8163,-3.8004,-3.8004,-3.7765,-3.7765,-2.8476,-2.8312,-2.8322,-2.8807,-2.9749,-3.0733,-3.136,-3.2919,-3.4372,-3.502,-3.558,-3.6022,-3.6366,-3.6519,-3.6694,-3.7218,-3.6876,-3.6848,-3.7794,-3.7819,-3.7777,-3.7943,-3.7888,-3.7842,-3.7964,-3.7888,-3.7914,-3.8044,-3.8138,-3.8246,-3.8241,-3.8447,-3.8549,-3.8681,-3.8615,-3.8615,-3.8681,-3.8929,-3.8929,-3.8835,-3.9265,-3.9642,-3.9993,-3.966,-3.9924,-4.0591,-4.0456,-4.0365,-4.0261,-4.1404,-4.1877,-4.2089,-4.2743,-4.3093,-4.3184,-4.3184,-4.3184,-4.325,-4.3779,-4.4189,-4.467,-4.515,-4.5631,-4.6002,-4.6002,-4.5779,-4.5675,-4.6262,-4.6075,-4.5896,-4.6441,-4.6428,-4.6184,-4.5975,-4.5788,-4.5519,-4.4898,-4.4774,-4.4737,-4.4567,-4.516,-4.5674,-4.5495,-4.5454,-4.5372,-4.5291,-4.466,-4.3864,-4.3112,-4.2519,-4.1721,-4.061,-4.0746,-4.0614,-4.009,-4.0577,-4.0807,-4.0639,-4.0892,-4.106,-4.106,-4.0804,-4.0473,-4.0152,-3.9795,-3.9447,-3.9043,-3.837,-3.8004,-3.8004,-3.7765,-3.7765,0.0,0.0,0.0,-2.8274,-2.8528,-2.9083,-3.0496,-3.1518,-3.2295,-3.2785,-3.3976,-3.4747,-3.3996,-3.4966,-3.6039,-3.662,-3.677,-3.7033,-3.7422,-3.7881,-3.7984,-3.757,-3.7902,-3.8005,-3.755,-3.7902,-3.815,-3.815,-3.815,-3.835,-3.866,-3.837,-3.837,-3.8681,-3.837,-3.837,-3.8681,-3.837,-3.8191,-3.8191,-3.8191,-3.8419,-3.8827,-3.9261,-3.9736,-4.0282,-4.0696,-4.0634,-4.0282,-4.1142,-4.1686,-4.2089,-4.2441,-4.2861,-4.3184,-4.3184,-4.3184,-4.3272,-4.3801,-4.4211,-4.4692,-4.5172,-4.5631,-4.6002,-4.6002,-4.6002,-4.6124,-4.6625,-4.6519,-4.6365,-4.6842,-4.667,-4.6266,-4.6266,-4.6016,-4.5705,-4.5685,-4.5705,-4.5561,-4.5105,-4.5427,-4.5881,-4.6185,-4.5617,-4.5127,-4.5535,-4.4501,-4.3549,-4.2991,-4.2188,-4.1368,-4.0518,-4.0403,-4.0403,-4.0403,-4.0403,-4.0572,-4.106,-4.106,-4.106,-4.106,-4.106,-4.0877,-4.0473,-4.0473,-4.0253,-3.9895,-3.8642,-3.8022,-3.8022,-3.8004,-3.8004,-2.9301,0.0,0.0,0.0,0.0,0.0,-2.9488,-3.0471,-3.1568,-3.2813,-3.3638,-3.422,-3.4497,-3.5066,-3.5299,-3.4461,-3.519,-3.6222,-3.7343,-3.7322,-3.7384,-3.7922,-3.8109,-3.8005,-3.755,-3.7612,-3.755,0.0,-3.7488,-3.774,-3.7805,-3.8071,-3.8258,-3.8304,-3.8258,-3.8237,-3.8304,-3.8258,-3.8191,-3.8191,-3.8191,-3.8605,-3.9282,-3.9406,-3.9972,-4.0696,-4.082,-4.0963,-4.1163,-4.1693,-4.2089,-4.2511,-4.2883,-4.3093,-4.3184,-4.3184,-4.3381,-4.3731,-4.4233,-4.4713,-4.5194,-4.5653,-4.5893,-4.6002,-4.6002,-4.6002,-4.6059,-4.6214,-4.6493,-4.6677,-4.6922,-4.667,-4.6266,-4.6266,-4.6244,-4.6078,-4.5747,-4.5933,-4.6037,-4.5581,-4.5874,-4.6104,-4.5861,-4.5942,-4.5454,-4.3958,-4.3696,-4.3162,-4.1779,-4.137,-4.1184,-4.0958,-4.0554,-4.0403,-4.0403,-4.0131,-4.0131,-4.0554,-4.0554,-4.0723,-4.106,-4.106,-4.0877,-4.0473,-4.0206,-3.9777,-3.9392,-3.9011,-3.874,-3.8419,-3.813,-3.7685,0.0,-2.942,-2.8925,-2.896,0.0,0.0,-2.8791,-2.9483,-3.0411,-3.1258,-3.1871,-3.2393,-3.2792,-3.342,-3.3629,-3.2866,-3.3534,-3.4716,-3.6602,-3.6786,-3.6993,-3.7476,-3.7553,-3.7425,-3.697,-3.7094,-3.7177,-3.7094,-3.7343,-3.757,-3.7777,-3.8158,-3.8437,-3.8437,-3.8237,-3.8258,-3.8437,-3.8237,-3.8191,-3.8191,-3.8378,-3.8647,-3.8999,-3.9578,-4.0013,-4.0344,-4.0717,-4.1096,-4.1544,-4.1877,-4.2229,-4.2651,-4.3023,-4.3184,-4.3206,-4.3381,-4.3692,-4.4042,-4.4648,-4.5085,-4.5391,-4.5849,-4.6002,-4.6002,-4.6002,-4.6002,-4.6037,-4.629,-4.6538,-4.679,-4.669,-4.648,-4.628,-4.6306,-4.6266,-4.6285,-4.6016,-4.6161,-4.6223,-4.5768,-4.5715,-4.5779,-4.5942,-4.5861,-4.527,-4.4021,-4.3793,-4.3214,-4.1798,-4.1313,-4.0976,-4.0554,-4.03,-4.0131,-4.0131,-3.9876,-3.9961,-4.0639,-4.0723,-4.0807,-4.106,-4.106,-4.095,-4.0712,-4.0294,-3.9645,-3.8915,-3.8914,-3.8922,-3.8824,-3.8608,-3.8177,0.0,0.0,0.0,-2.9048,-2.8738,0.0,-2.8473,-2.8808,-2.9176,-2.9219,-2.9713,-3.0091,-3.0091,-3.0947,-3.1578,-3.1419,-3.1774,-3.2905,-3.5369,-3.6102,-3.6475,-3.652,-3.6664,-3.6556,-3.6142,-3.6494,-3.6908,-3.7301,-3.7491,-3.774,-3.8154,-3.8528,-3.8681,-3.8681,-3.837,-3.8304,-3.8615,-3.837,-3.8191,-3.8191,-3.8647,-3.8667,-3.8378,-3.9661,-4.0034,-3.9723,-4.0601,-4.1188,-4.1544,-4.1877,-4.23,-4.2651,-4.3023,-4.3184,-4.3228,-4.3757,-4.3954,-4.408,-4.4997,-4.5347,-4.5456,-4.5871,-4.6002,-4.6002,-4.6002,-4.6002,-4.6111,-4.6592,-4.6746,-4.6661,-4.6411,-4.63,-4.6246,-4.6262,-4.6225,-4.6246,-4.6204,-4.6225,-4.6142,-4.583,-4.5433,-4.5372,-4.6104,-4.5617,-4.5046,-4.476,-4.4103,-4.3297,-4.2318,-4.1565,-4.0807,-3.9943,-3.9858,-3.9858,-3.9774,-3.9689,-4.0113,-4.0976,-4.106,-4.106,-4.106,-4.106,-4.106,-4.106,-4.0687,-3.9784,-3.8518,-3.8561,-3.8851,-3.9164,-3.9177,-3.8996,-3.201,-3.0782,-2.976,-2.9932,-2.9661,0.0,-2.8839,-2.9092,-2.9598,-3.0163,-3.0258,-3.0193,-2.9996,-3.0436,-3.0427,-2.8911,-2.9715,-3.1457,-3.4087,-3.4386,-3.4799,-3.606,-3.6183,-3.6204,-3.6121,-3.6183,-3.6287,-3.637,-3.7311,-3.7966,-3.8026,-3.8492,-3.8549,-3.8304,-3.8237,-3.8237,-3.8304,-3.8237,-3.8191,-3.8191,-3.8647,-3.8931,-3.9309,-3.993,-4.0365,-4.0634,-4.1176,-4.1402,-4.1544,-4.2229,-4.2511,-4.2651,-4.3023,-4.3184,-4.3228,-4.3757,-4.4102,-4.4539,-4.5107,-4.5565,-4.5893,-4.598,-4.6002,-4.6002,-4.6002,-4.6002,-4.6111,-4.6592,-4.6507,-4.6309,-4.672,-4.6538,-4.6263,-4.5868,-4.6078,-4.6244,-4.5892,-4.6099,-4.6246,-4.6244,-4.6123,-4.6023,-4.5861,-4.5942,-4.5352,-4.3195,-4.3361,-4.2965,-4.106,-4.121,-4.1378,-4.0892,-4.0789,-4.062,-4.03,-3.9961,-3.9961,-4.0469,-4.0572,-4.0723,-4.106,-4.106,-4.106,-4.106,-4.0665,-3.9848,-3.8518,-3.8867,-3.8901,-3.8743,-3.9096,-3.8976,-3.237,-3.1227,-3.0433,-3.0751,-3.027,0.0,0.0,-2.9258,-2.923,-2.9613,-2.9223,-2.8787,-2.8787,-2.8695,-2.8359,-2.7562,-2.7958,-2.9064,-3.0781,-3.2282,-3.3824,-3.5367,-3.5204,-3.5063,-3.5397,-3.5231,-3.5376,-3.6059,-3.7143,-3.7749,-3.7749,-3.8187,-3.837,-3.8191,-3.8191,-3.8191,-3.8191,-3.8191,-3.8304,-3.8437,-3.8922,-3.9253,-3.95,-4.0438,-4.0763,-4.0622,-4.1418,-4.1686,-4.1544,-4.23,-4.2581,-4.2651,-4.3023,-4.3316,-4.3578,-4.4058,-4.4539,-4.5019,-4.55,-4.5806,-4.6002,-4.6002,-4.6002,-4.6002,-4.6002,-4.5853,-4.5748,-4.6008,-4.6096,-4.6137,-4.6478,-4.6605,-4.6522,-4.6114,-4.6182,-4.6204,-4.6057,-4.6182,-4.6266,-4.6266,-4.6266,-4.6266,-4.6023,-4.5617,-4.4862,-4.3278,-4.3048,-4.2466,-4.0976,-4.1145,-4.121,-4.0807,-4.0723,-4.0639,-4.0403,-4.0216,-4.0216,-4.0723,-4.0723,-4.0807,-4.106,-4.106,-4.0885,-4.0414,-4.0432,-3.9699,-3.8234,-3.9032,-3.9187,-3.8866,-3.9259,-3.9098,-3.2876,-3.1838,-3.1288,-3.1792,-3.1005,-3.0157,0.0,0.0,0.0,-2.8814,-2.8031,0.0,0.0,0.0,0.0,-2.6505,0.0,0.0,0.0,-2.9973,0.0,-3.3832,-3.347,-3.3372,-3.4194,-3.3886,-3.4339,-3.5936,-3.6727,-3.729,-3.7478,-3.8169,-3.8458,-3.837,-3.837,-3.837,-3.8304,-3.8304,-3.8412,-3.8762,-3.928,-3.9529,-3.9621,-4.0927,-4.1121,-4.0485,-4.1637,-4.1947,-4.1686,-4.237,-4.2651,-4.2651,-4.3023,-4.3447,-4.3856,-4.4408,-4.4837,-4.5244,-4.5849,-4.6002,-4.6002,-4.6002,-4.5928,-4.595,-4.6111,-4.5834,-4.5556,-4.5642,-4.6042,-4.6376,-4.6252,-4.6577,-4.6802,-4.6301,-4.6204,-4.6246,-4.6244,-4.6285,-4.6266,-4.6266,-4.6266,-4.6266,-4.6104,-4.5189,-4.4288,-4.3546,-4.2882,-4.2068,-4.1229,-4.1145,-4.106,-4.0554,-4.0554,-4.0554,-4.0403,-4.0469,-4.0639,-4.0976,-4.106,-4.106,-4.106,-4.106,-4.0654,-3.9848,-4.0319,-3.9724,-3.8032,-3.9121,-3.9423,-3.8908,-3.9369,-3.9169,-3.4051,-3.3052,-3.2375,-3.3421,-3.2425,-3.1152,-3.1202,0.0,-2.927,-2.888,0.0,-2.7554,0.0,0.0,0.0,0.0,0.0,0.0,-2.6713,-2.7311,-2.8375,-3.0348,-3.0461,-3.0959,-3.223,-3.2235,-3.3226,-3.5562,-3.5894,-3.6462,-3.7502,-3.8852,-3.9363,-3.9078,-3.9099,-3.8946,-3.8681,-3.8615,-3.8691,-3.8771,-3.9288,-3.9723,-4.0166,-4.108,-4.1452,-4.1389,-4.2208,-4.23,-4.2018,-4.2813,-4.2953,-4.2651,-4.3023,-4.3236,-4.35,-4.4264,-4.4692,-4.4875,-4.5701,-4.6002,-4.6002,-4.6002,-4.5779,-4.5641,-4.6376,-4.6334,-4.6138,-4.6493,-4.6973,-4.7202,-4.6505,-4.6574,-4.6717,-4.5986,-4.6057,-4.6244,-4.585,-4.6078,-4.6266,-4.6266,-4.6266,-4.6003,-4.525,-4.5005,-4.435,-4.2818,-4.2485,-4.2068,-4.1229,-4.1378,-4.1462,-4.106,-4.1378,-4.121,-4.0488,-4.0807,-4.0892,-4.0469,-4.0892,-4.106,-4.106,-4.106,-4.0694,-3.9923,-4.0657,-4.0224,-3.8536,-3.9289,-3.9139,-3.811,-3.8855,-3.8923,-3.6218,-3.5904,-3.5568,-3.4863,-3.378,-3.261,-3.1251,-2.9991,-2.9055,-2.8836,0.0,0.0,0.0,0.0,0.0,0.0,-2.4652,0.0,0.0,0.0,-2.6139,-2.8746,0.0,0.0,-3.0695,-3.1608,-3.2622,-3.394,-3.4514,-3.5482,-3.6841,-3.7996,-3.8808,-3.921,-3.921,-3.9012,-3.8681,-3.9154,-3.9386,-3.9462,-3.9992,-4.0452,-4.085,-4.1524,-4.1686,-4.1544,-4.2532,-4.2721,-4.2392,-4.3236,-4.3507,-4.3366,-4.3812,-4.4052,-4.4127,-4.4532,-4.501,-4.5518,-4.5862,-4.6002,-4.6002,-4.6002,-4.6049,-4.6117,-4.5955,-4.5826,-4.5855,-4.6299,-4.6557,-4.6824,-4.6983,-4.7361,-4.7496,-4.664,-4.6545,-4.6629,-4.6099,-4.6223,-4.6266,-4.6266,-4.5921,-4.527,-4.4432,-4.4268,-4.3876,-4.2569,-4.1984,-4.1481,-4.1145,-4.121,-4.1313,-4.1145,-4.121,-4.121,-4.0807,-4.0976,-4.0892,-4.0403,-4.0554,-4.0807,-4.106,-4.106,-4.0785,-4.0217,-4.0851,-4.05,-3.9368,-4.0167,-3.9688,-3.7986,-3.825,-3.816,-3.8182,-3.8345,-3.8186,-3.6195,-3.507,-3.3854,-3.1494,-2.9996,-2.9023,-2.8798,-2.785,0.0,0.0,0.0,0.0,0.0,0.0,-2.4285,0.0,-2.3884,0.0,0.0,0.0,0.0,0.0,-3.0427,-3.136,-3.239,-3.3223,-3.4382,-3.6003,-3.7245,-3.8337,-3.9196,-3.941,-3.9341,-3.8946,-3.9678,-4.0064,-4.0124,-4.0658,-4.1101,-4.1507,-4.1988,-4.2018,-4.1827,-4.2802,-4.3127,-4.3008,-4.3649,-4.3987,-4.4102,-4.4532,-4.4707,-4.4823,-4.4828,-4.524,-4.5704,-4.5779,-4.5853,-4.5875,-4.608,-4.6364,-4.6496,-4.6106,-4.5855,-4.5741,-4.61,-4.6236,-4.6436,-4.6905,-4.7346,-4.7544,-4.6972,-4.6852,-4.667,-4.6347,-4.6266,-4.6266,-4.6185,-4.5596,-4.4862,-4.3876,-4.3546,-4.3048,-4.2151,-4.1481,-4.106,-4.106,-4.106,-4.106,-4.106,-4.0969,-4.095,-4.1042,-4.0866,-4.0596,-4.0216,-4.0216,-4.0385,-4.0892,-4.0892,-4.0793,-4.0473,-4.0942,-4.074,-3.9932,-4.0573,-3.9909,-3.8128,-3.8031,-3.7666,-3.9663,-3.9601,-3.9081,-3.7592,-3.6147,-3.4537,-3.2401,-3.0838,-2.9547,-2.8833,-2.8317,0.0,0.0,0.0,0.0,0.0,0.0,0.0,0.0,0.0,0.0,0.0,0.0,0.0,0.0,-2.8238,-2.9083,0.0,-3.2091,-3.3311,-3.5212,-3.7112,-3.8419,-3.9258,-3.9927,-4.0084,-3.9691,-4.0231,-4.0482,-4.0546,-4.1082,-4.155,-4.1997,-4.2419,-4.2581,-4.2603,-4.3077,-4.3485,-4.3883,-4.3933,-4.42,-4.4604,-4.4668,-4.4915,-4.5303,-4.5303,-4.5091,-4.488,-4.5256,-4.5405,-4.5545,-4.6398,-4.642,-4.6289,-4.7139,-4.6883,-4.6259,-4.629,-4.6279,-4.6202,-4.5878,-4.6083,-4.6367,-4.6324,-4.6347,-4.6347,-4.6266,-4.6266,-4.6185,-4.58,-4.5719,-4.5291,-4.3958,-4.2965,-4.2151,-4.1229,-4.1145,-4.106,-4.106,-4.106,-4.106,-4.106,-4.0712,-4.0639,-4.1024,-4.0359,-3.9784,-3.9756,-3.9689,-3.9961,-4.0403,-4.0403,-4.0457,-4.0473,-4.0942,-4.074,-3.9932,-4.0257,-3.9719,-3.85,-3.8536,-3.7848,-4.2269,-4.2467,-4.2282,-3.9697,-3.859,-3.7456,-3.4912,-3.3396,-3.2178,-3.0709,-3.0867,0.0,0.0,0.0,0.0,0.0,0.0,0.0,0.0,0.0,0.0,0.0,0.0,0.0,0.0,0.0,0.0,0.0,-3.0656,0.0,-3.4163,-3.5725,-3.7088,-3.8437,-3.9242,-3.9646,-3.9691,-4.08,-4.121,-4.0976,-4.1817,-4.2269,-4.237,-4.23,-4.2401,-4.27,-4.2871,-4.3178,-4.3593,-4.4211,-4.4405,-4.4322,-4.4922,-4.5094,-4.5019,-4.5243,-4.55,-4.5555,-4.548,-4.5621,-4.5901,-4.6225,-4.6854,-4.7453,-4.7165,-4.6669,-4.6294,-4.6266,-4.5814,-4.5504,-4.5968,-4.6384,-4.6638,-4.633,-4.6542,-4.667,-4.6347,-4.6266,-4.6185,-4.58,-4.5209,-4.4616,-4.3793,-4.2965,-4.2235,-4.163,-4.121,-4.0958,-4.0639,-4.0639,-4.0639,-4.0639,-4.0545,-4.0639,-4.1024,-4.0511,-4.0156,-4.0131,-4.0131,-4.0385,-4.0807,-4.0572,-4.0415,-4.0457,-4.0228,-4.0072,-3.9802,-3.9903,-3.9423,-3.8491,-3.8228,-3.7565,-4.3984,-4.4142,-4.3846,-4.1126,-4.0378,-3.9537,-3.663,-3.5446,-3.4534,-3.3124,0.0,0.0,0.0,0.0,0.0,0.0,0.0,0.0,0.0,-2.4807,0.0,0.0,0.0,0.0,0.0,0.0,0.0,0.0,0.0,0.0,0.0,-3.4791,-3.6244,-3.7852,-3.8887,-3.9535,-3.9931,-4.1085,-4.1564,-4.1383,-4.2336,-4.2791,-4.2813,-4.2542,-4.255,-4.2721,-4.2924,-4.3149,-4.3486,-4.4198,-4.4528,-4.4624,-4.4998,-4.5106,-4.5031,-4.533,-4.548,-4.5577,-4.5825,-4.5782,-4.58,-4.6603,-4.7354,-4.7831,-4.7233,-4.6848,-4.6443,-4.5884,-4.5272,-4.4824,-4.5448,-4.582,-4.6016,-4.6079,-4.6312,-4.6483,-4.6306,-4.6185,-4.5942,-4.5372,-4.478,-4.4205,-4.3628,-4.3131,-4.2633,-4.2049,-4.1714,-4.1294,-4.0723,-4.0892,-4.0892,-4.0488,-4.05,-4.0529,-4.0435,-4.0391,-4.0318,-4.0131,-4.0131,-4.0385,-4.0807,-4.0385,-4.0216,-4.0403,-3.9961,-3.9689,-3.9689,-3.9689,-3.931,-3.8641,-3.8101,-3.747]},{"header":{"parameterUnit":"m.s-1","parameterCategory":1,"la1":30.6,"la2":29.2853,"lo1":-89.7004,"lo2":-87.6739,"dy":0.0162,"dx":0.0183,"nx":112,"ny":82,"refTime":"2024-03-24T12:00:00:Z","depth":0,"parameterNumber":3,"parameterNumberName":"V-component_of_WINDS"},"data":[0.0,0.0,0.0,0.0,0.0,0.0,0.0,0.0,0.0,0.0,0.0,0.0,0.0,0.0,0.0,0.0,0.0,0.0,0.0,0.0,0.0,0.0,0.0,0.0,0.0,0.0,0.0,0.0,0.0,0.0,0.0,0.0,0.0,0.0,0.0,0.0,0.0,0.0,0.0,0.0,0.0,0.0,0.0,0.0,0.0,0.0,0.0,0.0,0.0,0.0,0.0,0.0,0.0,0.0,0.0,0.0,0.0,0.0,0.0,0.0,0.0,0.0,0.0,0.0,0.0,0.0,0.0,0.0,0.0,0.0,0.0,0.0,0.0,0.0,0.0,0.0,0.0,0.0,0.0,0.0,0.0,0.0,0.0,0.0,0.0,0.0,0.0,0.0,0.0,0.0,3.575,3.7869,4.0284,4.1666,4.1438,4.0481,3.8909,3.6564,0.0,0.0,0.0,0.0,0.0,0.0,0.0,0.0,0.0,0.0,0.0,0.0,0.0,0.0,0.0,0.0,0.0,0.0,0.0,0.0,0.0,0.0,0.0,0.0,0.0,0.0,0.0,0.0,0.0,0.0,0.0,0.0,0.0,0.0,0.0,0.0,0.0,0.0,0.0,0.0,0.0,0.0,0.0,0.0,0.0,0.0,0.0,0.0,0.0,0.0,0.0,0.0,0.0,0.0,0.0,0.0,0.0,0.0,0.0,0.0,0.0,0.0,0.0,0.0,0.0,0.0,0.0,0.0,0.0,0.0,0.0,0.0,0.0,0.0,0.0,0.0,0.0,0.0,0.0,0.0,0.0,0.0,0.0,0.0,0.0,0.0,0.0,0.0,0.0,0.0,0.0,0.0,0.0,0.0,0.0,0.0,0.0,0.0,0.0,0.0,0.0,0.0,0.0,0.0,3.9103,4.2568,4.2682,4.2393,4.2009,4.0924,3.8935,3.5776,0.0,0.0,0.0,0.0,0.0,0.0,0.0,0.0,0.0,0.0,0.0,0.0,0.0,0.0,0.0,0.0,0.0,0.0,0.0,0.0,0.0,0.0,0.0,0.0,0.0,0.0,0.0,0.0,0.0,0.0,0.0,0.0,0.0,0.0,0.0,0.0,0.0,0.0,0.0,0.0,0.0,0.0,0.0,0.0,0.0,0.0,0.0,0.0,0.0,0.0,0.0,0.0,0.0,0.0,0.0,0.0,0.0,0.0,0.0,0.0,0.0,0.0,0.0,0.0,0.0,0.0,0.0,0.0,0.0,0.0,0.0,0.0,0.0,0.0,0.0,0.0,0.0,0.0,0.0,0.0,0.0,0.0,0.0,0.0,0.0,0.0,0.0,0.0,0.0,0.0,0.0,0.0,0.0,0.0,0.0,0.0,0.0,0.0,0.0,0.0,0.0,0.0,0.0,3.8974,4.1796,4.469,4.4559,4.3961,4.3137,4.2379,4.0571,3.7246,3.5174,0.0,0.0,0.0,0.0,0.0,0.0,0.0,0.0,0.0,0.0,0.0,0.0,0.0,0.0,0.0,0.0,0.0,0.0,0.0,0.0,0.0,0.0,0.0,0.0,0.0,0.0,0.0,0.0,0.0,0.0,0.0,0.0,0.0,0.0,0.0,0.0,0.0,0.0,0.0,0.0,0.0,0.0,0.0,0.0,0.0,0.0,0.0,0.0,0.0,0.0,0.0,0.0,0.0,0.0,0.0,0.0,0.0,0.0,0.0,0.0,0.0,0.0,0.0,0.0,0.0,0.0,0.0,0.0,0.0,0.0,0.0,0.0,0.0,0.0,0.0,0.0,0.0,0.0,0.0,0.0,0.0,0.0,0.0,0.0,0.0,0.0,0.0,0.0,0.0,0.0,0.0,0.0,0.0,0.0,0.0,0.0,0.0,0.0,0.0,0.0,0.0,0.0,4.1977,4.3949,4.5946,4.5873,4.5357,4.4471,4.3453,4.1556,3.8566,3.6517,0.0,0.0,0.0,0.0,0.0,0.0,0.0,0.0,0.0,0.0,0.0,0.0,0.0,0.0,0.0,0.0,0.0,0.0,0.0,0.0,0.0,0.0,0.0,0.0,0.0,0.0,0.0,0.0,0.0,0.0,0.0,0.0,0.0,0.0,0.0,0.0,0.0,0.0,0.0,0.0,0.0,0.0,0.0,0.0,0.0,0.0,0.0,0.0,0.0,0.0,0.0,0.0,0.0,0.0,0.0,0.0,0.0,0.0,0.0,0.0,0.0,0.0,0.0,0.0,0.0,0.0,0.0,0.0,0.0,0.0,0.0,0.0,0.0,0.0,0.0,0.0,0.0,0.0,0.0,0.0,0.0,0.0,0.0,0.0,0.0,0.0,0.0,0.0,0.0,0.0,0.0,0.0,0.0,0.0,0.0,0.0,0.0,0.0,0.0,0.0,0.0,0.0,4.3261,4.5247,4.703,4.6466,4.5951,4.5849,4.313,4.0532,3.8441,3.6099,0.0,0.0,0.0,0.0,0.0,0.0,0.0,0.0,0.0,0.0,0.0,0.0,0.0,0.0,0.0,0.0,0.0,0.0,0.0,0.0,0.0,0.0,0.0,0.0,0.0,0.0,0.0,0.0,0.0,0.0,0.0,0.0,0.0,0.0,0.0,0.0,0.0,0.0,0.0,0.0,0.0,0.0,0.0,0.0,0.0,0.0,0.0,0.0,0.0,0.0,0.0,0.0,0.0,0.0,0.0,0.0,0.0,0.0,0.0,0.0,0.0,0.0,0.0,0.0,0.0,0.0,0.0,0.0,0.0,0.0,0.0,0.0,0.0,0.0,0.0,0.0,0.0,0.0,0.0,0.0,0.0,0.0,0.0,0.0,0.0,0.0,0.0,0.0,0.0,0.0,0.0,0.0,0.0,0.0,0.0,0.0,0.0,0.0,0.0,0.0,0.0,0.0,4.5257,4.7425,0.0,4.8343,4.7727,4.6877,4.5333,4.2781,3.8943,0.0,0.0,0.0,0.0,0.0,0.0,0.0,0.0,0.0,0.0,0.0,0.0,0.0,0.0,0.0,0.0,0.0,0.0,0.0,0.0,0.0,0.0,0.0,0.0,0.0,0.0,0.0,0.0,0.0,0.0,0.0,0.0,0.0,0.0,0.0,0.0,0.0,0.0,0.0,0.0,0.0,0.0,0.0,0.0,0.0,0.0,0.0,0.0,0.0,0.0,0.0,0.0,0.0,0.0,0.0,0.0,0.0,0.0,0.0,0.0,0.0,0.0,0.0,0.0,0.0,0.0,0.0,0.0,0.0,0.0,0.0,0.0,0.0,0.0,0.0,0.0,0.0,0.0,0.0,0.0,0.0,0.0,0.0,0.0,0.0,0.0,0.0,0.0,0.0,0.0,0.0,0.0,0.0,0.0,0.0,0.0,0.0,0.0,0.0,0.0,0.0,0.0,4.3571,4.661,4.8822,0.0,4.9587,4.9083,4.7942,4.67,4.4106,3.9656,0.0,0.0,0.0,0.0,0.0,0.0,0.0,0.0,0.0,0.0,0.0,0.0,0.0,0.0,0.0,0.0,0.0,0.0,0.0,0.0,0.0,0.0,0.0,0.0,0.0,0.0,0.0,0.0,0.0,0.0,0.0,0.0,0.0,0.0,0.0,0.0,0.0,0.0,0.0,0.0,0.0,0.0,0.0,0.0,0.0,0.0,0.0,0.0,0.0,0.0,0.0,0.0,0.0,0.0,0.0,0.0,0.0,0.0,0.0,0.0,0.0,0.0,0.0,0.0,0.0,0.0,0.0,0.0,0.0,0.0,0.0,0.0,0.0,0.0,0.0,0.0,0.0,0.0,0.0,0.0,0.0,0.0,0.0,0.0,0.0,0.0,0.0,0.0,0.0,0.0,0.0,0.0,0.0,0.0,0.0,0.0,0.0,0.0,0.0,0.0,0.0,0.0,4.3964,4.7003,4.9283,4.9951,5.0012,4.9739,4.907,4.6742,4.3945,0.0,0.0,0.0,0.0,0.0,0.0,0.0,0.0,0.0,0.0,0.0,0.0,0.0,0.0,0.0,0.0,0.0,0.0,0.0,0.0,0.0,0.0,0.0,0.0,0.0,0.0,0.0,0.0,0.0,0.0,0.0,0.0,0.0,0.0,0.0,0.0,0.0,0.0,0.0,0.0,0.0,0.0,0.0,0.0,0.0,0.0,0.0,0.0,0.0,0.0,0.0,0.0,0.0,0.0,0.0,0.0,0.0,0.0,0.0,0.0,0.0,0.0,0.0,0.0,0.0,0.0,0.0,0.0,0.0,0.0,0.0,0.0,0.0,0.0,0.0,0.0,0.0,0.0,0.0,0.0,0.0,0.0,0.0,0.0,0.0,0.0,0.0,0.0,0.0,0.0,0.0,0.0,0.0,0.0,0.0,0.0,0.0,0.0,0.0,0.0,0.0,0.0,0.0,4.5488,4.8256,5.0354,5.1513,5.1342,5.0835,4.9988,4.809,4.5733,4.2988,0.0,0.0,0.0,0.0,0.0,0.0,0.0,0.0,0.0,0.0,0.0,0.0,0.0,0.0,0.0,0.0,0.0,0.0,0.0,0.0,0.0,0.0,0.0,0.0,0.0,0.0,0.0,0.0,0.0,0.0,0.0,0.0,0.0,0.0,0.0,0.0,0.0,0.0,0.0,0.0,0.0,0.0,0.0,0.0,0.0,0.0,0.0,0.0,0.0,0.0,0.0,0.0,0.0,0.0,0.0,0.0,0.0,0.0,0.0,0.0,0.0,0.0,0.0,0.0,0.0,0.0,0.0,0.0,0.0,0.0,0.0,0.0,0.0,0.0,0.0,0.0,0.0,0.0,0.0,0.0,0.0,0.0,0.0,0.0,0.0,0.0,0.0,0.0,0.0,0.0,0.0,0.0,0.0,0.0,0.0,0.0,0.0,0.0,0.0,0.0,0.0,0.0,4.6505,4.9225,5.1247,5.235,5.2239,5.1792,5.0953,4.9351,4.7238,4.4471,0.0,0.0,0.0,0.0,0.0,0.0,0.0,0.0,0.0,0.0,0.0,0.0,0.0,0.0,0.0,0.0,0.0,0.0,0.0,0.0,0.0,0.0,0.0,0.0,0.0,0.0,0.0,0.0,0.0,0.0,0.0,0.0,0.0,0.0,0.0,0.0,0.0,0.0,0.0,0.0,0.0,0.0,0.0,0.0,0.0,0.0,0.0,0.0,0.0,0.0,0.0,0.0,0.0,0.0,0.0,0.0,0.0,0.0,0.0,0.0,0.0,0.0,0.0,0.0,0.0,0.0,0.0,0.0,0.0,0.0,0.0,0.0,0.0,0.0,0.0,0.0,0.0,0.0,0.0,0.0,0.0,0.0,0.0,0.0,0.0,0.0,0.0,0.0,0.0,0.0,0.0,0.0,0.0,0.0,0.0,0.0,0.0,0.0,0.0,0.0,0.0,0.0,4.7262,5.0015,5.2082,5.2866,5.2897,5.2558,5.188,5.0586,4.8594,4.5721,0.0,0.0,0.0,0.0,0.0,0.0,0.0,0.0,0.0,0.0,0.0,0.0,0.0,0.0,0.0,0.0,0.0,0.0,0.0,0.0,0.0,0.0,0.0,0.0,0.0,0.0,0.0,0.0,0.0,0.0,0.0,0.0,0.0,0.0,0.0,0.0,0.0,0.0,0.0,0.0,0.0,0.0,0.0,0.0,0.0,0.0,0.0,0.0,0.0,0.0,0.0,0.0,0.0,0.0,0.0,0.0,0.0,0.0,0.0,0.0,4.5458,0.0,0.0,0.0,0.0,0.0,0.0,0.0,0.0,0.0,0.0,0.0,0.0,0.0,0.0,0.0,0.0,0.0,0.0,0.0,0.0,0.0,0.0,0.0,0.0,0.0,0.0,0.0,0.0,0.0,0.0,0.0,0.0,0.0,0.0,0.0,0.0,0.0,0.0,0.0,0.0,0.0,4.8695,5.1097,5.3124,5.4725,5.4397,5.3775,5.309,5.1611,5.0144,4.8709,4.599,0.0,0.0,0.0,0.0,0.0,0.0,0.0,0.0,0.0,0.0,0.0,0.0,0.0,0.0,0.0,0.0,0.0,0.0,0.0,0.0,0.0,0.0,0.0,0.0,0.0,0.0,0.0,0.0,0.0,0.0,0.0,0.0,0.0,0.0,0.0,0.0,0.0,0.0,0.0,0.0,0.0,0.0,0.0,0.0,0.0,0.0,0.0,0.0,0.0,0.0,0.0,0.0,0.0,0.0,0.0,0.0,0.0,0.0,0.0,0.0,4.7166,0.0,0.0,0.0,0.0,0.0,0.0,0.0,0.0,0.0,0.0,0.0,0.0,0.0,0.0,0.0,0.0,0.0,0.0,0.0,0.0,0.0,0.0,0.0,0.0,0.0,0.0,0.0,0.0,0.0,0.0,0.0,0.0,0.0,0.0,0.0,0.0,0.0,0.0,0.0,0.0,4.948,5.1989,5.4013,5.5374,5.4844,5.4251,5.3908,5.2381,5.1254,5.064,4.8059,0.0,0.0,0.0,0.0,0.0,0.0,0.0,0.0,0.0,0.0,0.0,0.0,0.0,0.0,0.0,0.0,0.0,0.0,0.0,0.0,0.0,0.0,0.0,0.0,0.0,0.0,0.0,0.0,0.0,0.0,0.0,0.0,0.0,0.0,0.0,0.0,0.0,0.0,0.0,0.0,0.0,0.0,0.0,0.0,0.0,0.0,0.0,0.0,0.0,0.0,0.0,0.0,0.0,5.7533,5.825,5.8687,5.8615,5.8311,5.7563,5.3819,5.1598,5.0455,4.8917,0.0,0.0,0.0,0.0,0.0,0.0,0.0,0.0,0.0,0.0,0.0,0.0,0.0,0.0,0.0,0.0,0.0,0.0,0.0,0.0,0.0,0.0,0.0,0.0,5.2679,5.2236,4.7174,0.0,0.0,0.0,0.0,0.0,0.0,0.0,0.0,0.0,0.0,0.0,5.031,5.3022,5.5121,5.5917,5.5323,5.4854,5.4728,5.3352,5.2336,5.1968,4.9984,4.7825,0.0,0.0,0.0,0.0,0.0,0.0,0.0,0.0,0.0,0.0,0.0,0.0,0.0,0.0,0.0,0.0,0.0,0.0,0.0,0.0,0.0,0.0,0.0,0.0,0.0,0.0,0.0,0.0,0.0,0.0,0.0,0.0,5.1229,5.1429,0.0,0.0,0.0,0.0,0.0,0.0,0.0,0.0,0.0,0.0,0.0,0.0,0.0,5.7226,5.7841,5.8627,5.9037,5.9103,5.9925,6.0408,6.0619,6.0257,6.0259,6.045,5.9502,0.0,5.3889,5.3045,0.0,0.0,0.0,0.0,0.0,0.0,0.0,0.0,0.0,0.0,0.0,0.0,0.0,0.0,0.0,0.0,0.0,0.0,0.0,0.0,0.0,0.0,5.4262,5.4816,5.5114,5.5043,0.0,5.0949,4.8181,4.7323,4.6394,0.0,0.0,0.0,0.0,0.0,0.0,0.0,5.2103,5.4857,5.6927,5.7835,5.7267,5.6604,5.6005,5.4995,5.4021,5.2976,5.1894,5.0545,4.9024,4.7265,0.0,0.0,0.0,0.0,0.0,0.0,0.0,0.0,0.0,0.0,0.0,0.0,0.0,0.0,0.0,0.0,0.0,0.0,0.0,0.0,0.0,0.0,0.0,0.0,0.0,0.0,0.0,0.0,0.0,5.3281,5.4567,5.4022,5.4327,5.4293,0.0,0.0,0.0,0.0,0.0,0.0,0.0,0.0,0.0,5.9893,6.0303,6.0752,6.1204,6.1921,6.2224,6.2146,6.3124,6.3299,6.2734,6.2586,6.2347,6.2087,6.1381,6.0106,5.8402,5.6948,5.569,5.4465,0.0,0.0,0.0,0.0,4.9722,5.0591,5.0961,5.1564,0.0,5.1631,0.0,0.0,0.0,0.0,0.0,0.0,0.0,0.0,0.0,0.0,5.6354,5.7216,5.7475,5.7303,5.6795,5.5249,5.3442,0.0,5.0505,4.9697,4.8786,0.0,0.0,0.0,0.0,5.266,5.4168,5.5923,5.7439,5.8363,5.7734,5.6992,5.6398,5.5393,5.4573,5.4094,5.2566,5.136,5.0603,4.885,4.6685,0.0,0.0,0.0,0.0,0.0,0.0,0.0,0.0,0.0,0.0,0.0,0.0,0.0,0.0,0.0,0.0,0.0,0.0,0.0,0.0,0.0,0.0,0.0,0.0,0.0,0.0,0.0,0.0,5.6132,5.7226,5.6434,5.695,5.7053,0.0,0.0,0.0,0.0,0.0,0.0,6.0964,6.2233,6.2915,6.2915,6.3463,6.3814,6.3965,6.4515,6.471,6.4512,6.537,6.537,6.4512,6.4439,6.417,6.37,6.2962,6.2685,6.2518,6.0098,5.8628,5.7773,5.5996,5.5077,5.4669,5.3652,5.4059,5.5179,5.5994,5.657,5.6974,5.7082,5.6396,5.5235,5.4092,0.0,0.0,0.0,0.0,5.4621,5.6211,5.7419,5.839,5.9139,5.9285,5.9152,5.8628,5.8283,5.7397,0.0,5.4131,5.3525,5.2669,0.0,0.0,0.0,0.0,5.5113,5.5739,5.6899,5.7856,5.8455,5.8029,5.7362,5.6575,5.5771,5.515,5.4835,5.3174,5.2122,5.1868,5.0192,4.8162,4.5924,0.0,0.0,0.0,0.0,0.0,0.0,0.0,0.0,0.0,0.0,0.0,0.0,0.0,0.0,0.0,0.0,0.0,0.0,0.0,0.0,0.0,0.0,0.0,0.0,0.0,0.0,0.0,0.0,0.0,5.8806,5.9802,0.0,0.0,0.0,0.0,6.0868,6.1802,6.2979,6.4356,6.5255,6.5704,6.5704,6.5738,6.5773,6.5773,6.5807,6.5727,6.5534,6.5568,6.5568,6.5534,6.5338,6.5421,6.5734,6.5508,6.5508,6.5424,6.2059,6.02,5.9447,5.9344,5.8866,5.8319,5.8968,5.9206,5.9411,6.0198,6.0396,6.0279,6.0245,5.9512,5.8399,5.7591,5.6814,0.0,0.0,5.7499,5.7775,5.8395,5.9636,6.0673,6.0577,6.0378,6.0258,6.0424,5.9611,5.8363,0.0,5.6237,5.5542,5.3427,0.0,5.3857,5.2539,5.4313,5.5986,5.6396,5.7867,5.876,5.8367,5.8701,5.823,5.6606,5.6698,5.621,5.4909,5.4035,5.3506,5.3299,5.1296,5.0041,4.9639,4.7024,0.0,0.0,0.0,0.0,0.0,0.0,0.0,0.0,0.0,0.0,0.0,0.0,0.0,0.0,0.0,0.0,0.0,0.0,0.0,0.0,0.0,0.0,0.0,0.0,0.0,0.0,0.0,0.0,6.1014,6.2161,0.0,6.1294,6.2335,6.3163,6.3388,6.4781,6.5752,6.6152,6.6992,6.7446,6.729,6.7325,6.7325,6.7325,6.7325,6.7212,6.701,6.7168,6.6888,6.6289,6.621,6.6048,6.5684,6.5641,6.5641,6.5615,6.4515,6.3546,6.261,6.176,6.1244,6.0893,6.1168,6.127,6.1373,6.2127,6.1872,6.1132,6.0619,6.0279,5.9936,5.9516,5.9318,5.922,5.9197,5.9265,5.9434,5.9982,6.0516,6.0942,6.1247,6.1227,6.1187,6.1106,6.0784,6.0289,5.9547,5.8646,5.7701,5.6774,5.7176,5.733,5.6737,5.7474,5.8213,5.8514,5.8819,5.8959,5.8778,5.8914,5.8307,5.6606,5.6861,5.6039,5.3606,5.3597,5.3227,5.2091,5.1207,5.0303,4.9268,4.6992,4.5128,0.0,0.0,0.0,0.0,0.0,0.0,0.0,0.0,0.0,0.0,0.0,0.0,0.0,0.0,0.0,0.0,0.0,0.0,0.0,0.0,0.0,0.0,0.0,0.0,0.0,0.0,6.2821,6.313,6.4532,6.5058,6.4114,6.509,6.5745,6.5613,6.6623,6.7354,6.7476,6.7964,6.828,6.8201,6.8123,6.8083,6.8083,6.8083,6.8004,6.7919,6.8039,6.7763,6.7163,6.7163,6.6922,6.6441,6.6441,6.6441,6.6406,6.632,6.5868,6.5134,6.3804,6.2935,6.2435,6.227,6.1995,6.1819,6.2647,6.26,6.2067,6.1552,6.1385,6.1459,6.1234,6.131,6.1385,6.0973,6.0897,6.1032,6.1346,6.1408,6.1503,6.185,6.187,6.1723,6.1327,6.1339,6.1276,6.0878,5.9967,5.9183,5.9012,5.9168,5.9254,5.9128,5.9274,5.9508,5.9673,5.9452,5.9184,5.9004,5.9139,5.8614,5.7089,5.6894,5.5908,5.3664,5.3912,5.3349,5.1479,5.1438,5.0643,4.8842,4.7271,4.5755,4.4295,0.0,0.0,0.0,0.0,0.0,0.0,0.0,0.0,0.0,0.0,0.0,0.0,0.0,0.0,0.0,0.0,0.0,0.0,0.0,0.0,0.0,0.0,0.0,6.087,6.3231,6.5013,6.5049,6.6766,6.7472,6.6283,6.6883,6.7373,6.733,6.7361,6.7673,6.8362,6.8201,6.8201,6.8397,6.8201,6.8083,6.8083,6.8083,6.8083,6.8083,6.8083,6.8083,6.8083,6.8083,6.8083,6.8083,6.8083,6.8083,6.8049,6.7325,6.7014,6.6876,6.5324,6.4064,6.3004,6.2476,6.1647,6.0953,6.189,6.2719,6.3265,6.3076,6.3038,6.2962,6.277,6.2847,6.2889,6.2464,6.2503,6.2547,6.2352,6.2347,6.2347,6.2347,6.2156,6.1828,6.1155,6.124,6.1224,6.0491,6.0156,5.9944,5.9738,5.953,5.9329,5.9329,5.9567,0.0,5.9716,5.9716,5.954,5.9094,5.9452,5.9206,5.798,5.6916,5.5918,5.5146,5.5146,5.4139,5.1812,5.2188,5.1302,4.871,4.811,4.707,4.5568,0.0,0.0,0.0,0.0,0.0,0.0,0.0,0.0,0.0,0.0,0.0,0.0,0.0,0.0,0.0,0.0,0.0,0.0,0.0,0.0,0.0,0.0,6.3246,6.298,6.4237,6.5394,6.579,6.7478,6.8258,6.7477,6.8217,6.8597,6.8353,6.8502,6.8607,6.8628,6.8551,6.8551,6.8628,6.828,6.8162,6.8319,6.8162,6.8083,6.8083,6.8083,6.8083,6.8083,6.8083,6.8083,6.8083,6.8083,6.8083,6.8083,6.7876,6.7807,6.7635,6.6152,6.539,6.5,6.4284,6.3489,6.2795,6.2962,6.3131,6.3265,6.3227,6.3227,6.3189,6.2962,6.2586,6.2139,6.1719,6.1201,6.0799,6.0723,6.1163,6.1603,6.1603,6.1936,6.2195,6.1801,6.1696,6.1521,6.1158,6.0521,6.0117,6.0639,6.037,6.0083,6.0083,5.9892,0.0,5.9716,5.9716,5.9584,5.9241,5.954,5.9217,5.7993,5.8119,5.7278,5.5002,5.6163,5.6002,5.399,5.4589,5.3519,5.0469,4.9205,4.8238,0.0,0.0,0.0,0.0,0.0,0.0,0.0,0.0,0.0,0.0,0.0,0.0,0.0,0.0,0.0,0.0,0.0,0.0,0.0,0.0,0.0,0.0,6.3161,6.4596,6.5587,6.6152,6.669,6.7336,6.8643,6.9318,6.8783,6.9242,6.9342,6.893,6.9005,6.904,6.8892,6.8667,6.8667,6.8854,6.8358,6.8201,6.8397,6.8201,6.8083,6.8083,6.8083,6.8083,6.8083,6.8083,6.8083,6.8083,6.8083,6.8083,6.8083,6.8083,6.8083,0.0,0.0,0.0,0.0,0.0,6.3385,6.3007,6.3004,6.3174,6.3414,6.3414,6.3377,6.3265,6.3076,6.2692,6.2275,6.1854,6.1511,6.1176,6.11,6.14,6.1772,6.1772,6.1998,6.2048,6.1514,6.1475,6.1406,6.0935,6.0605,0.0,6.1053,6.0529,6.022,6.06,6.0239,5.9892,5.9979,5.9848,5.9628,5.9464,5.9628,5.9346,5.8542,5.8378,0.0,0.0,0.0,5.6808,5.5313,5.4623,0.0,0.0,0.0,5.092,5.0858,5.0509,0.0,0.0,4.6973,4.671,0.0,0.0,0.0,0.0,0.0,0.0,0.0,0.0,0.0,0.0,0.0,0.0,0.0,0.0,0.0,0.0,6.4472,6.5458,6.7998,6.8186,6.8342,6.8992,6.9912,7.0306,6.992,6.9884,6.9669,6.919,6.9115,6.9115,6.9115,0.0,0.0,0.0,0.0,6.8241,6.8435,6.8241,6.8123,6.8083,6.8083,6.8083,6.8083,6.8083,6.8083,6.8083,6.8083,6.8083,6.8083,6.8083,6.8083,6.8014,6.7359,6.6557,6.5508,6.348,6.2655,6.2483,6.2701,0.0,0.0,6.3563,6.3452,6.3265,6.3038,6.2893,6.2749,6.2363,6.2329,6.2377,6.2183,6.2212,6.2279,6.2206,6.2122,6.1789,6.0912,6.1079,6.1176,6.0439,6.0721,6.1119,6.1218,6.0382,6.0001,6.0903,6.0496,6.0152,6.0335,6.0044,5.9814,5.9716,0.0,0.0,5.9375,5.8247,5.7539,5.7496,5.7496,5.7131,5.6285,5.4009,5.2794,5.3,5.3724,5.4324,5.4783,5.4496,5.4367,5.4347,5.1204,5.0279,0.0,0.0,0.0,0.0,0.0,0.0,0.0,0.0,0.0,0.0,0.0,0.0,0.0,0.0,0.0,6.3825,6.4934,6.6128,6.7939,6.8121,6.8342,6.8922,6.9774,7.0097,6.9706,6.967,6.9597,6.9376,6.9339,6.9339,6.9339,6.9115,6.9078,6.9339,6.8854,6.859,6.8628,6.8435,6.8241,6.8083,0.0,0.0,6.8083,6.8083,6.8083,6.8083,6.8083,6.8083,6.8083,6.8083,6.8083,6.8083,6.7945,6.7428,6.6665,6.6251,6.5286,6.4218,6.4255,6.3979,6.3563,6.3414,6.334,6.3227,6.2847,6.2361,0.0,6.1579,6.1066,6.0592,6.0554,6.1028,6.1462,6.1234,6.1599,6.1923,6.1549,6.1447,6.1517,6.1941,6.1509,6.1285,6.1848,6.1183,6.0553,6.076,6.041,6.0109,6.0152,6.0411,6.0364,5.9781,6.0235,6.0364,5.9661,5.937,5.9208,5.9208,5.9032,5.8803,5.8675,5.7305,5.653,5.6575,5.6169,5.6141,5.6433,5.6141,5.6141,5.6283,5.3386,5.2113,0.0,0.0,0.0,0.0,0.0,0.0,0.0,0.0,0.0,0.0,0.0,5.8431,6.0074,0.0,6.3191,6.4852,6.555,6.6574,6.8541,6.8404,6.8518,6.9629,7.0127,7.0202,6.9778,6.9742,6.9669,6.9412,6.9412,6.9412,6.9412,6.919,6.919,6.9376,6.8932,6.8743,6.8892,6.8551,6.8397,6.8397,6.828,6.8319,6.8397,6.828,6.8241,6.8241,6.8123,6.8083,6.8083,6.8083,6.8083,6.8083,6.8083,6.7635,6.698,6.698,6.6255,6.5221,6.4841,6.4387,6.3896,6.3477,6.3152,6.2962,6.2731,6.2377,6.1995,6.1878,6.1569,6.1231,6.1231,6.1535,6.1902,6.2122,6.211,6.2058,6.2219,6.1814,6.1475,6.1717,6.1434,6.1218,6.1583,6.1234,6.0919,6.0919,6.0591,6.0335,6.0282,6.0446,6.0369,5.9749,6.0173,6.0237,5.9749,5.9716,5.9716,5.9716,5.9552,5.9508,5.9508,5.8831,5.846,5.846,5.7975,5.7739,5.7739,5.7255,5.7052,5.702,5.5272,5.426,0.0,0.0,0.0,0.0,0.0,0.0,0.0,5.7982,5.8869,5.9183,5.9769,6.0661,6.1991,6.3035,6.4224,6.5779,6.6025,6.6706,6.8782,6.8401,6.848,7.0086,7.0373,7.0306,6.9991,6.9885,6.9741,6.9486,6.9412,6.9412,6.9412,6.9227,6.9227,6.9376,6.9043,6.893,6.9115,6.874,6.859,6.8705,6.8513,6.8513,6.8705,6.8474,6.8397,6.8397,6.8162,6.8083,6.8083,6.8083,6.8083,6.8083,6.8083,6.7635,6.7014,6.7152,6.6635,6.5807,6.5152,6.4587,6.4054,6.347,6.3,6.2693,6.2654,6.2498,6.2381,6.2381,6.2381,6.2381,6.2381,6.2381,6.255,6.3045,6.2588,6.2085,6.2446,6.1907,6.1409,6.1326,6.1218,6.1152,6.1285,6.1185,6.1119,6.1119,6.0877,6.0633,6.0463,6.0551,6.0412,5.9848,6.0109,6.0141,5.9716,5.9716,5.9716,5.9716,5.9673,5.9628,5.9628,5.9375,5.9241,5.9241,5.9062,5.8882,5.8701,5.8069,5.7693,5.7435,5.6897,5.6217,5.7581,5.7936,5.8031,5.8844,5.868,5.8455,0.0,5.985,6.0331,5.9613,6.1264,6.2844,6.3018,6.3855,6.4769,6.5693,6.5836,6.6157,6.7157,6.7192,6.7695,6.9265,6.9913,7.0202,7.0167,6.9813,6.9598,6.9561,6.9486,6.9412,6.9412,6.9376,6.9376,6.9412,6.9339,6.9264,6.9115,6.904,6.8892,6.8705,6.8513,6.8513,6.8705,6.8474,6.8397,6.8397,6.8162,6.8083,6.8083,6.8083,6.8083,6.8083,6.8083,6.7635,6.7083,6.7738,6.7083,6.5876,6.5773,6.4763,6.3368,6.3148,6.2885,6.2688,6.2498,6.242,6.2381,6.2381,6.2381,6.2381,6.2381,6.2381,6.2341,6.2177,6.2104,6.1951,6.1606,6.1491,6.1542,6.1998,6.155,6.1318,6.1947,6.1516,6.1119,6.1119,6.0877,6.0717,6.0675,6.1064,6.1044,6.0131,6.0619,6.0618,5.9781,5.9716,5.9716,5.9716,5.9464,5.9331,5.9331,5.9152,5.9017,5.9017,5.9004,5.9004,5.8959,5.8637,5.8483,5.8437,5.8191,5.7221,5.8775,5.9828,6.0514,6.0869,6.1107,6.1254,6.1329,6.1863,6.2297,6.2195,6.3168,6.4033,6.3997,6.4765,6.539,6.5283,6.5703,6.6339,6.7163,6.7271,6.7669,6.8648,6.9504,7.0013,6.9991,6.9849,6.967,6.9487,6.9449,6.9412,6.9412,6.9412,6.9412,6.9412,6.9412,6.9339,6.9264,6.9153,6.9115,6.9118,6.8743,6.8705,6.893,6.8667,6.8513,6.8397,6.8162,6.8083,6.8083,6.8083,6.8083,6.8083,6.8083,6.7911,6.7669,6.798,6.7428,6.6531,6.6415,6.5808,6.4991,6.4318,6.3679,6.3176,6.3097,6.2753,6.2381,6.2381,6.2381,6.2381,6.2381,6.2381,6.2482,6.2803,6.2413,6.2018,6.2204,6.2099,6.1933,6.1625,6.1775,6.185,6.1625,6.141,6.1252,6.1119,6.1002,6.0877,6.0717,6.1056,6.1037,6.0496,6.05,6.0348,5.9968,5.9804,5.9716,5.9716,5.9596,5.9508,5.9508,5.9452,5.9331,5.9152,5.9363,5.9229,5.8746,5.8792,5.8701,5.8427,5.8367,5.7912,5.9918,6.1116,6.219,6.2622,6.2978,6.3235,6.3197,6.3452,6.3819,6.4102,6.4582,6.5019,6.5233,6.5649,6.5851,6.5591,6.5868,6.6392,6.7065,6.7074,6.7374,6.8314,6.8952,6.9471,6.9885,6.9956,6.9849,6.9451,6.9412,6.9412,6.9412,6.9412,6.9412,6.9412,6.9412,6.9412,6.9412,6.9264,6.9264,6.9376,6.8895,6.8892,6.919,6.8854,6.8628,6.8474,6.8201,6.8083,6.8083,6.8083,6.8083,6.8083,6.8083,6.798,6.7807,6.7935,6.7556,6.6897,6.678,6.6405,6.5852,6.5113,6.4403,6.3768,6.3565,6.3125,6.2685,6.2606,6.2646,6.2753,6.2876,6.295,6.3125,6.37,6.3202,6.2731,6.3023,6.2949,6.2565,6.1857,6.2073,6.2224,6.1525,6.1343,6.1293,6.1119,6.1119,6.1002,6.0835,6.0919,6.0919,6.0717,6.0335,6.0109,6.0109,5.9848,5.9716,5.9716,5.9716,5.9716,5.9716,5.9716,5.9628,5.9419,5.9508,5.9331,5.8792,5.8927,5.8778,5.8413,5.8413,5.8367,6.1234,6.1783,6.2663,6.4131,6.3948,6.356,6.4191,6.4464,6.4527,6.4404,6.5105,6.5982,6.6767,6.6303,6.6117,6.6992,6.6396,6.5931,6.6274,6.6061,6.6475,6.821,6.8222,6.8596,0.0,7.0097,7.0026,6.9634,6.9451,6.9412,6.9412,6.9412,6.9412,6.9412,6.9412,6.9412,6.9412,6.9376,6.9376,6.9376,6.8895,6.8932,6.9376,6.8895,6.8705,6.8667,6.828,6.8083,6.8083,6.8083,6.8083,6.8083,6.8083,6.7669,6.7118,6.7604,6.7319,6.6701,6.6701,6.5909,6.4937,6.4903,6.4782,6.4444,6.3734,6.3497,6.3383,6.3148,6.3269,6.3586,6.4091,6.4383,6.4546,6.4546,6.4416,6.4135,6.3927,6.3718,6.3496,6.3249,6.2685,6.2188,6.2188,6.1583,6.1119,6.1119,6.1119,6.1119,6.1119,6.0877,6.0717,6.0717,6.0335,6.0109,6.0109,5.9848,5.9716,5.9716,5.9716,5.9716,5.9716,5.9716,5.9716,5.9673,5.9419,5.9331,5.9286,5.9062,5.8837,5.861,5.861,5.8473,6.1795,6.257,6.3428,6.4341,6.4804,6.5023,6.5116,6.5151,6.5184,6.5119,6.5365,6.5714,6.6128,6.5982,6.5939,6.6348,6.6263,6.6115,6.6115,6.6115,6.6204,6.6453,6.7448,0.0,0.0,0.0,0.0,6.9487,6.9524,6.9487,6.9412,6.9412,6.9412,6.9412,6.9412,6.9412,6.9412,6.9264,6.919,6.919,6.8857,6.8781,6.893,6.8628,6.859,6.8705,6.828,6.8083,6.8083,6.8083,6.8083,6.8083,6.8083,6.7945,6.7738,6.7935,6.7358,6.6531,6.6922,6.6419,6.5678,6.6064,6.5771,6.5256,6.5019,6.4613,6.4099,6.3391,6.3674,6.4133,6.3653,6.4079,6.4613,6.4613,6.4293,6.4044,6.4128,6.4279,6.4181,6.3629,6.3781,6.3733,6.2598,6.2191,6.1816,6.1185,6.1119,6.1119,6.1119,6.1002,6.0961,6.0961,6.0708,6.042,6.0325,6.0109,5.9892,5.9716,5.9892,5.9892,5.9716,5.9892,5.9892,5.9716,5.9628,5.9464,5.9331,5.9241,5.9062,5.8837,5.8701,5.8564,6.2474,6.2999,6.3357,6.4015,6.4492,6.482,6.4628,6.4628,6.466,6.4531,6.466,6.4931,6.5565,6.5522,6.5617,6.6411,6.6294,6.6115,6.6115,6.6052,6.5971,6.5934,6.7107,6.7895,0.0,0.0,0.0,6.9449,6.9524,6.956,6.9412,6.9339,6.9339,6.9412,6.9339,6.9302,6.9302,6.9043,6.893,6.8854,6.8464,6.8388,6.859,6.8474,6.8474,6.859,6.8241,6.8083,6.8083,6.8083,6.7945,6.7738,6.798,6.7945,6.7704,6.7546,6.6862,6.6143,6.7005,6.667,6.5963,6.6617,6.6474,6.6034,6.5764,6.5358,6.4843,6.4042,6.4368,6.4911,6.4345,6.4814,6.5392,6.5392,6.5026,6.4732,6.49,6.4848,6.4547,6.4114,6.4118,6.3869,6.2774,6.2324,6.1867,6.1227,6.1119,6.1119,6.1119,6.1119,6.1119,6.1119,6.0877,6.0633,6.042,6.0282,6.0066,5.9716,5.9935,5.9979,5.9716,5.9892,5.9892,5.9716,5.9716,5.9628,5.9419,5.9419,5.9331,5.9107,5.8837,5.8701,6.3071,6.2963,6.2449,6.3199,6.3289,6.3137,6.2974,6.3105,6.314,6.2817,6.3172,6.3917,6.5251,6.503,6.5256,6.711,6.6527,6.5931,6.6213,6.58,6.5762,6.6508,6.7156,0.0,0.0,0.0,0.0,6.9412,0.0,6.956,6.9412,6.9227,6.919,6.9376,6.919,6.9078,6.9078,6.8816,6.859,6.8397,6.786,6.7895,6.8397,6.8397,6.8397,6.8397,6.8162,6.8083,6.8083,6.8083,6.7669,6.7118,6.7807,6.7669,6.701,6.6542,6.5944,6.5499,6.6929,6.6644,6.5764,6.6542,6.6812,6.6677,6.5967,6.5764,6.5647,6.5152,6.5396,6.5816,6.599,6.644,6.6812,6.677,6.6397,6.6095,6.6095,6.5421,6.4781,6.4781,6.3751,6.2881,6.284,6.204,6.1342,6.1161,6.1119,6.1119,6.1119,6.1119,6.1119,6.1119,6.0877,6.0633,6.042,6.0378,6.0239,5.976,5.9979,5.9979,5.9716,5.9716,5.9716,5.9716,5.9716,5.9716,5.9716,5.9716,5.9552,5.9331,5.9107,5.8914,6.2124,6.2261,6.2266,6.3049,6.3137,6.3073,6.3258,6.3689,6.4005,6.3648,6.4527,6.5309,6.5228,6.5417,6.5811,6.6267,6.6164,0.0,6.5575,6.551,6.5417,6.5227,6.6356,6.72,6.7376,6.8893,0.0,0.0,6.9524,6.956,6.9412,6.9339,6.9264,6.919,6.9115,6.9005,6.8781,6.859,6.8358,6.8162,6.8223,6.8262,6.8397,6.8397,6.8397,6.8397,6.8162,6.8083,6.8083,6.8083,6.798,6.7842,6.8014,6.798,6.7699,6.6946,6.6063,6.5391,6.6112,6.5698,6.5087,6.6406,6.6812,6.6779,6.6576,6.6542,6.6365,6.5531,6.5893,6.6356,6.5733,6.6196,6.677,6.6635,6.6345,6.6139,6.6345,6.5952,6.5601,6.5981,6.49,6.381,6.3475,6.2415,6.1506,6.1127,6.1119,6.1119,6.1119,6.1119,6.1119,6.1119,6.1044,6.0919,6.0633,6.0463,6.0249,6.0022,6.0066,5.9979,5.9716,5.9892,5.9892,5.9716,5.9716,5.9716,5.9716,5.9716,5.9673,5.9584,5.9331,5.9396,6.1659,6.1654,6.1477,6.1938,6.1703,6.1357,6.1508,6.196,6.2266,6.198,6.3054,6.4064,6.3956,6.4542,6.5156,6.5541,6.5775,6.5768,6.5447,6.5415,6.5249,6.474,6.6075,6.7023,6.7023,6.8681,6.9669,0.0,6.9524,6.956,6.9412,6.9192,6.9118,6.9227,6.893,6.8527,6.795,6.7523,6.7407,6.7601,6.7407,6.7657,6.828,6.828,6.828,6.8241,0.0,6.8083,6.8083,6.7738,6.7601,6.7601,6.7522,6.7517,6.7374,6.6302,6.5761,6.5607,6.5433,6.5237,6.5256,6.644,6.6812,6.6812,6.6812,6.6812,6.6703,6.6044,6.634,6.6669,6.6011,6.634,6.6728,6.655,6.6302,6.6095,6.6206,6.5721,6.5301,6.5344,6.469,6.3994,6.3657,6.2999,6.2291,6.1658,6.1583,6.145,6.1152,6.1384,6.1715,6.2013,6.2047,6.1962,6.1673,6.1376,6.1041,6.0739,6.0488,6.0239,5.9892,6.0022,5.9979,5.9716,6.004,6.0202,6.0202,6.0494,6.0623,6.0623,6.0354,6.0399,6.1396,6.1038,6.0437,6.0437,5.9713,5.902,5.9051,5.9501,5.9823,5.9591,6.0847,6.2091,6.2521,6.3215,6.4034,6.4975,6.5448,6.5629,6.551,6.5382,6.5149,6.4706,6.5935,6.6918,6.6987,6.8467,6.9418,6.9376,6.9451,6.9487,6.9376,6.8967,6.8822,6.9124,6.8527,6.7796,6.6842,6.6186,6.6221,6.6842,6.6186,6.6566,6.7807,6.7807,6.7842,6.7945,6.7945,6.7945,6.7911,6.7359,6.7083,6.6941,6.678,6.6701,6.6519,6.5233,6.5209,6.5746,6.4898,6.5087,6.5797,6.6576,6.6812,6.6812,6.6812,6.6812,6.677,6.6592,6.6677,6.677,6.6592,6.6677,6.6686,6.6507,6.6259,6.6009,6.5824,6.5357,6.481,6.427,6.4087,6.3911,6.37,6.3448,6.3064,6.2288,6.2122,6.1881,6.145,6.1781,6.2321,6.2951,6.2974,6.2888,6.2672,6.225,6.1801,6.1414,6.0952,6.0506,6.0152,6.0207,6.0109,5.989,6.0558,6.0915,6.0915,6.153,6.1821,6.1821,6.1639,6.1566,6.0603,6.007,5.9435,5.9435,5.8748,5.8123,5.8395,5.9681,6.0759,6.0318,6.2205,6.3731,6.3161,6.3589,6.4295,6.5118,6.5099,6.5113,6.5471,6.5382,6.508,6.4498,6.5409,6.6285,6.6808,6.7793,0.0,0.0,6.919,6.919,6.9153,6.8857,6.8388,6.7686,6.738,6.6846,6.6083,6.5945,6.5945,6.6083,6.5945,6.6014,6.6255,6.6255,6.66,6.7187,6.7187,0.0,6.7221,6.7704,6.7453,6.678,6.674,6.6582,6.6251,6.4574,6.4461,6.5032,6.4729,6.5087,6.5797,6.6576,6.6812,6.6812,6.6812,6.6812,6.677,6.677,6.677,6.677,6.6728,6.6677,6.6507,6.6259,6.5999,6.5824,6.578,6.6019,6.61,6.5804,6.4925,6.4161,6.3986,6.2741,6.1867,6.2164,6.1682,6.1682,6.2775,6.198,6.1351,6.1483,6.1483,6.1483,6.1399,6.1108,6.0915,6.083,6.0571,6.042,6.0335,6.0707,6.0901,6.0857,6.1361,6.1627,6.1627,6.1757,6.1821,6.1821,6.1776,6.1962,6.0364,5.9706,5.8948,5.8948,5.8035,5.7359,5.8018,5.9011,5.996,6.0316,6.1884,6.3019,6.2657,6.3096,6.3805,6.4534,6.4825,6.5095,6.5436,6.5346,6.5114,6.4775,6.5759,6.6566,6.688,6.8148,6.8954,6.8895,6.8892,6.8892,6.8892,6.8433,6.7996,6.7722,6.7342,6.675,6.5876,6.5876,6.5669,6.5255,6.5255,6.5497,6.5876,6.5876,6.6083,6.6428,6.6807,6.698,6.7014,6.7276,6.7295,6.7216,6.6599,6.6541,6.6589,6.4856,6.4945,6.5752,6.4891,6.5324,6.6339,6.6711,6.6812,6.6812,6.6812,6.6812,6.6812,6.6812,6.6812,6.677,6.6677,6.6592,6.6421,6.6042,6.578,6.5603,6.5603,6.578,6.5911,6.5746,6.5267,6.4843,6.4747,6.4019,6.3468,6.3382,6.304,6.2908,6.3282,6.2676,6.2378,6.2775,6.2808,6.2808,6.2808,6.2723,6.2273,6.1513,6.1725,6.1663,6.1139,6.1612,6.1828,6.1662,6.2152,6.2372,6.2372,6.2761,6.2955,6.2955,6.2955,6.3056,6.0294,5.9334,5.8241,5.8479,5.7417,5.6586,5.7334,5.8136,5.8966,5.9837,6.1071,6.1978,6.195,6.241,6.3004,6.3762,6.4416,6.4972,6.5187,6.524,6.5078,6.4775,6.5935,0.0,6.6564,6.8183,0.0,6.8499,6.8423,6.8385,6.8347,6.7791,6.7461,6.7561,6.7031,6.6374,6.5596,6.5462,6.5083,6.4462,6.4462,6.4807,6.5393,6.5393,6.5462,6.5669,6.6255,6.6497,6.6531,6.6642,6.6901,6.713,6.6146,6.612,6.6452,6.4762,6.5053,6.617,6.5019,6.5561,6.6812,6.6812,6.6812,6.6812,6.6812,6.6812,6.6812,6.6812,6.677,6.6686,6.655,6.6421,6.6249,6.5824,6.5559,6.5425,6.5425,6.547,6.5514,6.5514,6.5382,6.5293,6.5293,6.515,6.4917,6.4519,6.432,6.4088,6.3614,6.3415,6.3657,6.4343,6.4233,6.4133,6.4133,6.4133,6.3637,6.252,6.2984,6.2921,6.2154,6.2629,6.2802,6.2501,6.2958,6.3163,6.3117,6.3732,6.4024,6.4024,6.4024,6.3991,6.0153,5.8558,5.6803,5.7658,5.6706,5.5642,5.586,5.7355,5.8731,5.8831,6.0536,6.195,6.1812,6.1968,6.234,6.3136,6.3675,6.4081,6.4369,6.4921,6.498,6.4109,6.5197,0.0,6.5252,6.6938,6.7957,6.7733,6.7544,6.7354,6.7161,6.7092,6.6665,6.5778,6.5214,6.48,6.4538,6.4077,6.3772,6.3703,6.3703,6.3738,6.3807,6.3807,6.4186,6.4807,6.4876,0.0,0.0,6.6195,6.6205,6.5426,6.5119,6.4918,6.4654,6.3159,6.3531,6.4783,6.4647,6.5561,6.6812,6.6812,6.6812,6.6812,6.6812,6.6812,6.6812,6.6812,6.6677,6.6507,6.6507,6.6206,6.578,6.5514,6.5425,6.5425,6.5425,6.5603,6.5736,6.5736,6.5377,6.5039,6.5039,6.4333,6.3972,6.4581,6.4071,6.3819,6.4243,6.3843,6.3753,6.4343,6.3769,6.3415,6.3415,6.3415,6.3348,6.3216,6.3282,6.3239,6.3173,6.3606,6.378,6.3445,6.3936,6.4096,6.3926,6.3991,6.4024,6.4024,6.4024,6.4085,5.9642,5.8128,5.6488,5.6865,5.6225,5.5672,5.6393,5.7306,5.8359,5.9606,6.0547,6.129,6.1823,6.1812,6.1924,6.2536,6.2755,6.3097,6.3736,6.4162,6.4383,6.4393,6.5268,6.5688,0.0,0.0,6.693,6.663,6.6516,6.6232,6.5635,6.56,6.5631,6.5727,6.5079,6.4666,6.459,6.4356,6.4048,6.36,6.36,6.36,6.36,6.36,6.3772,6.4048,6.4346,0.0,0.0,6.5852,6.6137,6.5898,6.5977,6.6016,6.5797,6.4749,6.5019,6.5865,6.5425,6.5933,6.6812,6.6812,6.6812,6.6812,6.6812,6.6686,6.6635,6.6635,6.643,6.6215,6.6086,6.5824,6.5514,6.5425,6.5425,6.5425,6.5425,6.547,6.5559,6.5559,6.5415,6.5303,6.5477,6.507,6.4839,6.5313,6.5114,6.4927,6.5006,6.4983,6.496,6.5006,6.4365,6.3935,6.3935,6.4332,6.42,6.3338,6.41,6.4365,6.4011,6.4409,6.4536,6.4243,6.4309,6.4193,6.4024,6.4024,6.4038,6.4146,6.4146,6.4286,5.9648,5.8351,5.6956,5.7232,5.6621,5.62,5.7049,5.7448,5.8049,5.9465,6.0241,6.0829,6.1434,6.1612,6.171,6.1825,6.1991,6.2355,6.2984,6.3406,6.3896,6.4498,6.5233,6.5512,6.5052,6.5677,6.6086,6.5914,6.5745,6.5403,6.4813,6.4534,6.47,6.542,6.4735,6.4459,6.4628,6.4459,6.408,6.3526,6.3563,6.3563,6.3526,6.3526,6.3526,6.3523,6.3851,0.0,0.0,6.5312,6.5806,6.5995,6.6336,6.6474,6.6406,6.5628,6.5831,6.6406,6.5865,6.617,6.677,6.6728,6.6686,6.6686,6.6643,6.6558,6.6464,6.6421,6.6215,6.5965,6.5736,6.5559,6.5425,6.5425,6.5425,6.5425,6.5425,6.5425,6.5425,6.5425,6.547,6.5603,6.5867,6.5692,6.5647,6.5955,6.5955,6.5824,6.5559,6.5736,6.578,6.547,6.4962,6.4697,6.4697,6.5127,6.4995,6.3968,6.4862,6.5194,6.4697,6.497,6.4963,6.4702,6.4426,6.4286,6.4226,6.4226,6.4333,6.4656,6.4656,6.4748,6.0326,5.9436,5.8199,5.9163,5.8237,5.7156,5.7504,5.7699,5.7782,5.7845,5.9394,6.0702,6.0464,6.1196,6.1644,6.1075,6.1579,6.2021,6.2117,6.2785,6.3555,6.4146,6.4841,6.5015,6.4285,6.4876,6.5459,6.5845,6.534,0.0,6.5001,6.4125,6.387,6.4401,6.3867,6.3867,6.4401,6.3867,6.3489,6.3302,6.3489,6.3489,6.3302,6.3302,6.3302,6.3265,0.0,0.0,0.0,6.4449,6.5022,6.5244,6.5556,6.5696,6.5595,6.4884,6.5087,6.5696,6.5696,6.617,6.677,6.6592,6.6507,6.6464,6.6182,6.6302,6.6464,6.6182,6.5955,6.5736,6.547,6.5425,6.5425,6.5425,6.5425,6.5425,6.5425,6.5425,6.5425,6.5425,6.5603,6.5867,6.6052,6.5955,6.5955,6.6421,6.6259,6.6009,6.5824,6.5965,6.5922,6.547,6.5392,6.5392,6.5392,6.5425,6.5392,6.5392,6.5392,6.5425,6.5392,6.5234,6.4963,6.4702,6.4426,6.4426,6.4702,6.4702,6.493,6.5381,6.5381,6.5381,5.8259,5.751,5.6657,5.6934,5.7034,5.7049,5.6827,5.7314,5.7836,5.8052,5.8502,5.924,6.0431,6.0588,6.0776,6.1473,6.1623,6.1915,6.2647,6.3031,6.352,6.4146,6.4173,6.4025,0.0,0.0,6.3936,6.451,6.4083,6.3907,6.4055,6.374,6.3666,6.387,6.3552,6.3514,6.368,6.333,6.3152,6.3114,6.3152,6.3152,6.3114,6.3114,6.3114,0.0,0.0,6.2923,6.3178,6.4251,6.4822,6.5085,6.6091,6.644,6.644,6.6203,6.6271,6.6432,6.6306,6.639,6.655,6.6302,6.6259,6.6215,6.5955,6.5955,6.5955,6.5692,6.5603,6.5514,6.5425,6.5425,6.5425,6.5425,6.5425,6.5425,6.5425,6.5425,6.5558,6.6055,6.6232,6.6545,6.7447,6.7278,6.7022,6.701,6.6778,6.639,6.5625,6.5736,6.578,6.547,6.5425,6.5425,6.5425,6.5425,6.5425,6.5425,6.5425,6.5425,6.5425,6.5336,6.5111,6.4702,6.493,6.4976,6.4702,6.5021,6.5336,6.5692,6.579,6.5878,5.7669,5.7406,5.6958,5.6958,5.7135,5.7256,5.6981,5.7181,5.7424,5.7505,5.7783,5.8421,5.968,5.9502,5.9621,6.1091,6.1094,6.1303,6.2473,6.2962,6.3345,6.3823,6.3858,0.0,0.0,6.3414,6.3526,6.3637,6.3489,6.3452,6.36,6.36,6.36,6.36,6.3689,6.3539,6.3189,6.3349,6.3235,6.2885,6.2962,6.3098,6.3294,6.3294,6.3465,0.0,6.3503,6.3543,0.0,6.4674,6.5108,6.5406,6.6422,6.6812,6.677,6.6686,6.672,6.6643,6.643,6.6345,6.6302,6.6086,6.5922,6.579,6.5692,6.5647,6.5603,6.547,6.5425,6.5425,6.5425,6.5425,6.5425,6.5425,6.5425,6.5425,6.5425,6.5425,6.5624,6.6386,6.6519,6.6841,6.798,6.7841,6.7584,6.7614,6.7213,6.6668,6.6024,6.5858,6.5692,6.5425,6.5425,6.5425,6.5425,6.5425,6.5425,6.5425,6.5425,6.5425,6.5425,6.5425,6.5291,6.4976,6.5246,6.5303,6.5213,6.5702,6.6042,6.6172,6.6215,6.6259,0.0,5.856,5.856,5.856,5.806,5.7616,5.771,5.7281,0.0,5.65,5.72,5.8007,5.8474,5.8196,5.8482,6.0145,6.0209,6.0508,6.198,6.2718,6.3132,6.3346,6.393,0.0,6.3152,6.3673,6.3856,6.334,6.3452,6.3563,6.36,6.36,6.36,6.36,6.4099,6.3943,6.3038,6.3683,6.3601,6.2727,6.2953,6.3329,6.3775,6.3809,6.4217,0.0,6.4627,6.4667,6.4896,6.5338,6.5718,6.6011,6.6558,6.6736,6.6728,6.6592,6.6464,6.6421,6.6139,6.6095,6.6052,6.5824,6.5603,6.5425,6.5425,6.5425,6.5425,6.5425,6.5425,6.5425,6.5425,6.5425,6.5425,6.5425,6.5425,6.5425,6.5492,6.5492,6.5724,6.6519,6.6684,6.6962,6.7999,6.7916,6.7882,6.8271,6.7613,6.6967,6.6867,6.6279,6.5758,6.5425,6.5425,6.5425,6.5425,6.5425,6.5425,6.5425,6.5425,6.5392,6.547,6.547,6.547,6.547,6.5437,6.5702,6.6182,6.6643,6.6812,6.6812,6.6635,6.6507,5.6984,0.0,5.7083,5.7083,5.7358,5.7501,0.0,5.7317,5.7397,5.6814,5.6823,5.7334,5.8796,5.7974,5.8113,6.131,6.1206,6.128,6.282,6.352,6.3864,6.3785,6.3749,6.3675,6.3489,6.3076,6.3038,6.3489,6.3152,6.3114,6.36,6.3452,6.3377,6.3377,6.4023,6.4019,6.3227,6.3247,6.3056,6.2727,6.331,6.3605,6.3611,6.4153,6.4525,6.4661,6.4005,6.4113,6.4661,6.4174,6.4722,6.5779,6.594,6.6179,6.655,6.6507,6.6345,6.6139,6.5955,6.5867,6.5824,6.5603,6.547,6.5425,6.5425,6.5425,6.5425,6.5425,6.5425,6.5425,6.5425,6.5425,6.5425,6.5425,6.5425,6.5558,6.6154,6.6254,6.6651,6.7943,6.8175,6.85,6.9497,6.949,6.9197,6.8957,6.8539,6.787,6.6742,6.6476,6.61,6.5492,6.5425,6.5425,6.5425,6.5425,6.5425,6.5425,6.5425,6.5526,6.5922,6.578,6.578,6.5922,6.6062,6.644,6.6972,6.7056,6.7097,6.7097,6.6846,6.6728,5.6948,5.7055,5.7055,5.7055,5.7358,5.7537,5.7326,5.7281,5.7209,5.6778,5.694,5.7504,5.8665,5.8231,5.8501,6.0985,6.1149,6.146,6.2927,6.3622,6.3892,6.3783,6.3673,6.36,0.0,6.3227,6.3251,6.3933,6.3357,6.3247,6.3783,6.3508,6.3302,6.3302,6.3755,6.3752,6.3152,6.3303,6.3319,6.3203,6.3493,6.3786,6.4038,6.4783,6.5087,6.5087,6.4681,6.4749,6.5053,6.4309,6.4681,6.5696,6.5613,6.596,6.6464,6.6249,6.6086,6.5955,6.5692,6.5603,6.5603,6.547,6.5425,6.5425,6.5425,6.5425,6.5425,6.5425,6.5425,6.5425,6.5425,6.5425,6.5425,6.5425,6.5657,6.6022,6.6374,6.6784,6.7347,6.8473,6.8672,6.8984,6.9855,6.9893,6.9713,6.9456,6.8998,6.8407,6.7612,6.6949,6.6353,6.5955,6.5922,6.5922,6.5922,6.622,6.6287,6.5955,6.5769,6.6001,6.6598,6.6383,6.6302,6.6397,6.6652,6.6854,6.7014,6.7139,6.718,6.718,6.7056,6.7184,5.7421,5.7695,5.7739,5.754,5.7476,5.7504,5.7616,5.7244,5.6833,5.6868,5.7468,5.8164,5.8714,5.8748,5.9102,6.0438,6.0926,6.1604,6.2962,6.344,6.3637,6.3673,6.36,0.0,6.3526,6.3452,6.3652,6.4118,6.3528,6.3388,6.3922,6.3494,6.3265,6.3302,6.3489,6.3414,6.3038,6.3499,6.3684,6.3645,6.3685,6.4045,6.4647,6.5459,6.5865,6.5865,0.0,0.0,6.5756,6.4715,6.4884,6.579,6.5379,6.5733,6.6378,6.5955,6.578,6.5692,6.547,6.5425,6.5425,6.5425,6.5492,6.5591,6.5591,6.5657,6.5757,6.5757,6.5591,6.5459,6.5558,6.5591,6.5624,6.5724,6.622,6.6717,6.6817,6.7347,6.8009,6.8705,6.8871,6.9069,6.9666,6.9798,6.9798,6.9798,6.9268,6.8804,6.8705,6.7612,6.6817,6.6684,6.6684,6.6684,6.6684,6.7235,6.7413,6.6974,6.6601,6.6665,6.7244,6.7006,6.6854,6.6812,6.7056,6.7097,6.6854,6.7097,6.718,6.718,6.7275,6.7649,5.7333,5.8144,5.8296,5.7355,5.7004,5.6917,5.6946,5.7021,5.727,5.8067,5.8545,5.9166,6.0244,5.9417,5.9418,6.1917,6.2537,6.2962,6.3832,6.3752,6.371,6.3967,0.0,6.3114,6.3114,6.277,6.2722,6.294,6.2683,6.2688,6.3171,6.3106,6.3114,6.3265,6.3489,6.3489,6.3265,6.3364,6.3209,6.2897,6.4081,6.464,6.4647,6.6034,6.6643,6.6576,0.0,6.5369,6.6179,6.3721,6.4153,6.6246,6.4959,6.5169,6.6139,6.5911,6.5647,6.547,6.5425,6.5425,6.5425,6.5425,6.5823,6.6353,6.6353,6.6784,6.7235,6.7235,6.6386,6.5558,6.6187,6.6353,6.6519,6.7102,6.7334,6.7612,6.8241,6.844,6.8738,6.9467,6.9633,6.9666,6.9765,6.9798,6.9798,6.9798,6.9699,6.9401,6.8771,6.8473,6.8109,6.7466,6.74,6.74,6.74,6.7499,6.7995,6.8906,6.8147,6.7681,6.7574,6.7261,6.7056,6.6812,6.7056,6.718,6.7139,6.718,6.718,6.7214,6.7582,6.7836,5.7715,5.8573,5.8738,5.8273,5.8189,5.8159,5.7912,5.7686,5.7659,5.8196,5.8615,5.9051,5.9642,6.0142,6.0967,6.2471,6.296,6.3086,6.2908,6.3411,6.3999,0.0,0.0,6.3171,6.4002,6.3162,6.2785,6.3387,6.3008,6.2863,6.3232,6.309,6.3,6.2962,6.3189,6.3189,6.2962,6.2962,6.309,6.3305,6.4273,6.4661,6.4647,6.6136,6.6576,6.617,0.0,6.5234,6.5194,6.3971,6.4084,6.5051,6.4656,6.5106,6.5911,6.5692,6.5514,6.5425,6.5425,6.5425,6.5425,6.5425,6.5922,6.6519,6.6519,6.7003,6.7566,6.7566,6.7102,6.6684,6.7016,6.7069,6.7168,6.7499,6.791,6.8274,6.8606,6.9003,6.9368,6.9732,6.9798,6.9798,6.9798,6.9798,6.9798,6.9798,6.9798,6.9666,6.9334,6.8937,6.8572,6.8241,6.8208,6.8208,6.8208,6.8772,6.9127,6.9054,6.9233,6.914,6.8571,6.8574,6.837,6.8064,6.787,6.7717,6.759,6.7717,6.7758,6.7792,6.8413,6.8913,5.7754,5.8424,5.8588,5.8976,5.9223,5.9289,5.9089,5.8667,5.8444,5.8919,5.939,5.9689,5.9736,6.1348,6.2753,6.306,6.3324,6.3277,6.2569,6.338,6.4247,6.4666,6.3692,6.344,6.4669,6.3521,6.2969,6.3704,6.3226,6.2969,6.3226,6.3037,6.2847,6.2693,6.2885,6.2923,6.2727,6.2727,6.296,6.3464,6.4254,6.4613,6.4647,6.6136,6.6508,6.5933,6.5722,6.5192,6.4446,6.4102,6.4011,6.4136,6.4324,6.497,6.5692,6.547,6.5425,6.5425,6.5425,6.5425,6.5381,6.5336,6.601,6.6738,6.6692,6.7367,6.8142,6.8142,6.8142,6.8109,6.791,6.7877,6.791,6.8076,6.8539,6.8937,6.8937,6.9401,6.9798,6.9798,6.9798,6.9798,6.9798,6.9798,6.9798,6.9798,6.9798,6.9798,6.9798,6.9301,6.8937,6.8937,6.8937,6.8984,6.9124,7.0088,7.032,6.9434,7.0144,7.0361,6.9782,6.9663,6.9476,6.9166,6.8761,6.8456,6.8166,6.837,6.8456,6.849,6.9237,6.9882,5.6702,5.7198,5.7228,5.8437,5.8976,5.9307,5.9628,5.9636,6.0021,6.149,6.2108,6.2352,6.2579,6.352,6.4251,6.4277,6.4198,6.4244,6.4462,6.429,6.4243,6.4666,6.4136,6.3864,6.4132,6.329,6.2727,6.2795,6.2571,6.2454,6.2482,6.261,6.2693,6.2727,6.2885,6.2923,6.2727,6.2727,6.261,6.2522,6.3937,6.4613,6.4647,6.6136,6.6779,6.6669,6.5792,6.5203,6.4823,6.3484,6.3593,6.459,6.3915,6.4418,6.5425,6.5425,6.5425,6.5425,6.5425,6.5425,6.5381,6.5189,6.6238,6.7499,6.7268,6.8399,6.9633,6.9633,6.9633,6.9467,6.8804,6.8606,6.8771,6.9467,6.9666,6.9699,6.9699,6.9765,6.9798,6.9798,6.9798,6.9798,6.9798,6.9798,6.9798,6.9798,6.9798,6.9798,6.9798,6.9732,6.9699,6.9699,6.9699,6.9888,7.0356,7.086,7.1221,7.1386,7.1061,7.0815,7.0781,6.9893,6.9433,6.939,6.9322,6.9237,6.9011,6.9011,6.9055,6.9089,6.9799,7.0172,5.5752,5.6686,5.7282,5.89,5.9549,5.9826,6.014,6.0281,6.0594,6.1433,6.171,6.1953,6.2471,6.3013,6.3546,6.4298,6.5176,6.542,6.4431,6.4991,6.5475,6.5267,6.4401,6.4103,6.4932,6.4011,6.3203,6.2727,6.3057,6.3012,6.2415,6.2576,6.2615,6.2498,6.2425,6.2662,6.321,6.3091,6.3288,6.3768,6.4343,6.4613,6.4647,6.6136,6.6728,6.6601,6.6246,6.5588,6.4777,6.4209,6.4181,6.4497,6.4663,6.5105,6.5647,6.547,6.5425,6.5425,6.5425,6.5336,6.5189,6.5099,6.6133,6.7367,6.71,6.8357,6.9798,6.9607,6.9703,6.9732,6.9434,6.9368,6.9434,6.9732,6.9798,6.9798,6.9798,6.9798,6.9798,6.9798,6.9798,6.9798,6.9798,6.9798,6.9798,6.9798,6.9798,6.9798,6.9798,6.9798,6.9798,6.9798,7.0049,7.0423,7.0894,7.1423,7.1864,7.2253,7.197,7.1705,7.1575,7.1215,7.1002,7.1002,7.0395,7.0061,6.9974,6.9974,6.9887,6.9789,7.0677,7.1005,5.4825,5.6,5.6972,5.8522,5.9397,6.0028,6.0669,6.0809,6.1016,6.1842,6.2012,6.2146,6.2906,6.3117,6.3576,6.4487,6.5598,6.5867,6.4645,6.5483,6.6137,6.5862,6.4834,6.4517,6.5417,6.4249,6.3237,6.2761,6.3051,6.2967,6.2415,6.2459,6.2459,6.2381,6.2229,6.2459,6.3159,6.3161,6.3492,6.412,6.4079,6.4356,6.4986,6.6237,6.6686,6.6507,6.6421,6.577,6.4681,6.4637,6.4407,6.41,6.4796,6.5183,6.5315,6.5105,6.5227,6.5425,6.5425,6.5246,6.5054,6.5008,6.5995,6.71,6.6897,6.8119,6.9655,6.943,6.9607,6.9798,6.9798,6.9798,6.9798,6.9798,6.9798,6.9798,6.9798,6.9798,6.9798,6.9798,6.9893,6.996,7.0096,7.021,7.0324,7.0461,7.0494,7.0394,7.0163,7.0129,7.0063,6.9831,7.019,7.0699,7.1165,7.1688,7.2202,7.2671,7.2544,7.2373,7.2202,7.2115,7.2072,7.2072,7.1429,7.1026,7.094,7.094,7.0896,7.0755,7.144,7.1634,5.3923,5.5044,5.6091,5.6982,5.8272,5.9699,6.1259,6.1219,6.1414,6.3253,6.3452,6.3542,6.4263,6.4435,6.4599,6.5084,6.5378,6.5456,6.5221,6.567,6.6065,6.6274,6.5465,6.4983,6.5181,6.3694,6.2727,6.2693,6.2268,6.215,6.2381,6.215,6.215,6.2381,6.2381,6.2381,6.2415,6.2892,6.3107,6.3141,6.2937,6.3833,6.5696,6.644,6.6686,6.6464,6.6215,6.5564,6.4681,6.4497,6.3935,6.3338,6.41,6.4365,6.4365,6.4332,6.4763,6.5392,6.5425,6.5279,6.5054,6.4793,6.5685,6.6817,6.6611,6.788,6.9382,6.9382,6.9607,6.9798,6.9798,6.9798,6.9798,6.9798,6.9798,6.9798,6.9798,6.9798,6.9798,6.9798,6.9988,7.0348,7.084,7.1117,7.1446,7.1934,7.2018,7.172,7.0991,7.0891,7.0593,6.9864,7.0236,7.0699,7.1165,7.1688,7.2202,7.2671,7.2713,7.2713,7.2713,7.2459,7.2331,7.2331,7.2331,7.2202,7.1985,7.1985,7.1985,7.1985,7.1985,7.1854,5.2453,5.3852,5.5179,5.6357,5.7773,5.9254,6.0625,6.1487,6.2385,6.3858,6.349,6.3162,6.4034,6.4054,6.421,6.4886,6.5465,6.5886,6.5966,6.6487,6.6719,6.6342,6.5345,6.4782,6.4983,6.378,6.2803,6.2263,6.2461,6.2367,6.1944,6.1957,6.2037,6.215,6.215,6.2459,6.3193,6.3,6.3295,6.4153,6.4287,6.4757,6.5488,6.5185,6.5497,6.6182,6.6139,6.5744,6.5183,6.5138,6.4399,6.3338,6.3892,6.3903,6.367,6.3958,6.4333,6.4763,6.5036,6.5054,6.4846,6.5106,6.5828,6.6676,6.6907,6.8127,6.9334,6.9188,6.943,6.9798,6.9798,6.9798,6.9798,6.9798,6.9798,6.9798,6.9798,6.9798,6.9931,7.0461,7.0641,7.0921,7.1554,7.1735,7.185,7.1985,7.2018,7.172,7.0991,7.0461,7.0173,7.027,7.0712,7.121,7.1688,7.2202,7.2544,7.2671,7.2713,7.2713,7.2713,7.2628,7.2586,7.2586,7.2416,7.2288,7.2202,7.2202,7.2159,7.1985,7.2159,7.2115,5.1718,5.3373,5.4892,5.5584,5.7398,5.938,6.0782,6.218,6.3308,6.3661,6.3708,6.3762,6.3859,6.4251,6.4511,6.4375,6.5461,6.6038,6.5196,6.5977,6.6309,6.5569,6.4735,6.4174,6.422,6.3269,6.2461,6.1911,6.2111,6.2096,6.1743,6.175,6.1797,6.1877,6.1877,6.2152,6.2778,6.2721,6.3049,6.3732,6.3568,6.3851,6.4707,6.5009,6.5505,6.6095,6.5878,6.5702,6.5559,6.547,6.4564,6.3305,6.3474,6.321,6.2779,6.3375,6.3881,6.4333,6.497,6.4976,6.48,6.5367,6.5896,6.642,6.702,6.8046,6.9091,6.8994,6.9285,6.9655,6.9798,6.9798,6.9798,6.9798,6.9798,6.9864,7.0163,7.0229,7.0461,7.1189,7.1452,7.1684,7.2316,7.2514,7.2613,7.2862,7.2382,7.1852,7.1388,7.0428,6.9988,7.0423,7.0894,7.1389,7.1942,7.2416,7.2713,7.2713,7.2713,7.2713,7.2713,7.2713,7.2713,7.2713,7.2544,7.2459,7.2459,7.2459,7.2416,7.2288,7.2416,7.2331,5.1405,5.3291,5.4939,5.4737,5.7118,5.9868,6.1278,6.3017,6.4038,6.3033,6.4103,6.4892,6.3916,6.4749,6.5196,6.3795,6.5317,6.5917,6.3579,6.472,6.541,6.4394,6.3843,6.3438,6.3175,6.2428,6.1877,6.1669,6.1465,6.1424,6.1628,6.1506,6.1465,6.1669,6.1669,6.1676,6.1609,6.214,6.2349,6.2283,6.1534,6.2007,6.3548,6.5386,6.6177,6.6095,6.5614,6.5559,6.5736,6.5514,6.4597,6.3328,6.3067,6.2519,6.1959,6.264,6.3375,6.4122,6.4982,6.5021,6.4787,6.5619,6.6009,6.6307,6.7085,6.7963,6.8748,6.8945,6.9237,6.9478,6.9751,6.9798,6.9798,6.9798,6.9798,6.9997,7.0726,7.0891,7.1123,7.1951,7.2313,7.2594,7.3127,7.3343,7.3641,7.4172,7.3028,7.2084,7.2018,7.0807,7.0149,7.0515,7.0985,7.1478,7.2029,7.2459,7.2713,7.2713,7.2713,7.2713,7.2713,7.2713,7.2713,7.2713,7.2713,7.2713,7.2713,7.2713,7.2713,7.2713,7.2713,7.2586,4.9623,5.1811,5.3923,5.3911,5.6764,5.9713,6.0524,6.2232,6.3758,6.3917,6.4464,6.5039,6.5162,6.5149,6.4877,6.4248,6.5174,6.5436,6.4052,6.5287,6.5766,6.4246,6.391,6.3575,6.293,6.2063,6.1506,6.1465,6.1293,6.1169,6.121,6.1334,6.1424,6.1465,6.1628,6.1441,6.0839,6.1373,6.135,6.075,6.1576,6.2239,6.2749,6.3375,6.4573,6.6095,6.5824,6.5647,6.547,6.5425,6.4807,6.3837,6.3538,6.3055,6.2486,6.3028,6.34,6.3764,6.4348,6.4472,6.4575,6.5926,6.6352,6.6695,6.8161,6.8895,6.9237,6.9285,6.9511,6.9751,6.9798,6.9798,6.9798,6.9798,6.9798,6.9997,7.0726,7.0891,7.1289,7.2614,7.2929,7.3161,7.3857,7.419,7.4406,7.4523,7.3592,7.2647,7.2084,7.1527,7.1151,7.1052,7.1512,7.2029,7.2501,7.2628,7.2713,7.2713,7.2713,7.2713,7.2713,7.2713,7.2713,7.2713,7.2713,7.2713,7.2713,7.2713,7.2713,7.2713,7.2713,7.2671,4.8802,5.064,5.2674,5.4298,5.6604,5.8667,5.9487,6.1217,6.2737,6.2985,6.3951,6.4701,6.4688,6.5,6.5108,6.4525,6.5361,6.5438,6.3701,6.4514,6.4606,6.2924,6.284,6.2673,6.2189,6.1699,6.1342,6.1252,6.1127,6.1119,6.1119,6.121,6.1252,6.1252,6.1375,6.1217,6.0817,6.0978,6.0854,6.049,6.1168,6.1857,6.2516,6.3008,6.4103,6.5517,6.488,6.4972,6.557,6.5072,6.4575,6.4156,6.389,6.3373,6.2771,6.3269,6.3531,6.3719,6.4303,6.4426,6.4561,6.6027,6.6387,6.6598,6.8324,6.8896,6.9091,6.9334,6.9478,6.9655,6.9798,6.9798,6.9798,6.9798,6.9968,7.0283,7.0777,7.1092,7.1606,7.2829,7.3111,7.3243,7.3608,7.3774,7.3874,7.3874,7.3443,7.2846,7.2084,7.2056,7.2042,7.1774,7.2233,7.2843,7.3697,7.3429,7.3222,7.3222,7.3222,7.3092,7.2705,7.2713,7.2713,7.2713,7.2713,7.2713,7.2713,7.2713,7.2713,7.2713,7.2713,7.2713,4.798,4.9542,5.1564,5.4922,5.6454,5.7463,5.8561,6.0151,6.142,6.1428,6.3101,6.437,6.3721,6.4783,6.5392,6.4464,6.5413,6.5404,6.2873,6.3267,6.3225,6.1542,6.164,6.168,6.1375,6.1383,6.1334,6.1119,6.1119,6.1119,6.1119,6.1119,6.1119,6.1119,6.1119,6.1053,6.092,6.0769,6.0609,6.0436,6.0699,6.1348,6.2307,6.304,6.3857,6.4738,6.3753,6.4208,6.5459,6.4652,6.4432,6.4476,6.4221,6.3693,6.3176,6.3543,6.3649,6.3747,6.4368,6.4491,6.463,6.6059,6.6484,6.6745,6.8258,6.8797,6.8896,6.9334,6.9577,6.9724,6.9949,7.0063,7.0129,7.003,7.0367,7.0765,7.0876,7.1341,7.1969,7.2895,7.326,7.3376,7.3426,7.3409,7.3376,7.3426,7.336,7.3061,7.243,7.2734,7.2888,7.2553,7.3048,7.3753,7.4662,7.4257,7.3981,7.3981,7.3981,7.3636,7.2954,7.292,7.2851,7.2713,7.2713,7.2713,7.2713,7.2713,7.2713,7.2713,7.2713,7.2713,4.5803,4.7987,5.1085,5.4696,5.6073,5.6873,5.8169,5.9385,6.0281,6.0451,6.2528,6.4334,6.4233,6.4998,6.5099,6.3314,6.4472,6.4548,6.1717,6.2665,6.3006,6.1368,6.19,6.2074,6.1194,6.1293,6.1334,6.1119,6.1119,6.1119,6.1119,6.1119,6.1119,6.1119,6.1119,6.0788,6.0158,6.0505,6.0304,5.9502,6.0781,6.1367,6.1326,6.2022,6.2879,6.3791,6.3606,6.3952,6.4575,6.4442,6.463,6.4967,6.4708,6.4381,6.4086,6.4017,6.3955,6.3955,6.4053,6.4427,6.5075,6.6126,6.7083,6.793,6.8958,6.9463,6.9655,6.9751,7.0214,7.0711,7.0759,7.1223,7.1554,7.0891,7.1127,7.1359,7.0975,7.1439,7.2167,7.2978,7.3808,7.4489,7.4736,7.4539,7.4489,7.4736,7.434,7.3941,7.3584,7.3998,7.4009,7.3116,7.3969,7.4446,7.3981,7.4464,7.4731,7.4731,7.4731,7.443,7.3671,7.3636,7.3326,7.2705,7.2713,7.2713,7.2713,7.2713,7.2713,7.2713,7.2713,7.2713,4.6133,4.8152,5.0492,5.3249,5.47,5.5729,5.6644,5.7746,5.8705,5.9183,6.0702,6.2189,6.3108,6.3833,6.4091,6.3567,6.407,6.3919,6.2133,6.2414,6.2405,6.1218,6.1559,6.1667,6.1152,6.1293,6.126,6.0919,6.1002,6.1002,6.0877,6.0877,6.0877,6.0877,6.0877,6.0712,6.0382,6.0468,6.0256,5.9781,6.135,6.1852,6.1334,6.1929,6.2429,6.2813,6.2813,6.3391,6.4399,6.4233,6.453,6.5054,6.4793,6.4656,6.4518,6.424,6.4146,6.4179,6.4038,6.4445,6.5157,6.6015,6.6826,6.772,6.8699,6.914,6.9481,7.0054,7.053,7.0991,7.1421,7.1753,7.1918,7.1587,7.1357,7.1143,7.0958,7.1059,7.144,7.2546,7.2944,7.3408,7.425,7.417,7.4022,7.417,7.4306,7.4306,7.3815,7.4647,7.4814,7.3819,7.4812,7.5464,7.5119,7.5395,7.5558,7.5558,7.5558,7.5223,7.4464,7.4016,7.3636,7.3291,7.292,7.2713,7.2713,7.2797,7.2797,7.2713,7.2797,7.2797,4.6298,4.7693,4.906,5.132,5.2881,5.4107,5.509,5.6288,5.7343,5.8041,5.9053,6.0142,6.1277,6.2438,6.3228,6.335,6.3476,6.3267,6.2274,6.204,6.1715,6.1185,6.121,6.1252,6.1119,6.1252,6.1177,6.0802,6.1002,6.1002,6.0802,6.0802,6.0802,6.0802,6.0802,6.0802,6.0802,6.0591,6.0378,6.0282,6.1732,6.2147,6.1708,6.2217,6.2487,6.2487,6.2288,6.2951,6.41,6.4123,6.444,6.4963,6.4793,6.4656,6.4472,6.4286,6.424,6.4193,6.4038,6.4574,6.5384,6.5934,6.6761,6.7702,6.8388,6.8797,6.9206,7.0223,7.0781,7.1258,7.2084,7.2415,7.2515,7.2316,7.1852,7.1355,7.0991,7.0878,7.1242,7.2362,7.2612,7.2993,7.3918,7.397,7.3872,7.3872,7.4122,7.437,7.4373,7.4978,7.5234,7.4751,7.5691,7.6326,7.612,7.6292,7.6395,7.6395,7.6395,7.6051,7.5214,7.4671,7.4188,7.3774,7.3257,7.292,7.2713,7.2922,7.2922,7.2797,7.2922,7.2922,4.5137,4.5567,4.6258,4.9251,5.0639,5.1795,5.4022,5.5408,5.6421,5.7284,5.8446,5.9258,5.8873,6.1239,6.2851,6.174,6.2289,6.249,6.1335,6.1152,6.1152,6.1119,6.1119,6.1119,6.1119,6.1119,6.1119,6.1077,6.1119,6.1119,6.1077,6.1077,6.1077,6.1077,6.1077,6.1077,6.1077,6.0835,6.0675,6.0675,6.1465,6.1923,6.2179,6.2908,6.3249,6.3216,6.252,6.2652,6.3415,6.41,6.453,6.4702,6.4702,6.4458,6.3991,6.4024,6.4024,6.4024,6.4024,6.4898,6.6064,6.6096,6.7183,6.8567,6.86,6.8797,6.9206,7.0223,7.0996,7.1821,7.2796,7.3541,7.3906,7.321,7.3011,7.2614,7.1189,7.1455,7.215,7.2912,7.3808,7.4506,7.4539,7.4787,7.4902,7.4902,7.417,7.4131,7.5777,7.5174,7.4966,7.5918,7.6661,7.6878,7.6189,7.6775,7.7154,7.7154,7.7154,7.6844,7.6085,7.6016,7.5292,7.3809,7.374,7.3395,7.2713,7.2922,7.3005,7.3005,7.3005,7.3005,4.4512,4.4808,4.5301,4.744,4.8693,4.9772,5.1234,5.2613,5.3968,5.5338,5.6505,5.747,5.8207,5.9975,6.1146,6.0587,6.0477,6.0617,6.1061,6.0688,6.0589,6.1053,6.121,6.1252,6.1119,6.121,6.097,6.0183,6.0738,6.0804,6.0183,6.0613,6.0844,6.0844,6.0844,6.0844,6.0844,6.1221,6.1094,6.0538,6.185,6.2486,6.2486,6.301,6.345,6.3749,6.3659,6.3779,6.4034,6.4452,6.4655,6.4656,6.4365,6.4132,6.4024,6.4024,6.4024,6.4088,6.4509,6.5287,6.6193,6.6647,6.7473,6.8351,6.8351,6.855,6.9059,7.0535,7.1292,7.1903,7.3425,7.3972,7.4005,7.3276,7.3111,7.2713,7.1223,7.1123,7.1569,7.2495,7.3177,7.3891,7.4704,7.4771,7.4771,7.4968,7.4783,7.5022,7.6007,7.5943,7.588,7.6066,7.6775,7.6957,7.6374,7.6864,7.7268,7.7446,7.7313,7.7075,7.6844,7.6361,7.5602,7.4533,7.4016,7.3429,7.2713,7.2922,7.3005,7.3005,7.3129,7.3129,4.364,4.3701,4.3926,4.5656,4.6585,4.7438,4.8754,5.021,5.1685,5.3035,5.4397,5.5601,5.6402,5.7879,5.9152,5.9562,5.9591,5.9838,6.063,6.0523,6.0456,6.0721,6.1078,6.1152,6.0755,6.1078,6.097,6.015,6.0738,6.0762,6.0026,6.0496,6.0802,6.0717,6.076,6.076,6.0717,6.1254,6.1254,6.0666,6.1782,6.2375,6.2475,6.301,6.3583,6.4178,6.4586,6.4597,6.4432,6.4679,6.4793,6.4656,6.4272,6.4038,6.4024,6.4024,6.4024,6.4121,6.4753,6.5513,6.6226,6.6938,6.7651,6.8201,6.8201,6.8351,6.8843,7.0561,7.1289,7.1869,7.3605,7.412,7.4089,7.3575,7.3276,7.2846,7.1852,7.1653,7.1768,7.2196,7.2977,7.3808,7.4605,7.4722,7.4771,7.4821,7.4881,7.5214,7.6007,7.6117,7.6245,7.6578,7.7036,7.7194,7.6807,7.7125,7.7357,7.7446,7.7313,7.7223,7.7223,7.674,7.612,7.5317,7.4843,7.4188,7.3429,7.3122,7.3005,7.3005,7.3129,7.3129,0.0,0.0,0.0,4.3957,4.4352,4.4784,4.6847,4.8418,4.973,5.0484,5.2319,5.3634,5.3235,5.4886,5.6843,5.8462,5.9565,6.0137,6.0033,6.0622,6.0788,6.0125,6.0655,6.0821,6.0092,6.0655,6.1053,6.1053,6.1053,6.0928,6.0685,6.0961,6.0961,6.0717,6.0961,6.0961,6.0717,6.0961,6.1119,6.1119,6.1119,6.1483,6.2288,6.2984,6.3746,6.4465,6.5127,6.5028,6.4465,6.4893,6.4963,6.4656,6.4426,6.4146,6.4024,6.4024,6.4024,6.4153,6.4785,6.5546,6.6258,6.6971,6.7651,6.8201,6.8201,6.8201,6.8543,7.0276,7.0953,7.1567,7.335,7.3968,7.4221,7.4221,7.3641,7.3144,7.3111,7.3144,7.2912,7.2183,7.3409,7.4506,7.4272,7.4622,7.4919,7.4672,7.443,7.4674,7.5986,7.572,7.5993,7.7421,7.7613,7.7613,7.7613,7.7613,7.7525,7.7223,7.7223,7.7223,7.7223,7.7223,7.6878,7.612,7.612,7.5706,7.4834,7.3641,7.304,7.304,7.3005,7.3005,4.2238,0.0,0.0,0.0,0.0,0.0,4.4658,4.5928,4.7357,4.9109,5.0343,5.1457,5.2492,5.3613,5.4486,5.4882,5.6453,5.825,5.9761,5.9728,5.9827,6.0688,6.0986,6.0821,6.0092,6.0191,6.0092,0.0,5.9993,6.025,6.0208,6.0779,6.1077,6.1002,6.1077,6.1044,6.1002,6.1077,6.1119,6.1119,6.1119,6.1781,6.3017,6.3216,6.3968,6.5127,6.5326,6.5237,6.4926,6.4819,6.4656,6.4379,6.4179,6.4038,6.4024,6.4024,6.4315,6.4833,6.5578,6.629,6.7003,6.7683,6.8039,6.8201,6.8201,6.8201,6.8446,6.9657,7.041,7.1364,7.3299,7.3968,7.4221,7.4221,7.4005,7.374,7.321,7.3508,7.3674,7.2945,7.3592,7.4322,7.4473,7.4423,7.4722,7.5566,7.5493,7.5709,7.6748,7.6792,7.6847,7.7233,7.749,7.7613,7.7613,7.771,7.771,7.749,7.749,7.7402,7.7223,7.7223,7.6878,7.612,7.6217,7.5604,7.4085,7.3756,7.3634,7.3802,7.3248,7.317,0.0,4.1725,4.1214,4.2236,0.0,0.0,4.3293,4.4334,4.5405,4.6671,4.7812,4.8825,4.9779,5.1096,5.2032,5.1963,5.3665,5.5828,5.8151,5.8727,5.9058,5.9539,5.9952,5.9893,5.9164,5.9363,5.9496,5.9363,5.9761,6.0125,6.0456,6.0771,6.0919,6.0919,6.1044,6.1077,6.0919,6.1044,6.1119,6.1119,6.1417,6.1848,6.2411,6.3338,6.4034,6.4564,6.516,6.5291,6.5054,6.4793,6.4564,6.4286,6.4085,6.4024,6.4056,6.4315,6.4624,6.5141,6.6193,6.6841,6.7294,6.7974,6.8201,6.8201,6.8201,6.8201,6.8413,6.9278,7.0145,7.1197,7.2937,7.3488,7.3706,7.4105,7.4221,7.4072,7.3641,7.3873,7.3972,7.3243,7.3874,7.4523,7.4423,7.4473,7.4787,7.5484,7.5662,7.5994,7.6782,7.7088,7.7268,7.749,7.7623,7.771,7.771,7.7841,7.7798,7.7446,7.7402,7.7357,7.7223,7.7223,7.7016,7.6568,7.6789,7.6158,7.4556,7.416,7.3979,7.3987,7.3968,7.3927,0.0,0.0,0.0,4.2365,4.2009,0.0,4.2613,4.3422,4.3975,4.404,4.5212,4.6225,4.6225,4.7997,4.9449,4.9319,5.085,5.3045,5.5787,5.7496,5.823,5.7602,5.825,5.8502,5.7839,5.8403,5.9065,5.9694,5.9852,6.025,6.0912,6.0769,6.0717,6.0717,6.0961,6.1002,6.076,6.0961,6.1119,6.1119,6.1848,6.1881,6.1417,6.3471,6.4067,6.357,6.4818,6.5279,6.5054,6.4793,6.4518,6.4286,6.4085,6.4024,6.4088,6.4721,6.5012,6.5351,6.6711,6.723,6.7392,6.8007,6.8201,6.8201,6.8201,6.8201,6.8363,6.9076,6.996,7.1001,7.2327,7.2676,7.2942,7.3855,7.4155,7.4188,7.4122,7.4155,7.4023,7.3343,7.414,7.4771,7.4322,7.4622,7.4968,7.5048,7.5436,7.5947,7.6541,7.6953,7.7357,7.7763,7.7807,7.7807,7.785,7.7893,7.7676,7.7268,7.7223,7.7223,7.7223,7.7223,7.7223,7.7223,7.7333,7.6834,7.5596,7.4872,7.4237,7.3851,7.486,7.4911,4.4773,4.3154,4.1916,4.2846,4.2558,0.0,4.2555,4.3232,4.3881,4.43,4.4754,4.5081,4.5212,4.6092,4.6519,4.5821,4.7438,5.0219,5.4287,5.5298,5.6098,5.7568,5.7906,5.7939,5.7806,5.7906,5.8071,5.8204,5.9135,5.9738,5.9977,6.0421,6.0802,6.1002,6.1044,6.1044,6.1002,6.1044,6.1119,6.1119,6.1848,6.2453,6.2908,6.3902,6.4597,6.5028,6.5102,6.5144,6.5054,6.4564,6.4379,6.4286,6.4085,6.4024,6.4088,6.4721,6.5384,6.6031,6.6873,6.7553,6.8039,6.8169,6.8201,6.8201,6.8201,6.8201,6.8363,6.9076,6.9603,7.0297,7.1942,7.2525,7.2793,7.3226,7.374,7.4005,7.3442,7.3773,7.4188,7.4005,7.4172,7.4372,7.4473,7.4423,7.4738,7.596,7.5865,7.6135,7.7223,7.7099,7.7009,7.7313,7.7323,7.7411,7.7623,7.7798,7.7798,7.7535,7.7525,7.7402,7.7223,7.7223,7.7223,7.7223,7.6681,7.6141,7.5596,7.6076,7.5532,7.4029,7.4903,7.5273,4.538,4.4084,4.3162,4.3512,4.3229,0.0,0.0,4.3073,4.3233,4.3493,4.3427,4.3389,4.3389,4.3871,4.4089,4.3578,4.4851,4.6739,4.926,5.1914,5.4129,5.565,5.5661,5.5842,5.6647,5.6382,5.6614,5.7707,5.901,5.9828,5.9828,6.0522,6.0961,6.1119,6.1119,6.1119,6.1119,6.1119,6.1002,6.0919,6.2137,6.2666,6.2604,6.409,6.4762,6.4851,6.4856,6.4963,6.5054,6.4518,6.4333,6.4286,6.4085,6.4218,6.4606,6.5319,6.6031,6.6744,6.7456,6.791,6.8201,6.8201,6.8201,6.8201,6.8201,6.8301,6.8466,6.8856,6.9314,7.0036,7.14,7.2109,7.2674,7.3441,7.3906,7.4122,7.3707,7.3906,7.4221,7.4221,7.4221,7.4221,7.4372,7.4622,7.5033,7.5913,7.6088,7.6414,7.7268,7.7178,7.7099,7.7357,7.7402,7.7446,7.7613,7.7667,7.7667,7.7402,7.7402,7.7357,7.7223,7.7223,7.7095,7.6814,7.6849,7.6262,7.5039,7.6605,7.6702,7.5462,7.6226,7.6528,4.6411,4.5469,4.4996,4.4881,4.4383,4.3878,0.0,0.0,0.0,4.2619,4.225,0.0,0.0,0.0,0.0,4.1704,0.0,0.0,0.0,4.7968,0.0,5.2598,5.2412,5.2891,5.4589,5.4229,5.4821,5.7093,5.8349,5.9102,5.9399,6.0349,6.0952,6.0961,6.0961,6.0961,6.1002,6.1002,6.1027,6.099,6.2557,6.2954,6.2342,6.4243,6.486,6.4476,6.4576,6.4748,6.4963,6.4472,6.4286,6.4286,6.4085,6.4412,6.5173,6.5837,6.6631,6.7393,6.7974,6.8201,6.8201,6.8201,6.8251,6.8284,6.8363,6.8596,6.8828,6.8958,6.9397,7.0066,7.1221,7.1895,7.2587,7.3739,7.4122,7.4188,7.4005,7.4072,7.4221,7.4221,7.4221,7.4221,7.4322,7.4837,7.5373,7.5805,7.6182,7.6679,7.7133,7.7178,7.7223,7.749,7.749,7.749,7.7613,7.7535,7.7446,7.7268,7.7223,7.7223,7.7223,7.7223,7.6864,7.6141,7.704,7.6513,7.4441,7.678,7.7371,7.6362,7.7267,7.75,4.9544,4.8429,4.7661,4.7842,4.6632,4.5327,4.5293,0.0,4.3395,4.2716,0.0,4.1629,0.0,0.0,0.0,0.0,0.0,0.0,4.2543,4.392,4.5742,4.8332,4.863,4.9425,5.1578,5.1713,5.266,5.5154,5.5404,5.6013,5.7201,5.9118,6.0325,6.0463,6.0496,6.0548,6.0717,6.076,6.1174,6.2047,6.2875,6.357,6.4123,6.4794,6.5066,6.4967,6.4531,6.4518,6.4702,6.4226,6.4132,6.4286,6.4085,6.4554,6.5411,6.5934,6.6729,6.7639,6.8074,6.8201,6.8201,6.8201,6.8351,6.8631,6.908,6.9343,6.9707,7.041,7.0466,7.0642,7.2127,7.2408,7.2456,7.306,7.3707,7.4005,7.3376,7.374,7.4221,7.4221,7.4221,7.4339,7.4754,7.4902,7.5291,7.6262,7.6449,7.6679,7.7133,7.7009,7.6964,7.7223,7.7009,7.7099,7.7569,7.7357,7.7313,7.7535,7.7313,7.7223,7.7223,7.7223,7.6533,7.5085,7.6464,7.6252,7.4225,7.6694,7.6814,7.4796,7.6257,7.7012,5.1605,5.1158,5.0678,4.9216,4.8019,4.6788,4.5259,4.3944,4.2975,4.2651,0.0,0.0,0.0,0.0,0.0,0.0,3.9547,0.0,0.0,0.0,4.276,4.6339,0.0,0.0,4.8298,4.9615,5.0961,5.2388,5.3273,5.4508,5.6326,5.8091,5.9474,6.0378,6.0378,6.0506,6.0717,6.1018,6.138,6.1795,6.3078,6.3804,6.3967,6.4556,6.4963,6.5054,6.4412,6.424,6.4504,6.4554,6.4654,6.4749,6.5108,6.5464,6.5885,6.6647,6.7362,6.7962,6.8154,6.8201,6.8201,6.8201,6.8593,6.9018,6.8939,6.9399,6.9941,7.0116,7.0507,7.108,7.2004,7.241,7.2789,7.3386,7.377,7.3902,7.3773,7.3972,7.4221,7.4221,7.4389,7.4787,7.5243,7.534,7.5614,7.6402,7.6725,7.6998,7.7178,7.7099,7.7088,7.7178,7.7099,7.7099,7.7357,7.7268,7.7313,7.7613,7.749,7.7357,7.7223,7.7223,7.6706,7.5637,7.6627,7.6371,7.4628,7.6547,7.6444,7.4552,7.6301,7.6957,5.3901,5.3881,5.3659,5.1096,4.9738,4.8349,4.6039,4.4366,4.3232,4.31,4.2276,0.0,0.0,0.0,0.0,0.0,0.0,3.9727,0.0,3.9651,0.0,0.0,0.0,0.0,0.0,4.7078,4.8521,4.9995,5.1037,5.2567,5.4914,5.6809,5.8335,5.95,5.9967,6.0292,6.0548,6.1098,6.1546,6.1786,6.3209,6.3899,6.3916,6.4348,6.4702,6.4872,6.4514,6.4392,6.4518,6.5171,6.5367,6.5384,6.6177,6.6436,6.6452,6.7248,6.7866,6.8401,6.8351,6.8301,6.8334,6.8478,6.8899,6.9422,6.9494,6.9941,7.0435,7.0481,7.0859,7.1335,7.2055,7.256,7.3037,7.3731,7.3899,7.3968,7.4171,7.4221,7.4221,7.4272,7.4589,7.5033,7.5614,7.5805,7.6088,7.6633,7.6998,7.7223,7.7223,7.7223,7.7223,7.7223,7.7051,7.7016,7.7189,7.7061,7.716,7.7667,7.7667,7.7579,7.7313,7.7313,7.6923,7.612,7.6799,7.642,7.4903,7.6509,7.6461,7.483,7.6279,7.659,5.6776,5.6819,5.6467,5.4315,5.2227,5.0252,4.8491,4.6481,4.4853,4.4294,4.3604,0.0,0.0,0.0,0.0,0.0,0.0,0.0,0.0,0.0,0.0,0.0,0.0,0.0,0.0,4.3795,4.4784,0.0,4.8369,4.9386,5.2203,5.5021,5.6825,5.7388,5.8917,5.9848,6.0109,6.0782,6.1599,6.2584,6.3261,6.3981,6.4669,6.4393,6.4333,6.4365,6.5082,6.5233,6.506,6.6061,6.6306,6.6129,6.7167,6.7378,6.7165,6.7165,6.7965,6.8945,6.8699,6.86,6.8648,6.9112,6.9473,6.9935,7.1388,7.1509,7.1403,7.2312,7.1948,7.1486,7.2713,7.2861,7.2958,7.3955,7.4171,7.4171,7.4221,7.4221,7.4272,7.4556,7.4606,7.4821,7.5566,7.6135,7.6633,7.7133,7.7178,7.7223,7.7223,7.7223,7.7223,7.7223,7.6568,7.643,7.7154,7.671,7.6834,7.7815,7.7893,7.7798,7.7613,7.7613,7.71,7.612,7.6799,7.642,7.4903,7.672,7.6912,7.5561,7.5631,7.5497,5.9671,5.9674,5.9278,5.6561,5.4857,5.3122,5.0326,4.8477,4.7039,4.6286,4.6087,0.0,0.0,0.0,0.0,0.0,0.0,0.0,0.0,0.0,0.0,0.0,0.0,0.0,0.0,0.0,0.0,0.0,4.5664,0.0,5.0649,5.2469,5.4471,5.6718,5.7635,5.8777,6.0109,6.1061,6.182,6.235,6.348,6.4165,6.4472,6.4518,6.4826,6.5283,6.5545,6.5857,6.6333,6.6954,6.7248,6.7442,6.803,6.8291,6.834,6.8192,6.8256,6.8501,6.855,6.8926,6.9349,6.9509,7.0123,7.085,7.1089,7.1182,7.1287,7.1585,7.1225,7.0914,7.1637,7.2112,7.2507,7.3074,7.3587,7.3968,7.4171,7.4221,7.4272,7.4556,7.487,7.5179,7.5662,7.6135,7.6587,7.6873,7.7099,7.7233,7.7446,7.7446,7.7446,7.7446,7.6657,7.643,7.7154,7.7204,7.7345,7.771,7.771,7.7579,7.7357,7.7525,7.7431,7.71,7.7484,7.7389,7.6869,7.7476,7.7371,7.6573,7.6049,7.5551,6.1806,6.1742,6.1329,5.8326,5.7133,5.5814,5.2557,5.0858,4.978,4.8994,0.0,0.0,0.0,0.0,0.0,0.0,0.0,0.0,0.0,3.9034,0.0,0.0,0.0,0.0,0.0,0.0,0.0,0.0,0.0,0.0,0.0,5.0978,5.3108,5.5463,5.6979,5.8475,5.9903,6.1199,6.1912,6.208,6.3511,6.4193,6.4226,6.4733,6.5054,6.5316,6.6256,6.6762,6.6962,6.7897,6.8241,6.8225,6.8634,6.8797,6.8847,6.8649,6.855,6.8533,6.8744,6.9334,7.0023,7.0243,7.087,7.1584,7.17,7.1625,7.1516,7.1505,7.1062,7.0699,7.0996,7.1407,7.1884,7.2678,7.3224,7.3671,7.4105,7.4272,7.4423,7.4771,7.5082,7.5422,7.5757,7.6041,7.6322,7.6645,7.6828,7.7054,7.7402,7.7313,7.7313,7.7569,7.6371,7.5824,7.6449,7.7179,7.7657,7.771,7.771,7.7579,7.7357,7.7579,7.7667,7.7613,7.7798,7.7893,7.7893,7.7893,7.7779,7.7503,7.6419,7.5773]}]]